[[{"header":{"parameterUnit":"m.s-1","parameterCategory":1,"la1":31.0,"la2":29.5877,"lo1":-88.7671,"lo2":-86.6584,"dy":0.0162,"dx":0.0185,"nx":115,"ny":88,"refTime":"2023-05-18T06:00:00:Z","depth":0,"parameterNumber":2,"parameterNumberName":"U-component_of_WINDS"},"data":[0.0,0.0,0.0,0.0,0.0,0.0,0.0,0.0,0.0,0.0,0.0,0.0,0.0,0.0,0.0,0.0,0.0,0.0,0.0,0.0,0.0,0.0,0.0,0.0,0.0,0.0,0.0,0.0,0.0,0.0,0.0,0.0,0.0,0.0,0.0,0.0,0.0,0.0,0.0,0.0,0.0,0.0,0.0,0.0,0.0,0.0,0.0,0.0,0.0,0.0,0.0,0.0,0.0,0.0,0.0,0.0,0.0,0.0,0.0,0.0,0.0,0.0,0.0,0.0,0.0,0.0,0.0,0.0,0.0,0.0,0.0,0.0,0.0,0.0,0.0,0.0,0.0,0.0,0.0,0.0,0.0,0.0,0.0,0.0,0.0,0.0,0.0,0.0,0.0,0.0,0.0,0.0,0.0,0.0,0.0,0.0,0.0,0.0,0.0,0.0,0.0,0.0,0.0,0.0,0.0,0.0,0.0,0.0,0.0,0.0,0.0,0.0,0.0,0.0,0.0,0.0,0.0,0.0,0.0,0.0,0.0,0.0,0.0,0.0,0.0,0.0,0.0,0.0,0.0,0.0,0.0,0.0,0.0,0.0,0.0,0.0,0.0,0.0,0.0,0.0,0.0,0.0,0.0,0.0,0.0,0.0,0.0,0.0,0.0,0.0,0.0,0.0,0.0,0.0,0.0,0.0,0.0,0.0,0.0,0.0,0.0,0.0,0.0,0.0,0.0,0.0,0.0,0.0,0.0,0.0,0.0,0.0,0.0,0.0,0.0,0.0,0.0,0.0,0.0,0.0,0.0,0.0,0.0,0.0,0.0,0.0,0.0,0.0,0.0,0.0,0.0,0.0,0.0,0.0,0.0,0.0,0.0,0.0,0.0,0.0,0.0,0.0,0.0,0.0,0.0,0.0,0.0,0.0,0.0,0.0,0.0,0.0,0.0,0.0,0.0,0.0,0.0,0.0,0.0,0.0,0.0,0.0,0.0,0.0,0.0,0.0,0.0,0.0,0.0,0.0,0.0,0.0,0.0,0.0,0.0,0.0,0.0,0.0,0.0,0.0,0.0,0.0,0.0,0.0,0.0,0.0,0.0,0.0,0.0,0.0,0.0,0.0,0.0,0.0,0.0,0.0,0.0,0.0,0.0,0.0,0.0,0.0,0.0,0.0,0.0,0.0,0.0,0.0,0.0,0.0,0.0,0.0,0.0,0.0,0.0,0.0,0.0,0.0,0.0,0.0,0.0,0.0,0.0,0.0,0.0,0.0,0.0,0.0,0.0,0.0,0.0,0.0,0.0,0.0,0.0,0.0,0.0,0.0,0.0,0.0,0.0,0.0,0.0,0.0,0.0,0.0,0.0,0.0,0.0,0.0,0.0,0.0,0.0,0.0,0.0,0.0,0.0,0.0,0.0,0.0,0.0,0.0,0.0,0.0,0.0,0.0,0.0,0.0,0.0,0.0,0.0,0.0,0.0,0.0,0.0,0.0,0.0,0.0,0.0,0.0,0.0,0.0,0.0,0.0,0.0,0.0,0.0,0.0,0.0,0.0,0.0,0.0,0.0,0.0,0.0,0.0,0.0,0.0,0.0,0.0,0.0,0.0,0.0,0.0,0.0,0.0,0.0,0.0,0.0,0.0,0.0,0.0,0.0,0.0,0.0,0.0,0.0,0.0,0.0,0.0,0.0,0.0,0.0,0.0,0.0,0.0,0.0,0.0,0.0,0.0,0.0,0.0,0.0,0.0,0.0,0.0,0.0,0.0,0.0,0.0,0.0,0.0,0.0,0.0,0.0,0.0,0.0,0.0,0.0,0.0,0.0,0.0,0.0,0.0,0.0,0.0,0.0,0.0,0.0,0.0,0.0,0.0,0.0,0.0,0.0,0.0,0.0,0.0,0.0,0.0,0.0,0.0,0.0,0.0,0.0,0.0,0.0,0.0,0.0,0.0,0.0,0.0,0.0,0.0,0.0,0.0,0.0,0.0,0.0,0.0,0.0,0.0,0.0,0.0,0.0,0.0,0.0,0.0,0.0,0.0,0.0,0.0,0.0,0.0,0.0,0.0,0.0,0.0,0.0,0.0,0.0,0.0,0.0,0.0,0.0,0.0,0.0,0.0,0.0,0.0,0.0,0.0,0.0,0.0,0.0,0.0,0.0,0.0,0.0,0.0,0.0,0.0,0.0,0.0,0.0,0.0,0.0,0.0,0.0,0.0,0.0,0.0,0.0,0.0,0.0,0.0,0.0,0.0,0.0,0.0,0.0,0.0,0.0,0.0,0.0,0.0,0.0,0.0,0.0,0.0,0.0,0.0,0.0,0.0,0.0,0.0,0.0,0.0,0.0,0.0,0.0,0.0,0.0,0.0,0.0,0.0,0.0,0.0,0.0,0.0,0.0,0.0,0.0,0.0,0.0,0.0,0.0,0.0,0.0,0.0,0.0,0.0,0.0,0.0,0.0,0.0,0.0,0.0,0.0,0.0,0.0,0.0,0.0,0.0,0.0,0.0,0.0,0.0,0.0,0.0,0.0,0.0,0.0,0.0,0.0,0.0,0.0,0.0,0.0,0.0,0.0,0.0,0.0,0.0,0.0,0.0,0.0,0.0,0.0,0.0,0.0,0.0,0.0,0.0,0.0,0.0,0.0,0.0,0.0,0.0,0.0,0.0,0.0,0.0,0.0,0.0,0.0,0.0,0.0,0.0,0.0,0.0,0.0,0.0,0.0,0.0,0.0,0.0,0.0,0.0,0.0,0.0,0.0,0.0,0.0,0.0,0.0,0.0,0.0,0.0,0.0,0.0,0.0,0.0,0.0,0.0,0.0,0.0,0.0,0.0,0.0,0.0,0.0,0.0,0.0,0.0,0.0,0.0,0.0,0.0,0.0,0.0,0.0,0.0,0.0,0.0,0.0,0.0,0.0,0.0,0.0,0.0,0.0,0.0,0.0,0.0,0.0,0.0,0.0,0.0,0.0,0.0,0.0,0.0,0.0,0.0,0.0,0.0,0.0,0.0,0.0,0.0,0.0,0.0,0.0,0.0,0.0,0.0,0.0,0.0,0.0,0.0,0.0,0.0,0.0,0.0,0.0,0.0,0.0,0.0,0.0,0.0,0.0,0.0,0.0,0.0,0.0,0.0,0.0,0.0,0.0,0.0,0.0,0.0,0.0,0.0,0.0,0.0,0.0,0.0,0.0,0.0,0.0,0.0,0.0,0.0,0.0,0.0,0.0,0.0,0.0,0.0,0.0,0.0,0.0,0.0,0.0,0.0,0.0,0.0,0.0,0.0,0.0,0.0,0.0,0.0,0.0,0.0,0.0,0.0,0.0,0.0,0.0,0.0,0.0,0.0,0.0,0.0,0.0,0.0,0.0,0.0,0.0,0.0,0.0,0.0,0.0,0.0,0.0,0.0,0.0,0.0,0.0,0.0,0.0,0.0,0.0,0.0,0.0,0.0,0.0,0.0,0.0,0.0,0.0,0.0,0.0,0.0,0.0,0.0,0.0,0.0,0.0,0.0,0.0,0.0,0.0,0.0,0.0,0.0,0.0,0.0,0.0,0.0,0.0,0.0,0.0,0.0,0.0,0.0,0.0,0.0,0.0,0.0,0.0,0.0,0.0,0.0,0.0,0.0,0.0,0.0,0.0,0.0,0.0,0.0,0.0,0.0,0.0,0.0,0.0,0.0,0.0,0.0,0.0,0.0,0.0,0.0,0.0,0.0,0.0,0.0,0.0,0.0,0.0,0.0,0.0,0.0,0.0,0.0,0.0,0.0,0.0,0.0,0.0,0.0,0.0,0.0,0.0,0.0,0.0,0.0,0.0,0.0,0.0,0.0,0.0,0.0,0.0,0.0,0.0,0.0,0.0,0.0,0.0,0.0,0.0,0.0,0.0,0.0,0.0,0.0,0.0,0.0,0.0,0.0,0.0,0.0,0.0,0.0,0.0,0.0,0.0,0.0,0.0,0.0,0.0,0.0,0.0,0.0,0.0,0.0,0.0,0.0,0.0,0.0,0.0,0.0,0.0,0.0,0.0,0.0,0.0,0.0,0.0,0.0,0.0,0.0,0.0,0.0,0.0,0.0,0.0,0.0,0.0,0.0,0.0,0.0,0.0,0.0,0.0,0.0,0.0,0.0,0.0,0.0,0.0,0.0,0.0,0.0,0.0,0.0,0.0,0.0,0.0,0.0,0.0,0.0,0.0,0.0,0.0,0.0,0.0,0.0,0.0,0.0,0.0,0.0,0.0,0.0,0.0,0.0,0.0,0.0,0.0,0.0,-2.5442,0.0,0.0,0.0,0.0,0.0,0.0,0.0,0.0,0.0,0.0,0.0,0.0,0.0,0.0,0.0,0.0,0.0,0.0,0.0,0.0,0.0,0.0,0.0,0.0,0.0,0.0,0.0,0.0,0.0,0.0,0.0,0.0,0.0,0.0,0.0,0.0,0.0,0.0,0.0,0.0,0.0,0.0,0.0,0.0,0.0,0.0,0.0,0.0,0.0,0.0,0.0,0.0,0.0,0.0,0.0,0.0,0.0,0.0,0.0,0.0,0.0,0.0,0.0,0.0,0.0,0.0,0.0,0.0,0.0,0.0,0.0,0.0,0.0,0.0,0.0,0.0,0.0,0.0,0.0,0.0,0.0,0.0,0.0,0.0,0.0,0.0,0.0,0.0,0.0,0.0,0.0,0.0,0.0,0.0,0.0,0.0,0.0,0.0,0.0,0.0,0.0,0.0,0.0,0.0,0.0,0.0,0.0,0.0,0.0,0.0,-2.5661,-2.5703,-2.5661,-2.5643,-2.566,0.0,0.0,0.0,0.0,0.0,0.0,0.0,0.0,0.0,0.0,0.0,0.0,0.0,0.0,0.0,0.0,0.0,0.0,0.0,0.0,0.0,0.0,0.0,0.0,0.0,0.0,0.0,0.0,0.0,0.0,0.0,0.0,0.0,0.0,0.0,0.0,0.0,0.0,0.0,0.0,0.0,0.0,0.0,0.0,0.0,0.0,0.0,0.0,0.0,0.0,0.0,0.0,0.0,0.0,0.0,0.0,0.0,0.0,0.0,0.0,0.0,0.0,0.0,0.0,0.0,0.0,0.0,0.0,0.0,0.0,0.0,0.0,0.0,0.0,0.0,0.0,0.0,0.0,0.0,0.0,0.0,0.0,0.0,0.0,0.0,0.0,0.0,0.0,0.0,0.0,0.0,0.0,0.0,0.0,0.0,0.0,0.0,0.0,0.0,0.0,0.0,0.0,0.0,0.0,0.0,0.0,0.0,0.0,0.0,0.0,0.0,0.0,-2.6769,-2.6766,-2.6788,0.0,0.0,0.0,0.0,0.0,0.0,0.0,0.0,0.0,0.0,0.0,0.0,0.0,0.0,0.0,0.0,0.0,0.0,0.0,0.0,0.0,0.0,0.0,0.0,0.0,0.0,0.0,0.0,0.0,0.0,0.0,0.0,0.0,0.0,0.0,0.0,0.0,0.0,0.0,0.0,0.0,0.0,0.0,0.0,0.0,0.0,0.0,0.0,0.0,0.0,0.0,0.0,0.0,0.0,0.0,0.0,0.0,0.0,0.0,0.0,0.0,0.0,0.0,0.0,0.0,0.0,0.0,0.0,0.0,0.0,0.0,0.0,0.0,0.0,0.0,0.0,0.0,0.0,0.0,0.0,0.0,0.0,0.0,0.0,0.0,0.0,0.0,0.0,0.0,0.0,0.0,0.0,0.0,0.0,0.0,0.0,0.0,0.0,0.0,0.0,0.0,0.0,0.0,0.0,0.0,0.0,0.0,0.0,0.0,0.0,-2.7039,-3.0049,-3.0115,0.0,-3.0049,0.0,0.0,0.0,0.0,0.0,0.0,0.0,0.0,0.0,0.0,0.0,0.0,0.0,0.0,0.0,0.0,0.0,0.0,0.0,0.0,0.0,0.0,0.0,0.0,0.0,0.0,0.0,0.0,0.0,0.0,0.0,0.0,0.0,0.0,0.0,0.0,0.0,0.0,0.0,0.0,0.0,0.0,0.0,0.0,0.0,0.0,0.0,0.0,0.0,0.0,0.0,0.0,0.0,0.0,0.0,0.0,0.0,0.0,0.0,0.0,0.0,0.0,0.0,0.0,0.0,0.0,0.0,0.0,0.0,0.0,0.0,0.0,0.0,0.0,0.0,0.0,0.0,0.0,0.0,0.0,0.0,0.0,0.0,0.0,0.0,0.0,0.0,0.0,0.0,0.0,0.0,0.0,0.0,0.0,0.0,0.0,0.0,0.0,0.0,0.0,0.0,0.0,0.0,0.0,0.0,0.0,0.0,0.0,0.0,0.0,-2.764,-3.0529,-3.0607,-3.014,0.0,0.0,0.0,0.0,0.0,0.0,0.0,0.0,0.0,0.0,0.0,0.0,0.0,0.0,0.0,0.0,0.0,0.0,0.0,0.0,0.0,0.0,0.0,0.0,0.0,0.0,0.0,0.0,0.0,0.0,0.0,0.0,0.0,0.0,0.0,0.0,0.0,0.0,0.0,0.0,0.0,0.0,0.0,0.0,0.0,0.0,0.0,0.0,0.0,0.0,0.0,0.0,0.0,0.0,0.0,0.0,0.0,0.0,0.0,0.0,0.0,0.0,0.0,0.0,0.0,0.0,0.0,0.0,0.0,0.0,0.0,0.0,0.0,0.0,0.0,0.0,0.0,0.0,0.0,0.0,0.0,0.0,0.0,0.0,0.0,0.0,0.0,0.0,0.0,0.0,0.0,0.0,0.0,0.0,0.0,0.0,0.0,0.0,0.0,0.0,0.0,0.0,0.0,0.0,0.0,0.0,0.0,0.0,0.0,0.0,-2.7563,-2.9135,-3.1712,-3.0595,-2.9493,-2.8737,0.0,0.0,0.0,0.0,0.0,0.0,0.0,0.0,0.0,0.0,0.0,0.0,0.0,0.0,0.0,0.0,0.0,0.0,0.0,0.0,0.0,0.0,0.0,0.0,0.0,0.0,0.0,0.0,0.0,0.0,0.0,0.0,0.0,0.0,0.0,0.0,0.0,0.0,0.0,0.0,0.0,0.0,0.0,0.0,0.0,0.0,0.0,0.0,0.0,0.0,0.0,0.0,0.0,0.0,0.0,0.0,0.0,0.0,0.0,0.0,0.0,0.0,0.0,0.0,0.0,0.0,0.0,0.0,0.0,0.0,0.0,0.0,0.0,0.0,0.0,0.0,0.0,0.0,0.0,0.0,0.0,0.0,0.0,0.0,0.0,0.0,0.0,0.0,0.0,0.0,0.0,0.0,0.0,0.0,0.0,0.0,0.0,0.0,0.0,0.0,0.0,0.0,0.0,0.0,0.0,0.0,0.0,0.0,-3.3478,-3.164,-3.2059,-3.5038,-3.0598,-2.8758,0.0,0.0,0.0,0.0,0.0,0.0,0.0,0.0,0.0,0.0,0.0,0.0,0.0,0.0,0.0,0.0,0.0,0.0,0.0,0.0,0.0,0.0,0.0,0.0,0.0,0.0,0.0,0.0,0.0,0.0,0.0,0.0,0.0,0.0,0.0,0.0,0.0,0.0,0.0,0.0,0.0,0.0,0.0,0.0,0.0,0.0,0.0,0.0,0.0,0.0,0.0,0.0,0.0,0.0,0.0,0.0,0.0,0.0,0.0,0.0,0.0,0.0,0.0,0.0,0.0,0.0,0.0,0.0,0.0,0.0,0.0,0.0,0.0,0.0,0.0,0.0,0.0,0.0,0.0,0.0,0.0,0.0,0.0,0.0,0.0,0.0,0.0,0.0,0.0,0.0,0.0,0.0,0.0,0.0,0.0,0.0,0.0,0.0,0.0,0.0,0.0,0.0,0.0,0.0,0.0,0.0,0.0,0.0,0.0,-2.7892,-2.9641,-3.1646,-3.3723,-3.1047,-2.9978,0.0,0.0,0.0,0.0,0.0,0.0,0.0,0.0,0.0,0.0,0.0,0.0,0.0,0.0,0.0,0.0,0.0,0.0,0.0,0.0,0.0,0.0,0.0,0.0,0.0,0.0,0.0,0.0,0.0,0.0,0.0,0.0,0.0,0.0,0.0,0.0,0.0,0.0,0.0,0.0,0.0,0.0,0.0,0.0,0.0,0.0,0.0,0.0,0.0,0.0,0.0,0.0,0.0,0.0,0.0,0.0,0.0,0.0,0.0,0.0,0.0,0.0,0.0,0.0,0.0,0.0,0.0,0.0,0.0,0.0,0.0,0.0,0.0,0.0,0.0,0.0,0.0,0.0,0.0,0.0,0.0,0.0,0.0,0.0,0.0,0.0,0.0,0.0,0.0,0.0,0.0,0.0,0.0,0.0,0.0,0.0,0.0,0.0,0.0,0.0,0.0,0.0,0.0,0.0,0.0,0.0,0.0,0.0,0.0,-2.7227,0.0,-3.304,-3.2973,-3.132,-3.0049,0.0,0.0,0.0,0.0,0.0,0.0,0.0,0.0,0.0,0.0,0.0,0.0,0.0,0.0,0.0,0.0,0.0,0.0,0.0,0.0,0.0,0.0,0.0,0.0,0.0,0.0,0.0,0.0,0.0,0.0,0.0,0.0,0.0,0.0,0.0,0.0,0.0,0.0,0.0,0.0,0.0,0.0,0.0,0.0,0.0,0.0,0.0,0.0,0.0,0.0,0.0,0.0,0.0,0.0,0.0,0.0,0.0,0.0,0.0,0.0,0.0,0.0,0.0,0.0,0.0,0.0,0.0,0.0,0.0,0.0,0.0,0.0,0.0,0.0,0.0,0.0,0.0,0.0,0.0,0.0,0.0,0.0,0.0,0.0,0.0,0.0,0.0,0.0,0.0,0.0,0.0,0.0,0.0,0.0,0.0,0.0,0.0,0.0,0.0,0.0,0.0,0.0,0.0,0.0,0.0,0.0,0.0,0.0,-2.716,-3.2887,-3.6216,-3.6274,-3.3356,-3.1362,-2.8763,0.0,0.0,0.0,0.0,0.0,0.0,0.0,0.0,0.0,0.0,0.0,0.0,0.0,0.0,0.0,0.0,0.0,0.0,0.0,0.0,0.0,0.0,0.0,0.0,0.0,0.0,0.0,0.0,0.0,0.0,0.0,0.0,0.0,0.0,0.0,0.0,0.0,0.0,0.0,0.0,0.0,0.0,0.0,0.0,0.0,0.0,0.0,0.0,0.0,0.0,0.0,0.0,0.0,0.0,0.0,0.0,0.0,0.0,0.0,0.0,0.0,0.0,0.0,0.0,0.0,0.0,0.0,0.0,0.0,0.0,0.0,0.0,0.0,0.0,0.0,0.0,0.0,0.0,0.0,0.0,0.0,0.0,0.0,0.0,0.0,0.0,0.0,0.0,0.0,0.0,0.0,0.0,0.0,0.0,0.0,0.0,0.0,0.0,0.0,0.0,0.0,0.0,0.0,0.0,0.0,0.0,0.0,0.0,0.0,-2.8954,-3.2124,-3.4419,-3.5447,-3.1107,-2.9735,0.0,0.0,0.0,0.0,0.0,0.0,0.0,0.0,0.0,0.0,0.0,0.0,0.0,0.0,0.0,0.0,0.0,0.0,0.0,0.0,0.0,0.0,0.0,0.0,0.0,0.0,0.0,0.0,0.0,0.0,0.0,0.0,0.0,0.0,0.0,0.0,0.0,0.0,0.0,0.0,0.0,0.0,0.0,0.0,0.0,0.0,0.0,0.0,0.0,0.0,0.0,0.0,0.0,0.0,0.0,0.0,0.0,0.0,0.0,0.0,0.0,0.0,0.0,0.0,0.0,0.0,0.0,0.0,0.0,0.0,0.0,0.0,0.0,0.0,0.0,0.0,0.0,0.0,0.0,0.0,0.0,0.0,0.0,0.0,0.0,0.0,0.0,0.0,0.0,0.0,0.0,0.0,0.0,0.0,0.0,0.0,0.0,0.0,0.0,0.0,0.0,0.0,0.0,0.0,0.0,0.0,0.0,0.0,0.0,-2.9687,-3.3226,-3.5455,-3.6012,-3.2146,-3.0734,-3.2041,0.0,0.0,0.0,0.0,0.0,0.0,0.0,0.0,0.0,0.0,0.0,0.0,0.0,0.0,0.0,0.0,0.0,0.0,0.0,0.0,0.0,0.0,0.0,0.0,0.0,0.0,0.0,0.0,0.0,0.0,0.0,0.0,0.0,0.0,0.0,0.0,0.0,0.0,0.0,0.0,0.0,0.0,0.0,0.0,0.0,0.0,0.0,0.0,0.0,0.0,0.0,0.0,0.0,0.0,0.0,0.0,0.0,0.0,0.0,0.0,0.0,0.0,0.0,0.0,0.0,0.0,0.0,0.0,0.0,0.0,0.0,0.0,0.0,0.0,0.0,0.0,0.0,0.0,0.0,0.0,0.0,0.0,0.0,0.0,0.0,0.0,0.0,0.0,0.0,0.0,0.0,0.0,0.0,0.0,0.0,0.0,0.0,0.0,0.0,0.0,0.0,0.0,0.0,0.0,0.0,0.0,0.0,0.0,-3.3818,-3.8556,-3.9163,-3.5343,-3.4127,-3.1741,0.0,0.0,0.0,0.0,0.0,0.0,0.0,0.0,0.0,0.0,0.0,0.0,0.0,0.0,0.0,0.0,0.0,0.0,0.0,0.0,0.0,0.0,0.0,0.0,0.0,0.0,0.0,0.0,0.0,0.0,0.0,0.0,0.0,0.0,0.0,0.0,0.0,0.0,0.0,0.0,0.0,0.0,0.0,0.0,0.0,0.0,0.0,0.0,0.0,0.0,0.0,0.0,0.0,0.0,0.0,0.0,0.0,0.0,0.0,0.0,0.0,0.0,0.0,0.0,0.0,0.0,0.0,0.0,0.0,0.0,0.0,0.0,0.0,0.0,0.0,0.0,0.0,0.0,0.0,0.0,0.0,0.0,0.0,0.0,0.0,0.0,0.0,0.0,0.0,0.0,0.0,0.0,0.0,0.0,0.0,0.0,0.0,0.0,0.0,0.0,0.0,0.0,0.0,0.0,0.0,0.0,0.0,0.0,0.0,-3.5195,-3.9591,-4.1362,-4.0014,-3.5325,-3.2817,0.0,0.0,0.0,0.0,0.0,0.0,0.0,0.0,0.0,0.0,0.0,0.0,0.0,0.0,0.0,0.0,0.0,0.0,0.0,0.0,0.0,0.0,0.0,0.0,0.0,0.0,0.0,0.0,0.0,0.0,0.0,0.0,0.0,0.0,0.0,0.0,0.0,0.0,0.0,0.0,0.0,0.0,0.0,0.0,0.0,0.0,0.0,0.0,0.0,0.0,0.0,0.0,0.0,0.0,0.0,0.0,0.0,0.0,0.0,0.0,0.0,0.0,0.0,0.0,0.0,0.0,0.0,0.0,0.0,0.0,0.0,0.0,0.0,0.0,0.0,0.0,0.0,0.0,0.0,0.0,0.0,0.0,0.0,0.0,0.0,0.0,0.0,0.0,0.0,0.0,0.0,0.0,0.0,0.0,0.0,0.0,0.0,0.0,0.0,0.0,0.0,0.0,0.0,0.0,0.0,0.0,0.0,0.0,-3.4936,-3.7529,-4.0985,-4.2756,-4.263,-3.8128,-3.4986,0.0,0.0,0.0,0.0,0.0,0.0,0.0,0.0,0.0,0.0,0.0,0.0,0.0,0.0,0.0,0.0,0.0,0.0,0.0,0.0,0.0,0.0,0.0,0.0,0.0,0.0,0.0,0.0,0.0,0.0,0.0,0.0,0.0,0.0,0.0,0.0,0.0,0.0,0.0,0.0,0.0,0.0,0.0,0.0,0.0,0.0,0.0,0.0,0.0,0.0,0.0,0.0,0.0,0.0,0.0,0.0,0.0,0.0,0.0,0.0,0.0,0.0,0.0,0.0,0.0,0.0,0.0,0.0,0.0,0.0,0.0,0.0,0.0,0.0,0.0,0.0,0.0,0.0,0.0,0.0,0.0,0.0,0.0,0.0,0.0,0.0,0.0,0.0,0.0,0.0,0.0,0.0,0.0,0.0,0.0,0.0,0.0,0.0,0.0,0.0,0.0,0.0,0.0,0.0,0.0,0.0,0.0,0.0,-3.6354,-4.0131,-4.2359,-4.3534,-4.3516,-4.1071,-3.7238,0.0,0.0,0.0,0.0,0.0,0.0,0.0,0.0,0.0,0.0,0.0,0.0,0.0,0.0,0.0,0.0,0.0,0.0,0.0,0.0,0.0,0.0,0.0,0.0,0.0,0.0,0.0,0.0,0.0,0.0,0.0,0.0,0.0,0.0,0.0,0.0,0.0,0.0,0.0,0.0,0.0,0.0,0.0,0.0,0.0,0.0,0.0,0.0,0.0,0.0,0.0,0.0,0.0,0.0,0.0,0.0,0.0,0.0,0.0,0.0,0.0,0.0,0.0,0.0,0.0,0.0,0.0,0.0,0.0,0.0,0.0,0.0,0.0,0.0,0.0,0.0,0.0,0.0,0.0,0.0,0.0,0.0,0.0,0.0,0.0,0.0,0.0,0.0,0.0,0.0,0.0,0.0,0.0,0.0,0.0,0.0,0.0,0.0,0.0,0.0,0.0,0.0,0.0,0.0,0.0,0.0,0.0,0.0,-3.6753,-4.0129,-4.2345,-4.3791,-4.4397,-3.9187,-3.5206,0.0,0.0,0.0,0.0,0.0,0.0,0.0,0.0,0.0,0.0,0.0,0.0,0.0,0.0,0.0,0.0,0.0,0.0,0.0,0.0,0.0,0.0,0.0,0.0,0.0,0.0,0.0,0.0,0.0,0.0,0.0,0.0,0.0,0.0,0.0,0.0,0.0,0.0,0.0,0.0,0.0,0.0,0.0,0.0,0.0,0.0,0.0,0.0,-2.5293,0.0,0.0,0.0,0.0,0.0,0.0,0.0,0.0,0.0,0.0,0.0,0.0,0.0,0.0,0.0,0.0,0.0,0.0,0.0,0.0,0.0,0.0,0.0,0.0,0.0,0.0,0.0,0.0,0.0,0.0,0.0,0.0,0.0,0.0,0.0,0.0,0.0,0.0,0.0,0.0,0.0,0.0,0.0,0.0,0.0,0.0,0.0,0.0,0.0,0.0,0.0,0.0,0.0,0.0,0.0,0.0,0.0,0.0,0.0,-3.759,-4.1064,-4.2684,-4.3516,-4.3406,-3.8865,-3.5393,0.0,0.0,0.0,0.0,0.0,0.0,0.0,0.0,0.0,0.0,0.0,0.0,0.0,0.0,0.0,0.0,0.0,0.0,0.0,0.0,0.0,0.0,0.0,0.0,0.0,0.0,0.0,0.0,0.0,0.0,0.0,0.0,0.0,0.0,0.0,0.0,0.0,0.0,0.0,0.0,0.0,0.0,0.0,0.0,0.0,0.0,0.0,0.0,0.0,0.0,0.0,0.0,0.0,0.0,0.0,0.0,0.0,0.0,0.0,0.0,0.0,0.0,0.0,0.0,0.0,0.0,0.0,0.0,0.0,0.0,0.0,0.0,0.0,0.0,0.0,0.0,0.0,0.0,0.0,0.0,0.0,0.0,0.0,0.0,0.0,0.0,0.0,0.0,0.0,0.0,0.0,0.0,0.0,0.0,0.0,0.0,0.0,0.0,0.0,0.0,0.0,0.0,0.0,0.0,0.0,0.0,0.0,-3.524,-3.8217,-4.2121,-4.3075,-4.3112,-4.2286,-3.9184,-3.6285,-3.3715,0.0,0.0,0.0,0.0,0.0,0.0,0.0,0.0,0.0,0.0,0.0,0.0,0.0,0.0,0.0,0.0,0.0,0.0,0.0,0.0,0.0,0.0,0.0,0.0,0.0,0.0,0.0,0.0,0.0,0.0,0.0,0.0,0.0,0.0,0.0,0.0,0.0,0.0,-2.5365,-2.5546,0.0,0.0,0.0,0.0,0.0,0.0,0.0,0.0,-2.5189,0.0,0.0,0.0,0.0,0.0,0.0,0.0,0.0,0.0,0.0,0.0,0.0,0.0,0.0,0.0,0.0,0.0,0.0,0.0,0.0,0.0,0.0,0.0,0.0,0.0,0.0,0.0,0.0,0.0,0.0,0.0,0.0,0.0,0.0,0.0,0.0,0.0,0.0,0.0,0.0,0.0,0.0,0.0,0.0,0.0,0.0,0.0,0.0,0.0,0.0,0.0,0.0,0.0,0.0,0.0,0.0,-3.4559,-3.5055,-3.7526,-4.2158,-4.3075,-4.3112,-4.2249,-3.9166,-3.6009,-3.2908,0.0,0.0,0.0,0.0,0.0,0.0,0.0,0.0,0.0,0.0,0.0,0.0,0.0,0.0,0.0,0.0,0.0,0.0,0.0,0.0,0.0,0.0,0.0,0.0,0.0,0.0,0.0,0.0,0.0,0.0,0.0,0.0,0.0,0.0,0.0,0.0,0.0,0.0,0.0,-2.5508,-2.5508,0.0,0.0,0.0,0.0,0.0,0.0,0.0,0.0,-2.5316,0.0,0.0,0.0,0.0,0.0,0.0,0.0,0.0,0.0,0.0,0.0,0.0,0.0,0.0,0.0,0.0,0.0,0.0,0.0,0.0,0.0,0.0,0.0,0.0,0.0,0.0,0.0,0.0,0.0,0.0,0.0,0.0,0.0,0.0,0.0,0.0,0.0,0.0,0.0,0.0,0.0,0.0,0.0,0.0,0.0,0.0,0.0,0.0,0.0,0.0,0.0,0.0,0.0,0.0,0.0,-3.3523,-3.5037,-3.7826,-4.2121,-4.2268,-4.1864,-4.1001,-3.7496,-3.4247,0.0,0.0,0.0,0.0,0.0,0.0,0.0,0.0,0.0,0.0,0.0,0.0,0.0,0.0,0.0,0.0,0.0,0.0,0.0,0.0,0.0,0.0,0.0,0.0,0.0,0.0,0.0,0.0,0.0,0.0,0.0,0.0,0.0,0.0,0.0,0.0,0.0,0.0,0.0,0.0,-2.5871,-2.5998,-2.5517,0.0,0.0,0.0,0.0,0.0,0.0,-2.5971,-2.6001,0.0,0.0,0.0,0.0,0.0,0.0,0.0,0.0,0.0,0.0,0.0,0.0,0.0,0.0,0.0,0.0,0.0,0.0,0.0,0.0,0.0,0.0,0.0,0.0,0.0,0.0,0.0,0.0,0.0,0.0,0.0,0.0,0.0,0.0,0.0,0.0,0.0,0.0,0.0,0.0,0.0,0.0,0.0,0.0,0.0,0.0,0.0,0.0,0.0,0.0,0.0,0.0,0.0,0.0,0.0,-3.2302,-3.4633,-3.7753,-4.157,-4.1368,-4.0653,-3.9606,-3.5844,-3.2669,0.0,0.0,0.0,0.0,0.0,0.0,0.0,0.0,0.0,0.0,0.0,0.0,0.0,0.0,0.0,0.0,0.0,0.0,0.0,0.0,0.0,0.0,0.0,0.0,0.0,0.0,0.0,0.0,0.0,0.0,0.0,0.0,0.0,0.0,0.0,0.0,0.0,0.0,0.0,0.0,0.0,-2.6424,-2.5526,-2.6122,0.0,0.0,0.0,0.0,-2.529,-2.6456,0.0,0.0,0.0,0.0,0.0,0.0,0.0,0.0,0.0,0.0,0.0,0.0,0.0,0.0,0.0,0.0,0.0,0.0,0.0,0.0,0.0,0.0,0.0,0.0,0.0,0.0,0.0,0.0,0.0,0.0,0.0,0.0,0.0,0.0,0.0,0.0,0.0,0.0,0.0,0.0,0.0,0.0,0.0,0.0,0.0,0.0,0.0,0.0,0.0,0.0,0.0,0.0,0.0,0.0,0.0,0.0,-3.1421,-3.322,-3.6064,-3.9955,-4.0781,-4.0396,-3.8854,-3.5569,-3.2669,0.0,0.0,0.0,0.0,0.0,0.0,0.0,0.0,0.0,0.0,0.0,0.0,0.0,0.0,0.0,0.0,0.0,0.0,0.0,0.0,0.0,0.0,0.0,0.0,0.0,0.0,0.0,0.0,0.0,0.0,0.0,0.0,0.0,0.0,0.0,0.0,0.0,0.0,0.0,0.0,0.0,-2.6314,-2.5428,-2.6044,-2.6284,0.0,0.0,-2.6614,-2.6162,-2.7191,0.0,0.0,0.0,0.0,0.0,0.0,0.0,0.0,0.0,0.0,0.0,0.0,0.0,0.0,0.0,0.0,0.0,0.0,0.0,0.0,0.0,0.0,0.0,0.0,0.0,0.0,0.0,0.0,0.0,0.0,0.0,0.0,0.0,0.0,0.0,0.0,0.0,0.0,0.0,0.0,0.0,0.0,0.0,0.0,0.0,0.0,0.0,0.0,0.0,0.0,0.0,0.0,0.0,0.0,0.0,-2.7622,-3.0668,-3.2761,-3.5312,-3.8395,-3.8872,-3.8285,-3.6604,-3.3018,-3.0375,0.0,0.0,0.0,0.0,0.0,0.0,0.0,0.0,0.0,0.0,0.0,0.0,0.0,0.0,0.0,0.0,0.0,0.0,0.0,0.0,0.0,0.0,0.0,0.0,0.0,0.0,0.0,0.0,0.0,0.0,0.0,0.0,0.0,0.0,0.0,0.0,0.0,0.0,0.0,0.0,0.0,0.0,-2.5203,-2.6218,0.0,0.0,0.0,-2.658,-2.6004,0.0,0.0,0.0,0.0,0.0,0.0,0.0,0.0,0.0,0.0,0.0,0.0,0.0,0.0,0.0,0.0,0.0,0.0,0.0,0.0,0.0,0.0,0.0,0.0,0.0,0.0,0.0,0.0,0.0,0.0,0.0,0.0,0.0,0.0,0.0,0.0,0.0,0.0,0.0,0.0,0.0,0.0,0.0,0.0,0.0,0.0,0.0,0.0,0.0,0.0,0.0,0.0,0.0,0.0,0.0,0.0,0.0,-3.0191,-3.2394,-3.4706,-3.7092,-3.7184,-3.6413,-3.4679,-3.1201,0.0,0.0,0.0,0.0,0.0,0.0,0.0,0.0,0.0,0.0,0.0,0.0,0.0,0.0,0.0,0.0,0.0,0.0,0.0,0.0,0.0,0.0,0.0,0.0,0.0,0.0,0.0,-2.4702,0.0,0.0,0.0,0.0,0.0,0.0,0.0,0.0,0.0,0.0,0.0,0.0,0.0,0.0,-2.6695,-2.5299,-2.6437,-2.7091,0.0,0.0,-2.6336,-2.5602,-2.5867,-2.5778,0.0,0.0,0.0,0.0,0.0,0.0,0.0,0.0,0.0,0.0,0.0,0.0,0.0,0.0,0.0,0.0,0.0,0.0,0.0,0.0,0.0,0.0,0.0,0.0,0.0,0.0,0.0,0.0,0.0,0.0,0.0,0.0,0.0,0.0,0.0,0.0,0.0,0.0,0.0,0.0,0.0,0.0,0.0,0.0,0.0,0.0,0.0,0.0,0.0,0.0,0.0,0.0,0.0,0.0,0.0,-3.0173,-3.1843,-3.388,-3.6266,-3.6376,-3.5587,-3.3917,-3.1439,-2.9365,0.0,0.0,0.0,0.0,0.0,0.0,0.0,0.0,0.0,0.0,0.0,0.0,0.0,0.0,0.0,0.0,0.0,0.0,0.0,0.0,0.0,0.0,0.0,0.0,0.0,0.0,0.0,0.0,0.0,0.0,0.0,0.0,0.0,0.0,0.0,0.0,0.0,0.0,0.0,0.0,0.0,-2.6902,-2.6042,-2.6657,-2.6921,0.0,0.0,-2.6195,-2.503,-2.5606,-2.5826,-2.4662,0.0,0.0,0.0,0.0,0.0,0.0,0.0,0.0,0.0,0.0,0.0,0.0,0.0,0.0,0.0,0.0,0.0,0.0,0.0,0.0,0.0,0.0,0.0,0.0,0.0,0.0,0.0,0.0,0.0,0.0,0.0,0.0,0.0,0.0,0.0,0.0,0.0,0.0,0.0,0.0,0.0,0.0,0.0,0.0,0.0,0.0,0.0,0.0,0.0,0.0,0.0,0.0,0.0,-2.7061,-2.8784,-3.1102,-3.2993,-3.4357,-3.5125,-3.4504,-3.2357,-3.0467,-2.8484,0.0,0.0,0.0,0.0,0.0,0.0,0.0,0.0,0.0,0.0,0.0,0.0,0.0,0.0,0.0,0.0,0.0,0.0,0.0,0.0,0.0,0.0,0.0,0.0,0.0,0.0,0.0,0.0,-2.3449,-2.2738,-2.1808,0.0,0.0,0.0,0.0,0.0,0.0,0.0,0.0,0.0,0.0,-2.6358,-2.5077,-2.6114,0.0,0.0,-2.6032,-2.6078,-2.5298,-2.5597,-2.5578,-2.4506,-2.4523,0.0,0.0,0.0,0.0,0.0,0.0,0.0,0.0,0.0,0.0,0.0,0.0,0.0,0.0,0.0,0.0,0.0,0.0,0.0,0.0,0.0,0.0,0.0,0.0,0.0,0.0,0.0,0.0,0.0,0.0,0.0,0.0,0.0,0.0,0.0,0.0,0.0,0.0,0.0,0.0,0.0,0.0,0.0,0.0,0.0,0.0,0.0,0.0,0.0,0.0,0.0,0.0,-2.6514,-2.788,-3.0295,-3.2008,-3.2965,-3.3953,-3.3442,-3.1287,-3.0009,-2.8246,0.0,0.0,0.0,0.0,0.0,0.0,0.0,0.0,0.0,0.0,0.0,0.0,0.0,0.0,0.0,0.0,0.0,0.0,0.0,0.0,0.0,0.0,0.0,0.0,0.0,0.0,0.0,0.0,-2.3334,-2.2594,-2.1534,0.0,0.0,0.0,0.0,0.0,0.0,0.0,0.0,0.0,0.0,-2.5823,-2.4722,-2.5651,-2.6188,-2.5496,-2.5523,-2.5467,-2.5092,-2.5199,-2.4979,-2.4006,0.0,0.0,0.0,0.0,0.0,0.0,0.0,0.0,0.0,0.0,0.0,0.0,0.0,0.0,0.0,0.0,0.0,0.0,0.0,0.0,0.0,0.0,0.0,0.0,0.0,0.0,0.0,0.0,0.0,0.0,0.0,0.0,0.0,0.0,0.0,0.0,0.0,0.0,0.0,0.0,0.0,0.0,0.0,0.0,0.0,0.0,0.0,0.0,0.0,0.0,0.0,0.0,0.0,-2.6286,-2.788,-2.9455,-3.0977,-3.2446,-3.3001,-3.2473,-3.0846,-3.0378,-2.9035,-2.6612,0.0,0.0,0.0,0.0,0.0,0.0,0.0,0.0,0.0,0.0,0.0,0.0,0.0,0.0,0.0,0.0,0.0,0.0,0.0,0.0,0.0,0.0,0.0,0.0,0.0,0.0,-2.4441,-2.3601,-2.2923,0.0,0.0,0.0,0.0,0.0,0.0,0.0,0.0,0.0,0.0,-2.4925,-2.5421,-2.5348,-2.5403,-2.5478,-2.5403,-2.4742,-2.4264,-2.4245,-2.4245,-2.3969,0.0,0.0,0.0,0.0,0.0,0.0,0.0,0.0,0.0,0.0,0.0,0.0,0.0,0.0,0.0,0.0,0.0,0.0,0.0,0.0,0.0,0.0,0.0,0.0,0.0,0.0,0.0,0.0,-2.9433,0.0,0.0,0.0,0.0,0.0,0.0,0.0,0.0,0.0,0.0,0.0,-2.8413,-2.8674,0.0,0.0,0.0,0.0,0.0,0.0,0.0,0.0,0.0,0.0,0.0,0.0,-2.582,-2.7098,-2.8873,-3.0276,-3.1288,-3.2041,-3.1632,-3.0044,-2.9618,-2.8282,-2.5878,0.0,0.0,0.0,0.0,0.0,0.0,0.0,0.0,0.0,0.0,0.0,0.0,0.0,0.0,0.0,0.0,0.0,0.0,0.0,0.0,0.0,0.0,0.0,0.0,0.0,-2.4228,0.0,0.0,0.0,0.0,0.0,0.0,0.0,0.0,0.0,0.0,0.0,-2.3955,-2.417,-2.4689,-2.4957,-2.4666,-2.5052,-2.5219,0.0,0.0,0.0,0.0,0.0,0.0,0.0,0.0,0.0,0.0,0.0,0.0,0.0,0.0,-2.2327,-2.2327,-2.2327,-2.2327,-2.2327,0.0,0.0,0.0,0.0,0.0,0.0,0.0,0.0,0.0,0.0,0.0,0.0,0.0,0.0,0.0,0.0,-2.903,0.0,0.0,0.0,0.0,0.0,0.0,0.0,0.0,-2.8633,-2.9526,-2.903,-2.9557,-2.934,0.0,-2.9124,-2.8215,0.0,0.0,0.0,0.0,0.0,0.0,0.0,0.0,-2.5436,-2.6725,-2.8476,-2.9799,-3.0664,-3.1381,-3.1092,-2.9647,-2.8664,-2.7163,-2.5054,-2.3456,-2.239,0.0,0.0,0.0,0.0,0.0,0.0,0.0,0.0,0.0,0.0,0.0,0.0,0.0,0.0,0.0,0.0,0.0,0.0,0.0,0.0,0.0,0.0,0.0,-2.419,0.0,0.0,0.0,0.0,0.0,0.0,0.0,0.0,0.0,-2.4036,-2.3837,-2.3795,-2.3996,-2.4309,-2.4414,-2.4224,0.0,0.0,0.0,0.0,0.0,0.0,0.0,-2.4098,-2.3841,-2.4025,-2.417,-2.4054,-2.3566,-2.3076,-2.2754,0.0,0.0,-2.2327,-2.2327,-2.2327,-2.2327,-2.2327,-2.2209,-2.1882,-2.1385,-2.0847,0.0,0.0,0.0,0.0,0.0,0.0,0.0,0.0,-2.8429,-2.9365,0.0,-2.8191,0.0,0.0,0.0,0.0,0.0,0.0,0.0,0.0,-2.9746,-3.0585,-2.9154,-2.9278,-2.9397,-2.9656,-3.0177,-2.9898,-2.8879,-2.6704,0.0,0.0,0.0,0.0,0.0,0.0,-2.5234,-2.6725,-2.825,-2.95,-3.0508,-3.1001,-3.0706,-2.953,-2.7583,-2.5839,-2.4337,-2.4153,-2.3287,-2.1508,-2.2808,0.0,0.0,0.0,0.0,0.0,0.0,0.0,0.0,0.0,0.0,0.0,0.0,0.0,0.0,0.0,0.0,0.0,0.0,0.0,0.0,-2.419,0.0,0.0,0.0,0.0,0.0,0.0,0.0,0.0,0.0,0.0,-2.3738,-2.3692,-2.371,-2.3728,0.0,0.0,0.0,0.0,-2.419,-2.419,-2.419,-2.419,-2.419,-2.419,-2.3933,-2.3162,0.0,0.0,-2.372,-2.3397,-2.3093,-2.2772,-2.2473,-2.2327,-2.2327,-2.2327,-2.2327,-2.2327,-2.2327,-2.2282,-2.2209,-2.1535,-2.0766,-3.5135,0.0,0.0,0.0,0.0,-3.1825,-3.2247,-3.3211,-3.243,-3.2155,-3.2137,-3.0081,0.0,0.0,0.0,0.0,0.0,0.0,-2.8609,-2.8673,-3.1104,-3.171,-3.0774,-3.1895,-3.1906,-3.0939,-3.1598,-3.1074,-2.9461,-2.9009,-2.7716,-2.5542,0.0,0.0,0.0,0.0,-2.5678,-2.7098,-2.8578,-2.9417,-2.947,-3.011,-2.9744,-2.8341,-2.6427,-2.5266,-2.5052,-2.3969,-2.3269,-2.3007,-2.2337,0.0,0.0,0.0,0.0,0.0,0.0,0.0,0.0,0.0,0.0,0.0,0.0,0.0,0.0,0.0,0.0,0.0,0.0,0.0,-2.419,-2.419,-2.419,0.0,0.0,0.0,0.0,0.0,0.0,0.0,0.0,0.0,-2.3722,-2.3482,-2.3519,0.0,0.0,-2.3651,-2.4512,-2.4381,-2.419,-2.419,0.0,0.0,0.0,-2.419,-2.3914,-2.3125,-2.3199,-2.3215,-2.2883,-2.3017,-2.3093,-2.2772,-2.2473,-2.2327,-2.2327,-2.2327,-2.2327,-2.2327,-2.2327,-2.218,-2.1836,-2.1157,-2.0524,-3.8884,-3.6759,-3.4862,-3.4156,-3.4247,-3.3752,-3.3908,-3.4468,-3.3348,-3.3109,-3.3403,-3.1182,-3.0008,-2.9604,-2.7695,0.0,0.0,0.0,-2.9685,-3.0134,-3.1816,-3.2429,-3.2192,-3.3096,-3.3136,-3.2403,-3.2682,-3.2302,-3.1265,-3.1174,-3.0174,-2.8179,0.0,0.0,-2.5261,-2.5604,-2.6521,-2.7979,-2.8702,-2.9042,-2.9018,-2.8976,-2.8416,-2.7343,-2.5896,-2.5035,-2.4905,-2.3988,-2.3307,-2.2951,-2.2198,-2.1588,0.0,0.0,0.0,0.0,0.0,0.0,0.0,0.0,0.0,0.0,0.0,-2.419,-2.419,0.0,0.0,0.0,-2.4014,-2.4036,-2.4208,-2.419,0.0,0.0,0.0,0.0,0.0,0.0,0.0,-2.419,-2.419,-2.4098,-2.3747,-2.353,-2.3501,-2.3819,-2.3602,-2.3638,-2.4275,0.0,-2.419,-2.419,-2.3933,-2.3731,-2.3731,-2.3437,-2.307,-2.2593,-2.2795,-2.2867,-2.2576,-2.3002,-2.3218,-2.2797,-2.259,-2.2409,-2.2338,-2.2327,-2.2327,-2.2327,-2.2327,-2.2209,-2.1928,-2.1139,-2.0373,-4.1956,-4.1038,-3.8102,-3.6303,-3.5394,-3.5302,-3.489,-3.4082,-3.2577,-3.3036,-3.4734,-3.1751,-3.1109,-3.2173,-3.0039,0.0,0.0,-3.0044,-3.0633,-3.1083,-3.22,-3.2867,-3.3225,-3.3243,-3.3437,-3.3762,-3.3437,-3.3437,-3.3733,-3.3036,-3.2284,-3.1439,-2.8961,-2.7616,-2.7368,-2.7102,-2.7627,-2.8965,-2.8648,-2.8586,-2.8894,-2.77,-2.6897,-2.6499,-2.5638,-2.4812,-2.4153,-2.4025,-2.3327,-2.1914,-2.2151,-2.1652,-2.0245,0.0,0.0,0.0,0.0,0.0,0.0,0.0,0.0,0.0,0.0,0.0,0.0,0.0,0.0,0.0,-2.3692,0.0,-2.417,-2.419,0.0,0.0,0.0,-2.419,-2.419,-2.419,-2.419,-2.419,0.0,0.0,0.0,0.0,-2.3585,-2.3287,-2.3522,-2.371,-2.3783,-2.403,-2.419,-2.419,-2.3584,-2.3125,-2.3217,-2.2446,-2.1803,-2.1746,-2.2318,-2.2612,-2.249,-2.298,-2.3231,-2.2855,-2.2695,-2.2565,-2.2265,-2.2226,-2.2276,-2.209,-2.2209,-2.2293,-2.2085,-2.1222,-2.0235,-4.3094,-4.2855,-4.2084,-4.0598,-3.8707,-3.8083,-3.7716,-3.7441,-3.6468,-3.5661,-3.4862,-3.2926,-3.1212,-2.9861,-2.9898,-3.0265,-3.0852,-3.1678,-3.2415,-3.3086,-3.3368,-3.357,-3.3652,-3.3634,-3.3689,-3.3788,-3.3707,-3.3707,-3.3788,-3.3605,-3.3109,-3.232,-3.1638,-3.0261,-2.8229,-2.8124,-2.8121,-2.8191,-2.8611,-2.8599,-2.8059,-2.6659,-2.5835,-2.5676,-2.4065,-2.3226,-2.3272,-2.2685,-2.2189,-2.1821,-2.1294,-2.0785,-2.0438,-2.1134,0.0,0.0,0.0,0.0,0.0,0.0,0.0,0.0,0.0,-2.4094,-2.3837,0.0,-2.3588,0.0,-2.3544,-2.3837,-2.417,-2.419,0.0,0.0,-2.419,-2.419,-2.419,-2.419,-2.419,-2.419,-2.419,-2.4171,-2.4098,-2.3866,-2.3663,-2.3588,-2.3631,-2.3909,-2.4424,-2.432,-2.419,-2.4153,-2.3951,-2.3933,-2.3657,-2.2318,-2.1048,-2.0836,-2.0991,-2.1274,-2.188,-2.2206,-2.2539,-2.2928,-2.2695,-2.2194,-2.1576,-2.1904,-2.182,-2.0931,-2.1481,-2.2141,-2.1583,-2.0743,-1.9891,-4.3479,-4.3479,-4.3479,-4.2506,-4.091,-4.012,-3.957,-3.9148,-3.7991,-3.6762,-3.5477,-3.3476,-3.2038,-3.1164,-3.1237,-3.1715,-3.2467,-3.2926,-3.3366,-3.3807,-3.3807,-3.3807,-3.3807,-3.3807,-3.3807,-3.3807,-3.3807,-3.3807,-3.3807,-3.3807,-3.3568,-3.3128,-3.3146,-3.1997,-2.9835,-2.9416,-2.9341,-2.9458,-2.898,-2.837,-2.754,-2.6328,-2.5613,-2.5364,-2.3669,-2.2792,-2.2978,-2.2208,-2.1785,-2.1784,-2.1327,-2.0904,-2.0539,-2.096,-2.1198,0.0,0.0,0.0,0.0,0.0,0.0,0.0,0.0,0.0,0.0,0.0,-2.3271,0.0,-2.35,0.0,-2.417,-2.419,-2.419,-2.419,-2.419,-2.419,-2.419,-2.419,-2.4061,-2.3713,-2.3988,-2.4061,-2.3713,-2.3507,-2.3537,-2.3844,-2.3317,-2.3075,-2.3638,-2.3682,-2.3657,-2.3657,-2.3033,-2.2409,-2.2079,-2.0996,-2.0147,-2.0031,-2.0276,-2.0668,-2.1161,-2.1606,-2.2039,-2.2268,-2.2229,-2.1885,-2.1094,-2.1657,-2.1786,-2.0637,-2.0967,-2.1431,-2.0822,-2.0061,-1.9367,-4.3479,-4.3479,-4.3479,-4.3094,-4.2396,-4.1607,-4.0744,-3.979,-3.8285,-3.7129,-3.6156,-3.3917,-3.3238,-3.3752,-3.3073,-3.3128,-3.3807,-3.3807,-3.3807,-3.3807,-3.3807,-3.3807,-3.3807,-3.3807,-3.3807,-3.3807,-3.3807,-3.3807,-3.3807,-3.3807,-3.3752,-3.366,-3.3642,-3.2889,-3.1421,-3.0613,-3.0461,-3.0986,-2.9362,-2.8062,-2.7204,-2.6519,-2.5864,-2.5236,-2.3676,-2.2813,-2.2685,-2.2006,-2.1582,-2.149,-2.1582,-2.1235,-2.0409,-2.0429,-2.0904,0.0,-2.1913,0.0,0.0,0.0,0.0,0.0,0.0,0.0,0.0,-2.295,-2.2925,-2.3253,-2.3522,-2.3837,-2.417,-2.419,-2.419,-2.419,-2.419,-2.419,-2.419,-2.419,-2.3933,-2.3217,-2.3731,-2.384,-2.3143,-2.2923,-2.3143,-2.3546,-2.2648,-2.1954,-2.2203,-2.2592,-2.2868,-2.285,-2.1621,-2.0831,-2.0005,-1.9528,-1.936,-1.9396,-1.984,-2.0356,-2.0503,-2.1092,-2.1498,-2.1401,-2.1572,-2.14,-2.0442,-2.1194,-2.1424,-1.993,-2.0272,-2.0602,-2.0027,-1.9418,-1.8894,-4.3479,-4.3479,-4.3479,-4.3406,-4.3204,-4.2415,-4.124,-3.9827,-3.8891,-3.7643,-3.6229,-3.5073,-3.4302,-3.3807,-3.3642,-3.366,-3.3807,-3.3807,-3.3807,-3.3807,-3.3807,-3.3807,-3.3807,-3.3807,-3.3807,-3.3807,-3.3807,-3.3807,-3.3807,-3.3807,-3.3476,-3.2852,-3.2834,-3.2339,0.0,0.0,0.0,0.0,-2.8963,-2.8407,-2.7259,-2.7042,-2.6159,-2.4464,-2.285,0.0,-2.1016,-2.0814,-2.0446,-1.9822,-2.0391,0.0,0.0,0.0,0.0,0.0,0.0,0.0,0.0,0.0,0.0,0.0,-2.2996,-2.2797,-2.2797,-2.2798,-2.3042,-2.3544,-2.3671,-2.3837,-2.4152,-2.419,-2.419,-2.419,-2.419,-2.419,-2.419,-2.419,-2.4135,-2.3988,-2.3885,-2.359,-2.307,-2.2524,-2.2222,-2.2319,-2.1753,-2.1261,-2.0949,-2.1586,-2.1987,-2.1969,-2.1602,-2.1198,-2.0427,-1.9693,-1.9286,-1.9341,-1.9381,-1.9785,-2.0319,-2.0388,-2.0698,-2.1093,-2.0986,-2.0466,-1.9688,-2.0023,-2.0094,-1.8511,-1.8866,-1.9283,-1.9147,-1.8995,-1.8707,-4.3479,0.0,-4.3479,-4.3479,0.0,-4.2653,-4.1846,-4.1001,-3.9808,-3.8395,-3.6835,-3.6009,-3.5422,-3.5018,-3.4596,-3.4412,-3.4376,-3.399,-3.3807,-3.3807,-3.3807,-3.3807,-3.3807,-3.3807,-3.3807,-3.3807,-3.3807,-3.3807,-3.3807,-3.3807,-3.3403,-3.2614,-3.2614,-3.2008,-3.0815,-3.0008,-2.9289,-2.87,-2.8913,-2.8352,-2.6991,-2.69,-2.606,-2.4263,0.0,0.0,0.0,0.0,0.0,0.0,0.0,0.0,0.0,0.0,0.0,-2.1804,-2.2556,-2.3364,-2.4097,-2.3717,-2.3369,-2.3212,-2.2898,-2.2772,-2.2947,-2.3135,-2.3364,-2.3671,-2.371,-2.3837,-2.4151,-2.4054,-2.3998,-2.4152,-2.419,-2.419,-2.419,-2.419,-2.4025,-2.3658,-2.3468,-2.326,-2.3009,-2.193,-2.1675,-2.2154,-2.115,-2.0387,-2.0523,-2.0868,-2.1033,-2.0701,-2.107,-2.0996,-2.0115,-1.9601,-1.9286,-1.9286,-1.9286,-1.947,-1.984,-1.9782,-1.9861,-2.0245,-2.0255,-2.0012,-1.9391,-1.9725,-1.973,-1.8449,-1.8478,-1.8724,-1.8471,-1.8369,-1.8268,-4.3608,-4.3479,-4.3479,-4.3479,-4.3424,-4.2782,-4.2433,-4.2194,0.0,0.0,0.0,-3.6798,-3.6431,-3.6248,-3.5375,-3.499,-3.4935,-3.4174,-3.3807,-3.3807,-3.3807,-3.3807,-3.3807,-3.3807,-3.3807,-3.3807,-3.3807,-3.3807,-3.3807,-3.3807,-3.3403,-3.2669,-3.2485,-3.1604,-3.0063,-2.9347,-2.8975,-2.8994,-2.9163,-2.8503,-2.709,-2.6888,-2.6043,-2.4428,-2.3511,-2.2942,-2.2776,-2.1585,-2.1511,-2.2685,-2.2281,-2.195,-2.1839,-2.2428,-2.2575,-2.2097,-2.2648,-2.3364,-2.4135,-2.3896,-2.3566,-2.3323,-2.3045,-2.2996,-2.3277,-2.3544,-2.3714,-2.3795,-2.3795,-2.3896,-2.417,-2.3976,-2.3896,-2.417,-2.419,-2.419,-2.419,-2.4043,-2.3768,-2.3272,-2.3086,-2.2933,-2.2926,-2.1823,-2.126,-2.2172,-2.0961,-1.962,-2.0152,-2.0264,-2.0097,-1.9656,-2.0097,-2.0262,-1.9565,-1.9323,-1.9286,-1.9286,-1.9286,-1.9286,-1.9286,-1.9286,-1.9286,-1.9384,-1.9646,-1.9543,-1.9165,-1.9415,-1.9521,-1.8418,-1.8466,-1.8521,-1.7974,-1.7789,-1.7805,-4.4121,-4.3479,-4.3479,-4.3479,-4.3479,-4.3369,-4.2928,-4.2176,-4.0598,-3.9001,-3.7526,-3.7397,-3.6927,-3.6266,-3.5404,-3.499,-3.4935,-3.4156,-3.3807,0.0,-3.3807,-3.3807,-3.3807,-3.3807,-3.3807,-3.3807,-3.3807,-3.3807,-3.3807,-3.3807,-3.3403,-3.2614,-3.1916,-3.0779,-2.9287,-2.9049,-2.8975,-2.8994,-2.9696,-2.9604,-2.8682,-2.7989,-2.6872,-2.5274,-2.3786,-2.2666,-2.2005,-2.2391,-2.2446,-2.2006,-2.252,-2.252,-2.1876,-2.1968,-2.2226,-2.2776,-2.2942,-2.3364,-2.4135,-2.3878,-2.3671,-2.3631,-2.3588,-2.3566,-2.361,-2.3671,-2.3816,-2.4094,-2.4112,-2.4133,-2.4208,-2.4151,-2.4113,-2.419,-2.419,-2.419,-2.4153,-2.3621,-2.34,-2.3804,-2.315,-2.2709,-2.2938,-2.247,-2.1958,-2.188,-2.1033,-2.0134,-1.9711,-1.9473,-1.9436,-1.9341,-1.9399,-1.9436,-1.9341,-1.9286,-1.9286,-1.9286,-1.9286,-1.9286,-1.9286,-1.9286,-1.9286,-1.9286,-1.9143,-1.895,-1.8949,-1.8493,-1.84,-1.8185,-1.8177,-1.7986,-1.7828,-1.7789,-1.7789,-4.4488,-4.4103,-4.3681,-4.3479,-4.3479,-4.3479,-4.3039,-4.2268,-4.1534,-4.0304,-3.8799,-3.834,-3.7698,-3.689,-3.6083,-3.5459,-3.4954,-3.4174,-3.3807,-3.3807,-3.3807,-3.3807,-3.3807,-3.3807,-3.3587,-3.322,-3.3605,-3.3568,-3.322,-3.3568,-3.3385,-3.2596,-3.1806,-3.1017,-3.0338,-2.9879,-2.9635,-2.9659,-2.9604,-2.9163,-2.8356,-2.7567,-2.6576,-2.5421,-2.4245,-2.3492,-2.3107,-2.3033,-2.3033,-2.3107,-2.3052,-2.2832,-2.2483,-2.2868,-2.307,-2.3033,-2.3419,-2.3804,-2.4171,-2.3896,-2.3795,-2.3937,-2.3795,-2.3774,-2.3955,-2.3976,-2.3876,-2.3692,-2.3816,-2.3917,-2.3937,-2.3917,-2.3996,-2.4208,-2.4054,-2.3755,-2.3429,-2.3435,-2.3363,-2.329,-2.2624,-2.2511,-2.351,-2.2345,-2.181,-2.2118,-2.1365,-2.0374,-1.9968,-1.9546,-1.9286,-1.9286,-1.9286,-1.9305,-1.9286,-1.9286,-1.9286,-1.9286,-1.9286,-1.9286,-1.9286,-1.9286,-1.9286,-1.9289,-1.9115,-1.9049,-1.9132,-1.8807,-1.8522,-1.8336,-1.819,-1.8014,-1.7856,-1.7789,-1.7789,-4.4764,-4.436,-4.3754,-4.3479,-4.3479,-4.3479,-4.313,-4.258,-4.2396,-4.1589,-4.0396,-3.9405,-3.8524,-3.7698,-3.6743,-3.5936,-3.5238,-3.4266,-3.3807,-3.3807,-3.3807,-3.3807,-3.3807,-3.3807,-3.3476,-3.2999,-3.3513,-3.3495,-3.3018,-3.3513,-3.3403,-3.2614,-3.1971,-3.1568,-3.1366,-3.0779,-3.0393,-3.0191,-2.9751,-2.9072,-2.8081,-2.7126,-2.63,-2.5658,-2.4704,-2.419,-2.4153,-2.3602,-2.3566,-2.4116,-2.3602,-2.3253,-2.329,-2.3859,-2.3914,-2.3419,-2.3841,-2.419,-2.419,-2.3976,-2.3917,-2.417,-2.3976,-2.3896,-2.4074,-2.417,-2.3996,-2.3544,-2.3692,-2.3855,-2.3837,-2.3837,-2.3935,-2.4151,-2.3896,-2.3518,-2.3014,-2.3226,-2.325,-2.2611,-2.2117,-2.2355,-2.3179,-2.2281,-2.1624,-2.2227,-2.1584,-2.0776,-2.0299,-1.9675,-1.9341,-1.9286,-1.9286,-1.9286,-1.9286,-1.9286,-1.9286,-1.9286,-1.9286,-1.9286,-1.9286,-1.9286,-1.9286,-1.9289,-1.9243,-1.9102,-1.9042,-1.8942,-1.8682,-1.8336,-1.8158,-1.8121,-1.7856,-1.7789,-1.7789,-4.4947,-4.3699,-4.3552,-4.3479,-4.3479,-4.3479,-4.3424,-4.3277,-4.2635,-4.2249,-4.1809,-4.0469,-3.9331,-3.845,-3.7,-3.6266,-3.6028,-3.4523,-3.3844,-3.3825,-3.3807,-3.3807,-3.3807,-3.3807,-3.3752,-3.366,-3.3752,-3.3715,-3.355,-3.3733,-3.3403,-3.2687,-3.2522,-3.2155,-3.1494,-3.1329,-3.0944,-3.0228,-3.0834,-3.043,-2.8883,-2.738,-2.6576,-2.6484,-2.5016,-2.419,-2.4245,-2.4135,-2.4116,-2.419,-2.4116,-2.408,-2.408,-2.4171,-2.4153,-2.408,-2.4153,-2.419,-2.419,-2.417,-2.4151,-2.419,-2.417,-2.4034,-2.3816,-2.4054,-2.4208,-2.4094,-2.4132,-2.4113,-2.4151,-2.4151,-2.4151,-2.417,-2.3876,-2.3638,-2.3479,-2.3007,-2.2556,-2.252,-2.2045,-2.2131,-2.2942,-2.285,-2.2575,-2.2281,-2.1877,-2.118,-2.0189,-1.962,-1.9418,-1.9344,-1.9323,-1.9323,-1.9305,-1.9286,-1.9286,-1.9286,-1.9286,-1.9286,-1.9286,-1.925,-1.9268,-1.9036,-1.8982,-1.8679,-1.8422,-1.8387,-1.8377,-1.7931,-1.7916,-1.8125,-1.7878,-1.7833,-1.7833,-4.5681,-4.4232,-4.4213,-4.392,-4.3516,-4.3479,-4.3479,-4.3442,-4.3149,-4.2488,-4.1589,-4.0891,-3.99,-3.8652,-3.7514,-3.6762,-3.6211,-3.5055,-3.4495,-3.4468,-3.4045,-3.3807,-3.3807,-3.3807,-3.3568,-3.3183,-3.3568,-3.355,-3.3256,-3.3568,-3.3623,-3.3348,-3.3311,-3.3128,-3.2797,-3.2357,-3.1715,-3.0944,-3.1219,-3.0613,-2.914,-2.8393,-2.7787,-2.7255,-2.6209,-2.5364,-2.498,-2.4887,-2.4685,-2.4245,-2.419,-2.419,-2.419,-2.419,-2.419,-2.419,-2.419,-2.419,-2.419,-2.419,-2.419,-2.419,-2.419,-2.4113,-2.4016,-2.4132,-2.419,-2.419,-2.419,-2.4151,-2.3976,-2.4074,-2.419,-2.4133,-2.3714,-2.332,-2.3064,-2.2984,-2.2686,-2.2014,-2.1825,-2.211,-2.2868,-2.3419,-2.3529,-2.3125,-2.2501,-2.1582,-2.1345,-2.0684,-2.006,-2.0005,-2.0016,-1.9773,-1.943,-1.9286,-1.9286,-1.9286,-1.9286,-1.9286,-1.925,-1.8812,-1.8592,-1.861,-1.8246,-1.7872,-1.743,-1.7872,-1.81,-1.7719,-1.7831,-1.8166,-1.8057,-1.8057,-1.7992,-4.5847,-4.4488,-4.4378,-4.4048,-4.3497,-4.3479,-4.3479,-4.3479,-4.3479,-4.2727,-4.1479,-4.1222,-4.0341,-3.9019,-3.7955,-3.7177,-3.656,-3.5752,-3.5339,-3.5293,-3.4743,-3.4376,-3.4156,-3.4137,-3.3715,-3.3128,-3.3513,-3.3513,-3.3036,-3.3476,-3.3807,-3.3807,-3.3807,-3.3807,-3.3733,-3.3201,-3.2522,-3.1825,-3.1916,-3.1274,-2.9916,-2.9677,-2.9072,-2.7879,-2.7016,-2.6319,-2.575,-2.5531,-2.5126,-2.4557,-2.4318,-2.419,-2.419,-2.419,-2.419,-2.419,-2.419,-2.419,-2.419,-2.419,-2.419,-2.419,-2.419,-2.419,-2.419,-2.419,-2.419,-2.419,-2.419,-2.4094,-2.3917,-2.4036,-2.419,-2.417,-2.3671,-2.3209,-2.2989,-2.3191,-2.2918,-2.1944,-2.2045,-2.2315,-2.2942,-2.3621,-2.4025,-2.3639,-2.2666,-2.1803,-2.2116,-2.1198,-2.0427,-2.0326,-2.0372,-2.0157,-1.947,-1.9286,-1.9286,-1.9286,-1.9286,-1.9286,-1.9286,-1.8739,-1.8225,-1.8427,-1.7638,-1.705,-1.6817,-1.7211,-1.8176,-1.7984,-1.8065,-1.8232,-1.8166,-1.8146,-1.8014,-4.5002,-4.3681,-4.3552,-4.3552,-4.3479,-4.3479,-4.3479,-4.3479,-4.3479,-4.3002,-4.2139,-4.1479,-4.0653,-3.9717,-3.8285,-3.7526,-3.7331,-3.6597,-3.6229,-3.6211,-3.6119,-3.5716,-3.4972,-3.4917,-3.4523,-3.3697,-3.3733,-3.377,-3.3697,-3.377,-3.3807,-3.3807,-3.3807,-3.3807,-3.3788,-3.3715,-3.333,-3.2614,-3.3146,-3.2834,-3.1421,-3.1219,-3.0099,-2.8099,-2.7071,-2.6686,-2.6484,-2.5805,-2.5384,-2.5348,-2.4575,-2.419,-2.419,-2.419,-2.419,-2.419,-2.419,-2.419,-2.419,-2.419,-2.419,-2.419,-2.419,-2.419,-2.419,-2.419,-2.419,-2.419,-2.419,-2.417,-2.4151,-2.4152,-2.419,-2.417,-2.3896,-2.3638,-2.3642,-2.3584,-2.331,-2.2668,-2.2647,-2.285,-2.3015,-2.3694,-2.3804,-2.329,-2.2391,-2.173,-2.1216,-2.0759,-2.0415,-2.0082,-2.0144,-2.0244,-1.9507,-1.9286,-1.9286,-1.9286,-1.9286,-1.9286,-1.9286,-1.9176,-1.872,-1.8317,-1.7894,-1.7289,-1.6518,-1.6844,-1.8052,-1.8373,-1.832,-1.8373,-1.831,-1.8014,-1.79,-4.5736,-4.4232,-4.3699,-4.3479,-4.3479,-4.3479,-4.3479,-4.3479,-4.3479,-4.3039,-4.2341,-4.1992,-4.1148,-3.9863,-3.9294,-3.8744,-3.823,-3.7422,-3.7055,-3.7,-3.6541,-3.5844,-3.5064,-3.499,-3.4596,-3.3899,-3.3807,-3.3807,-3.3807,-3.3807,-3.3807,-3.3807,-3.3807,-3.3807,-3.3807,-3.3807,-3.3403,-3.2797,-3.3385,-3.3018,-3.1586,-3.1403,-3.0705,-2.9402,-2.8558,-2.7897,-2.7365,-2.6594,-2.5933,-2.5421,-2.465,-2.419,-2.419,-2.419,-2.419,-2.419,-2.419,-2.419,-2.419,-2.419,-2.419,-2.419,-2.419,-2.419,-2.419,-2.419,-2.419,-2.419,-2.419,-2.419,-2.419,-2.419,-2.419,-2.417,-2.3917,-2.3795,-2.3917,-2.3819,-2.3467,-2.2972,-2.2941,-2.2997,-2.3199,-2.3694,-2.4061,-2.3768,-2.307,-2.2446,-2.2115,-2.1742,-2.1133,-2.0615,-2.0689,-2.066,-1.9629,-1.9365,-1.9286,-1.9286,-1.9286,-1.9286,-1.9286,-1.8867,-1.8408,-1.8188,-1.7913,-1.7495,-1.6707,-1.7045,-1.8188,-1.8859,-1.8789,-1.8508,-1.8489,-1.8187,-1.8014,-4.5314,-4.4305,-4.3718,-4.3479,-4.3479,-4.3479,-4.3479,-4.3479,-4.3479,-4.2892,-4.2103,-4.2176,-4.1405,-4.0065,-3.9882,-3.9625,-3.9038,-3.8248,-3.7881,-3.7826,-3.7312,-3.6486,-3.5569,-3.544,-3.4853,-3.3954,-3.3807,-3.3807,-3.3807,-3.3807,-3.3807,-3.3807,-3.3807,-3.3807,-3.3807,-3.3807,-3.3513,-3.3183,-3.3532,-3.322,-3.2228,-3.1641,-3.1164,-3.0522,-2.9544,-2.8778,-2.8191,-2.7402,-2.6612,-2.5805,-2.5035,-2.4465,-2.4245,-2.419,-2.419,-2.419,-2.419,-2.419,-2.419,-2.419,-2.419,-2.419,-2.419,-2.419,-2.419,-2.419,-2.419,-2.419,-2.419,-2.419,-2.419,-2.419,-2.419,-2.417,-2.3996,-2.3955,-2.4151,-2.3996,-2.3759,-2.3491,-2.3437,-2.3419,-2.3456,-2.3859,-2.4135,-2.419,-2.3511,-2.2978,-2.2611,-2.2256,-2.1547,-2.0718,-2.0722,-2.0513,-1.9862,-1.9499,-1.9372,-1.9341,-1.9286,-1.9286,-1.9213,-1.8702,-1.8353,-1.8096,-1.777,-1.7403,-1.7343,-1.7584,-1.8216,-1.9075,-1.8964,-1.8604,-1.8508,-1.8391,-1.8125,-4.3571,-4.3552,-4.3479,-4.3479,-4.3479,-4.3479,-4.3479,-4.3479,-4.3479,-4.2727,-4.1754,-4.2066,-4.1589,-4.0249,-4.0084,-3.9937,-3.9772,-3.9074,-3.8652,-3.856,-3.8542,-3.7698,-3.634,-3.6285,-3.544,-3.3954,-3.3825,-3.3807,-3.3807,-3.3807,-3.3807,-3.3807,-3.3807,-3.3807,-3.3807,-3.3807,-3.3788,-3.3733,-3.377,-3.3733,-3.3605,-3.2247,-3.1476,-3.1237,-2.9934,-2.9067,-2.8998,-2.8191,-2.7328,-2.6539,-2.575,-2.5017,-2.4318,-2.419,-2.419,-2.419,-2.419,-2.419,-2.419,-2.419,-2.419,-2.419,-2.419,-2.419,-2.419,-2.419,-2.419,-2.419,-2.419,-2.419,-2.419,-2.419,-2.419,-2.419,-2.4133,-2.417,-2.4208,-2.4208,-2.419,-2.4116,-2.408,-2.4171,-2.4171,-2.4153,-2.419,-2.4061,-2.3621,-2.2832,-2.2225,-2.2019,-2.1334,-2.0367,-2.0455,-2.0676,-2.014,-1.9614,-1.9479,-1.9378,-1.9323,-1.9286,-1.9286,-1.8977,-1.8775,-1.8537,-1.8427,-1.8064,-1.799,-1.8243,-1.8496,-1.906,-1.8822,-1.8697,-1.8547,-1.8391,-1.8078,-4.3479,-4.3479,-4.3479,-4.3479,-4.3479,-4.3479,-4.3479,-4.3479,-4.3479,-4.3204,-4.2855,-4.3002,-4.2543,-4.1589,-4.102,-4.0744,-4.0671,-3.99,-3.9239,-3.8799,-3.8726,-3.8157,-3.7276,-3.7092,-3.6229,-3.478,-3.4045,-3.3807,-3.3825,-3.3844,-3.3807,-3.3807,-3.3825,-3.3807,-3.3844,-3.3807,-3.3807,-3.3807,-3.3807,-3.3807,-3.3733,-3.2779,-3.2228,-3.2063,-3.0668,-2.9843,-2.9769,-2.8521,-2.7457,-2.6649,-2.5823,-2.5035,-2.4373,-2.419,-2.419,-2.419,-2.419,-2.419,-2.419,-2.419,-2.419,-2.419,-2.419,-2.419,-2.419,-2.419,-2.419,-2.419,-2.419,-2.419,-2.419,-2.419,-2.419,-2.419,-2.419,-2.419,-2.419,-2.419,-2.419,-2.419,-2.419,-2.419,-2.419,-2.419,-2.419,-2.419,-2.3914,-2.329,-2.2225,-2.2256,-2.1879,-2.0327,-2.077,-2.1006,-2.0626,-2.0583,-2.0782,-2.0215,-1.9779,-1.9396,-1.9341,-1.9268,-1.9069,-1.8959,-1.8867,-1.8794,-1.8739,-1.8812,-1.8996,-1.9044,-1.898,-1.8825,-1.8623,-1.833,-1.7992,-4.3479,-4.3479,-4.3479,-4.3479,-4.3479,-4.3479,-4.3479,-4.3479,-4.3479,-4.3332,-4.313,-4.3369,-4.3057,-4.2323,-4.1772,-4.157,-4.1479,-4.0708,-3.9918,-3.9239,-3.9148,-3.856,-3.7569,-3.7147,-3.6597,-3.5624,-3.4981,-3.4559,-3.4266,-3.4559,-3.4431,-3.3935,-3.41,-3.4266,-3.4211,-3.3954,-3.3899,-3.4156,-3.3954,-3.3807,-3.366,-3.3036,-3.2614,-3.2349,-3.1035,-3.0283,-3.0118,-2.8925,-2.7732,-2.6631,-2.5548,-2.4704,-2.4226,-2.419,-2.419,-2.419,-2.419,-2.419,-2.419,-2.419,-2.419,-2.419,-2.419,-2.419,-2.419,-2.419,-2.419,-2.419,-2.419,-2.419,-2.419,-2.419,-2.419,-2.419,-2.419,-2.419,-2.419,-2.419,-2.419,-2.419,-2.419,-2.419,-2.419,-2.419,-2.419,-2.4171,-2.3914,-2.3364,-2.2316,-2.2293,-2.1336,-2.0615,-2.07,-2.0909,-2.113,-2.1498,-2.2054,-2.1293,-2.0399,-1.9816,-1.9418,-1.9341,-1.9179,-1.9161,-1.9087,-1.9069,-1.9032,-1.9087,-1.9216,-1.918,-1.9101,-1.8807,-1.8528,-1.8208,-1.7944,-4.3479,-4.3479,-4.3479,-4.3479,-4.3479,-4.3479,-4.3479,-4.3479,-4.3479,-4.313,-4.2745,-4.3222,-4.3094,-4.2506,-4.2268,-4.2231,-4.2213,-4.1534,-4.0744,-4.0194,-3.9974,-3.9331,-3.779,-3.7,-3.6541,-3.6376,-3.6193,-3.5771,-3.5137,-3.5697,-3.5514,-3.4321,-3.4816,-3.5064,-3.4963,-3.4302,-3.4339,-3.4908,-3.4339,-3.3972,-3.3917,-3.3275,-3.2797,-3.2724,-3.1347,-3.0485,-3.0265,-2.9292,-2.8099,-2.6667,-2.5144,-2.4281,-2.4208,-2.419,-2.419,-2.419,-2.419,-2.419,-2.419,-2.419,-2.419,-2.419,-2.419,-2.419,-2.419,-2.419,-2.419,-2.419,-2.419,-2.419,-2.419,-2.419,-2.419,-2.419,-2.419,-2.419,-2.419,-2.419,-2.419,-2.419,-2.419,-2.419,-2.419,-2.419,-2.419,-2.4061,-2.3566,-2.2776,-2.2207,-2.1854,-2.1184,-2.097,-2.1031,-2.1618,-2.2098,-2.2495,-2.2915,-2.2298,-2.135,-2.0627,-1.973,-1.9455,-1.9305,-1.9286,-1.9286,-1.9286,-1.9286,-1.9286,-1.9286,-1.9259,-1.9048,-1.8717,-1.845,-1.8166,-1.7944,-4.3479,-4.3479,-4.3479,-4.3479,-4.3479,-4.3479,-4.3479,-4.3479,-4.3479,-4.3351,-4.324,-4.3387,-4.3351,-4.3112,-4.2561,-4.2598,-4.2837,-4.2341,-4.1552,-4.1001,-4.1442,-4.0359,-3.8597,-3.7569,-3.7165,-3.711,-3.6688,-3.6174,-3.5991,-3.6285,-3.6083,-3.5679,-3.5789,-3.5954,-3.5844,-3.5128,-3.5183,-3.5734,-3.5128,-3.466,-3.4633,-3.4468,-3.4064,-3.3421,-3.2449,-3.1641,-3.0944,-2.9145,-2.7677,-2.6631,-2.5071,-2.4208,-2.4208,-2.419,-2.419,-2.419,-2.419,-2.419,-2.419,-2.419,-2.419,-2.419,-2.419,-2.419,-2.419,-2.419,-2.419,-2.419,-2.419,-2.419,-2.419,-2.419,-2.419,-2.419,-2.419,-2.419,-2.419,-2.419,-2.419,-2.419,-2.419,-2.419,-2.419,-2.419,-2.4171,-2.4006,-2.3419,-2.2703,-2.2115,-2.2115,-2.178,-2.1715,-2.1888,-2.2598,-2.3188,-2.3577,-2.3619,-2.313,-2.2416,-2.1712,-2.0629,-1.9675,-1.9455,-1.9286,-1.9286,-1.9286,-1.9286,-1.9286,-1.9286,-1.9286,-1.8998,-1.8679,-1.8452,-1.8229,-1.7971,-4.3479,-4.3479,-4.3479,-4.3479,-4.3479,-4.3479,-4.3479,-4.3479,-4.3479,-4.3479,-4.3479,-4.3479,-4.3479,-4.3424,-4.302,-4.3057,-4.3387,-4.302,-4.2176,-4.113,-4.0799,-4.0084,-3.9111,-3.8395,-3.7991,-3.7955,-3.7533,-3.7147,-3.6927,-3.7129,-3.6964,-3.6431,-3.6652,-3.6798,-3.6725,-3.6028,-3.5954,-3.6486,-3.5973,-3.5394,-3.5027,-3.499,-3.4559,-3.3807,-3.3018,-3.2137,-3.0834,-2.92,-2.7677,-2.63,-2.5181,-2.4557,-2.4226,-2.419,-2.419,-2.419,-2.419,-2.419,-2.419,-2.419,-2.419,-2.419,-2.419,-2.419,-2.419,-2.419,-2.419,-2.419,-2.419,-2.419,-2.419,-2.419,-2.419,-2.419,-2.419,-2.419,-2.419,-2.419,-2.419,-2.419,-2.419,-2.419,-2.419,-2.419,-2.4025,-2.3639,-2.2905,-2.2354,-2.195,-2.2281,-2.2464,-2.2238,-2.253,-2.3228,-2.3483,-2.3749,-2.4045,-2.3634,-2.2805,-2.2226,-2.1308,-2.0079,-1.962,-1.9433,-1.936,-1.9323,-1.9381,-1.9381,-1.9286,-1.9193,-1.8895,-1.8753,-1.8623,-1.8333,-1.8082,-4.3479,-4.3479,-4.3479,-4.3479,-4.3479,-4.3479,-4.3479,-4.3479,-4.3479,-4.3479,-4.3479,-4.3479,-4.3479,-4.3479,-4.3369,-4.3461,-4.3479,-4.3406,-4.2671,-4.1442,-4.0396,-3.9625,-4.0194,-3.9056,-3.8726,-3.8726,-3.8762,-3.823,-3.7863,-3.8303,-3.79,-3.7184,-3.7386,-3.7588,-3.7459,-3.6817,-3.689,-3.7331,-3.6817,-3.6156,-3.5624,-3.5385,-3.4908,-3.41,-3.3073,-3.1971,-3.0705,-2.9475,-2.8136,-2.5807,-2.5531,-2.4942,-2.4337,-2.419,-2.419,-2.419,-2.419,-2.419,-2.419,-2.419,-2.419,-2.419,-2.419,-2.419,-2.419,-2.419,-2.419,-2.419,-2.419,-2.419,-2.419,-2.419,-2.419,-2.419,-2.419,-2.419,-2.419,-2.419,-2.419,-2.419,-2.419,-2.419,-2.419,-2.4135,-2.3933,-2.34,-2.2721,-2.2373,-2.2116,-2.2281,-2.2373,-2.228,-2.2886,-2.3787,-2.3824,-2.3824,-2.4082,-2.4044,-2.2995,-2.2244,-2.1602,-2.0647,-1.9987,-1.9654,-1.9672,-1.9656,-1.9656,-1.9565,-1.9378,-1.9227,-1.9033,-1.9001,-1.8949,-1.8547,-1.8249,-4.3479,-4.3479,-4.3479,-4.3479,-4.3479,-4.3479,-4.3479,-4.3479,-4.3479,-4.3479,-4.3479,-4.3479,-4.3479,-4.3479,-4.3479,-4.3479,-4.3461,-4.3424,-4.324,-4.2892,-4.1332,-4.1111,-4.1167,-3.9845,-3.9148,-3.9313,-3.8964,-3.8615,-3.8542,-3.856,-3.856,-3.8248,-3.8138,-3.8432,-3.8267,-3.7661,-3.7624,-3.8157,-3.7624,-3.7129,-3.6762,-3.6229,-3.5587,-3.466,-3.3385,-3.2192,-3.1237,-3.0375,-2.909,-2.7475,-2.6156,-2.5257,-2.4522,-2.4282,-2.4283,-2.4228,-2.4209,-2.4209,-2.419,-2.419,-2.419,-2.419,-2.419,-2.419,-2.419,-2.419,-2.419,-2.419,-2.419,-2.419,-2.419,-2.419,-2.419,-2.419,-2.419,-2.419,-2.419,-2.419,-2.419,-2.419,-2.419,-2.419,-2.419,-2.419,-2.3823,-2.3143,-2.2758,-2.2446,-2.2391,-2.2409,-2.2573,-2.2701,-2.3326,-2.4137,-2.4223,-2.4168,-2.4262,-2.4338,-2.3436,-2.2795,-2.2134,-2.1363,-2.0774,-2.0333,-2.0039,-1.9984,-1.9865,-1.9577,-1.935,-1.9261,-1.9166,-1.9119,-1.8984,-1.866,-1.845,-4.3479,-4.3479,-4.3479,-4.3479,-4.3479,-4.3479,-4.3479,-4.3479,-4.3479,-4.3479,-4.3479,-4.3479,-4.3479,-4.3479,-4.3479,-4.3479,-4.3259,-4.269,-4.28,-4.2782,-4.1607,-4.1405,-4.2304,-4.0946,-3.9937,-3.9955,-3.9937,-3.9496,-3.8982,-3.9038,-3.9074,-3.8726,-3.8726,-3.8652,-3.8707,-3.8267,-3.8267,-3.8524,-3.8303,-3.79,-3.747,-3.7092,-3.6174,-3.5082,-3.3788,-3.2651,-3.1439,-3.1017,-2.977,-2.8255,-2.7113,-2.6096,-2.5116,-2.4894,-2.4728,-2.4395,-2.4339,-2.4303,-2.4247,-2.419,-2.419,-2.419,-2.419,-2.419,-2.419,-2.419,-2.419,-2.419,-2.419,-2.419,-2.419,-2.419,-2.419,-2.419,-2.419,-2.419,-2.419,-2.419,-2.419,-2.419,-2.419,-2.419,-2.419,-2.419,-2.3786,-2.3144,-2.3052,-2.2758,-2.274,-2.2831,-2.327,-2.3545,-2.4022,-2.4442,-2.4572,-2.457,-2.4503,-2.4437,-2.4038,-2.3675,-2.3327,-2.25,-2.1654,-2.1138,-2.0562,-2.0089,-1.9896,-1.9627,-1.9383,-1.9289,-1.9212,-1.9166,-1.9067,-1.8878,-1.8679,-4.3479,-4.3479,-4.3479,-4.3479,-4.3479,-4.3479,-4.3479,-4.3479,-4.3479,-4.3479,-4.3479,-4.3479,-4.3479,-4.3461,-4.3296,-4.3259,-4.2782,-4.2249,-4.2286,-4.2782,-4.1497,-4.1809,-4.2635,-4.1919,-4.0928,-4.0377,-4.0653,-4.023,-3.9662,-3.9662,-3.9827,-3.9221,-3.8927,-3.9019,-3.8946,-3.8726,-3.8634,-3.867,-3.8615,-3.8358,-3.779,-3.7496,-3.6578,-3.5165,-3.4156,-3.3073,-3.2008,-3.1483,-3.0664,-2.8685,-2.8501,-2.7625,-2.6559,-2.5741,-2.5463,-2.4717,-2.4608,-2.4375,-2.4247,-2.419,-2.419,-2.419,-2.419,-2.419,-2.419,-2.419,-2.419,-2.419,-2.419,-2.419,-2.419,-2.419,-2.419,-2.419,-2.419,-2.419,-2.419,-2.419,-2.419,-2.419,-2.419,-2.419,-2.419,-2.4171,-2.3657,-2.3272,-2.3199,-2.3125,-2.3107,-2.3308,-2.3764,-2.4072,-2.4437,-2.4634,-2.476,-2.4809,-2.4766,-2.4576,-2.4361,-2.4185,-2.4044,-2.3269,-2.2323,-2.1604,-2.1025,-2.0496,-1.9996,-1.9674,-1.9468,-1.9353,-1.9274,-1.9227,-1.9182,-1.9117,-1.8878,-4.3479,-4.3479,-4.3479,-4.3479,-4.3479,-4.3479,-4.3479,-4.3479,-4.3479,-4.3479,-4.3479,-4.3479,-4.3479,-4.3351,-4.2745,-4.2194,-4.1846,-4.1791,-4.2194,-4.258,-4.1882,-4.2525,-4.3002,-4.2598,-4.2011,-4.1772,-4.157,-4.1038,-4.0689,-4.0836,-4.0726,-4.0543,-3.9937,-3.9625,-3.9405,-3.9093,-3.8707,-3.8707,-3.8707,-3.856,-3.8322,-3.7624,-3.6725,-3.5155,-3.4302,-3.333,-3.2632,-3.2302,-3.1691,-3.0395,-3.0211,-2.9457,-2.8215,-2.6877,-2.5941,-2.5417,-2.4827,-2.4428,-2.4228,-2.419,-2.419,-2.419,-2.419,-2.419,-2.419,-2.419,-2.419,-2.419,-2.419,-2.419,-2.419,-2.419,-2.419,-2.419,-2.419,-2.419,-2.419,-2.419,-2.419,-2.419,-2.419,-2.419,-2.419,-2.4153,-2.3841,-2.3621,-2.3621,-2.3547,-2.3486,-2.3814,-2.4304,-2.4519,-2.4695,-2.4832,-2.4945,-2.4942,-2.4924,-2.4721,-2.449,-2.4248,-2.4025,-2.364,-2.2954,-2.2229,-2.1401,-2.0674,-2.0211,-1.9744,-1.9487,-1.932,-1.9305,-1.9286,-1.9227,-1.915,-1.8913,-4.3479,-4.3479,-4.3479,-4.3479,-4.3479,-4.3479,-4.3479,-4.3479,-4.3479,-4.3479,-4.3479,-4.3479,-4.3479,-4.3277,-4.2653,-4.1864,-4.1497,-4.1937,-4.2268,-4.2304,-4.2341,-4.2727,-4.3387,-4.302,-4.2965,-4.2818,-4.2506,-4.1791,-4.1222,-4.1552,-4.1497,-4.0946,-4.0286,-3.9882,-3.9698,-3.9111,-3.8781,-3.8707,-3.8707,-3.8707,-3.856,-3.7588,-3.6376,-3.5661,-3.4431,-3.344,-3.2805,-3.2761,-3.2358,-3.1556,-3.1111,-3.0646,-2.9639,-2.8099,-2.6521,-2.5866,-2.5026,-2.441,-2.4228,-2.419,-2.419,-2.419,-2.419,-2.419,-2.419,-2.419,-2.419,-2.419,-2.419,-2.419,-2.419,-2.419,-2.419,-2.419,-2.419,-2.419,-2.419,-2.419,-2.419,-2.419,-2.419,-2.419,-2.419,-2.4116,-2.3988,-2.3969,-2.4006,-2.397,-2.3861,-2.4185,-2.4623,-2.4832,-2.4926,-2.5031,-2.5076,-2.5106,-2.508,-2.4889,-2.4729,-2.4482,-2.4264,-2.398,-2.3501,-2.2866,-2.2,-2.0994,-2.022,-1.9692,-1.9485,-1.932,-1.9305,-1.9289,-1.9243,-1.915,-1.8896,-4.3479,-4.3479,-4.3479,-4.3479,-4.3479,-4.3479,-4.3479,-4.3479,-4.3479,-4.3479,-4.3479,-4.3479,-4.3479,-4.3314,-4.28,-4.2066,-4.1277,-4.1937,-4.2268,-4.2304,-4.2323,-4.2727,-4.3277,-4.3332,-4.3204,-4.3314,-4.3002,-4.269,-4.2103,-4.2268,-4.2121,-4.1735,-4.0836,-4.023,-4.0084,-3.9478,-3.9038,-3.8707,-3.8707,-3.8707,-3.8322,-3.7202,-3.6285,-3.6138,-3.4688,-3.3521,-3.3135,-3.3215,-3.3069,-3.2506,-3.1944,-3.1463,-3.0929,-2.8912,-2.7163,-2.6192,-2.5117,-2.4503,-2.4247,-2.419,-2.419,-2.419,-2.419,-2.419,-2.419,-2.419,-2.419,-2.419,-2.419,-2.419,-2.419,-2.419,-2.419,-2.419,-2.419,-2.419,-2.419,-2.419,-2.419,-2.419,-2.419,-2.419,-2.419,-2.419,-2.408,-2.4061,-2.4117,-2.4336,-2.4246,-2.4382,-2.4712,-2.5,-2.5149,-2.5212,-2.5241,-2.522,-2.5194,-2.5086,-2.4996,-2.4847,-2.4672,-2.4479,-2.3923,-2.3269,-2.2351,-2.1364,-2.0504,-1.9712,-1.9452,-1.932,-1.9286,-1.9289,-1.9259,-1.9066,-1.8771,-4.3479,-4.3479,-4.3479,-4.3479,-4.3479,-4.3479,-4.3479,-4.3479,-4.3479,-4.3479,-4.3479,-4.3479,-4.3479,-4.3369,-4.3369,-4.2451,-4.1735,-4.2011,-4.2378,-4.2323,-4.2396,-4.28,-4.3277,-4.2708,-4.3075,-4.3332,-4.2873,-4.2855,-4.2873,-4.313,-4.324,-4.2855,-4.2139,-4.1662,-4.091,-4.001,-3.9423,-3.8854,-3.8726,-3.8707,-3.8432,-3.7129,-3.6413,-3.5881,-3.4807,-3.3821,-3.3784,-3.386,-3.3773,-3.3444,-3.273,-3.2035,-3.1047,-2.8795,-2.7452,-2.6461,-2.5482,-2.4392,-2.4247,-2.4228,-2.4209,-2.4209,-2.419,-2.419,-2.419,-2.419,-2.419,-2.419,-2.419,-2.419,-2.419,-2.419,-2.419,-2.419,-2.419,-2.419,-2.419,-2.419,-2.419,-2.419,-2.419,-2.419,-2.419,-2.419,-2.419,-2.419,-2.4247,-2.4445,-2.4607,-2.4666,-2.4828,-2.5096,-2.5214,-2.5274,-2.5313,-2.5313,-2.5274,-2.5214,-2.5182,-2.5096,-2.4869,-2.4613,-2.4201,-2.3494,-2.2597,-2.176,-2.0881,-2.0178,-1.9574,-1.932,-1.9286,-1.9286,-1.9271,-1.9014,-1.8752,-4.3479,-4.3479,-4.3479,-4.3479,-4.3479,-4.3479,-4.3479,-4.3479,-4.3479,-4.3479,-4.3479,-4.3479,-4.3277,-4.3039,-4.324,-4.2598,-4.1662,-4.2378,-4.2671,-4.2525,-4.2727,-4.313,-4.3351,-4.3167,-4.3259,-4.3204,-4.3204,-4.3204,-4.3442,-4.3461,-4.3479,-4.3369,-4.2745,-4.2121,-4.157,-4.0487,-3.9827,-3.9331,-3.8982,-3.8726,-3.8285,-3.7239,-3.6285,-3.6211,-3.4633,-3.4042,-3.4018,-3.4357,-3.4118,-3.3673,-3.2972,-3.2273,-3.0977,-2.9026,-2.7316,-2.6821,-2.5504,-2.4584,-2.4266,-2.4321,-2.4303,-2.4228,-2.4209,-2.419,-2.419,-2.419,-2.419,-2.419,-2.419,-2.419,-2.419,-2.419,-2.419,-2.419,-2.419,-2.419,-2.419,-2.419,-2.419,-2.419,-2.419,-2.419,-2.419,-2.419,-2.4209,-2.4247,-2.4266,-2.4393,-2.4588,-2.478,-2.4968,-2.5233,-2.5274,-2.5303,-2.5313,-2.5313,-2.5274,-2.5253,-2.5253,-2.5118,-2.4915,-2.4614,-2.4267,-2.3847,-2.3141,-2.2261,-2.1325,-2.037,-1.9543,-1.936,-1.9286,-1.9344,-1.9384,-1.9155,-1.8842,-4.3479,-4.3479,-4.3479,-4.3479,-4.3479,-4.3479,-4.3479,-4.3479,-4.3479,-4.3479,-4.3479,-4.3479,-4.3149,-4.2818,-4.3149,-4.2873,-4.1901,-4.2965,-4.3039,-4.2983,-4.3112,-4.3406,-4.3461,-4.3442,-4.3314,-4.3222,-4.3351,-4.3259,-4.3204,-4.3369,-4.3479,-4.3461,-4.302,-4.2506,-4.1956,-4.1001,-4.0065,-3.935,-3.8946,-3.8615,-3.8138,-3.7,-3.6303,-3.5605,-3.4688,-3.385,-3.4043,-3.4095,-3.3881,-3.3743,-3.2843,-3.1974,-3.0725,-2.8855,-2.7256,-2.6514,-2.533,-2.4631,-2.4393,-2.4321,-2.4375,-2.4303,-2.4209,-2.419,-2.419,-2.419,-2.419,-2.419,-2.419,-2.419,-2.419,-2.419,-2.419,-2.419,-2.419,-2.419,-2.419,-2.419,-2.419,-2.419,-2.419,-2.419,-2.419,-2.419,-2.4228,-2.4284,-2.4339,-2.4374,-2.4604,-2.4831,-2.503,-2.5253,-2.5303,-2.5284,-2.5284,-2.5284,-2.5274,-2.5264,-2.5264,-2.5096,-2.4828,-2.4716,-2.4529,-2.4072,-2.3529,-2.2905,-2.2061,-2.0739,-1.9528,-1.9381,-1.9323,-1.9491,-1.9483,-1.9285,-1.8914,-4.3479,-4.3479,-4.3479,-4.3479,-4.3479,-4.3479,-4.3479,-4.3479,-4.3442,-4.3424,-4.3369,-4.3442,-4.3351,-4.3387,-4.3369,-4.3369,-4.324,-4.3424,-4.3369,-4.3369,-4.3479,-4.3479,-4.3479,-4.3387,-4.3185,-4.2782,-4.3149,-4.3075,-4.2727,-4.3149,-4.3351,-4.3442,-4.3222,-4.2873,-4.2194,-4.1185,-3.9992,-3.9239,-3.8744,-3.8322,-3.7698,-3.6762,-3.5991,-3.5147,-3.4412,-3.4037,-3.4532,-3.4033,-3.3657,-3.3761,-3.2493,-3.1296,-3.0056,-2.8387,-2.7005,-2.6045,-2.5286,-2.4666,-2.441,-2.4393,-2.4479,-2.4428,-2.4321,-2.419,-2.419,-2.419,-2.419,-2.419,-2.419,-2.419,-2.419,-2.419,-2.419,-2.419,-2.419,-2.419,-2.419,-2.419,-2.419,-2.419,-2.419,-2.419,-2.419,-2.419,-2.4303,-2.4357,-2.4478,-2.4543,-2.4693,-2.493,-2.5041,-2.5203,-2.5253,-2.5274,-2.5274,-2.5264,-2.5224,-2.5203,-2.5203,-2.4956,-2.467,-2.4607,-2.4673,-2.4243,-2.3694,-2.3254,-2.2776,-2.1639,-2.0592,-1.9675,-1.9436,-1.9932,-1.9853,-1.9594,-1.9056,-4.3479,-4.3479,-4.3479,-4.3479,-4.3479,-4.3479,-4.3479,-4.3406,-4.2983,-4.2763,-4.2782,-4.2763,-4.3039,-4.3351,-4.3479,-4.3479,-4.3479,-4.3479,-4.3479,-4.3479,-4.3479,-4.3479,-4.3479,-4.3442,-4.3332,-4.3075,-4.3314,-4.3406,-4.3167,-4.2873,-4.2708,-4.2837,-4.3112,-4.2928,-4.2213,-4.1056,-3.9827,-3.9074,-3.8634,-3.8303,-3.7514,-3.6707,-3.5881,-3.5009,-3.4437,-3.4179,-3.427,-3.3923,-3.3551,-3.289,-3.1693,-3.0542,-2.9363,-2.779,-2.6626,-2.5733,-2.5076,-2.4682,-2.4426,-2.4426,-2.4444,-2.4321,-2.4247,-2.4209,-2.4209,-2.4209,-2.419,-2.419,-2.4209,-2.4228,-2.419,-2.419,-2.419,-2.419,-2.419,-2.419,-2.419,-2.419,-2.419,-2.419,-2.419,-2.419,-2.419,-2.419,-2.4321,-2.4444,-2.4591,-2.4712,-2.485,-2.4917,-2.5005,-2.5088,-2.5152,-2.5264,-2.5264,-2.5224,-2.5182,-2.5152,-2.5141,-2.4917,-2.4697,-2.4716,-2.4666,-2.4262,-2.3933,-2.3584,-2.3125,-2.2502,-2.1694,-2.0772,-2.0551,-2.0758,-2.0477,-1.9902,-1.9234,-4.3479,-4.3479,-4.3479,-4.3479,-4.3479,-4.3479,-4.3479,-4.3387,-4.2947,-4.2488,-4.2341,-4.2525,-4.2782,-4.3149,-4.3424,-4.3479,-4.3479,-4.3479,-4.3479,-4.3479,-4.3479,-4.3479,-4.3406,-4.3222,-4.2983,-4.3094,-4.2837,-4.2653,-4.2488,-4.2158,-4.1992,-4.2103,-4.2415,-4.2231,-4.1772,-4.0634,-3.9478,-3.8891,-3.8634,-3.8102,-3.7221,-3.6675,-3.5754,-3.4884,-3.4152,-3.4011,-3.3766,-3.3314,-3.2702,-3.2077,-3.1111,-2.985,-2.8619,-2.7414,-2.6337,-2.5571,-2.5014,-2.4642,-2.4478,-2.4461,-2.441,-2.4247,-2.4209,-2.4228,-2.4266,-2.4284,-2.4321,-2.4321,-2.4303,-2.4266,-2.4228,-2.419,-2.419,-2.419,-2.419,-2.419,-2.419,-2.419,-2.419,-2.419,-2.419,-2.4209,-2.4247,-2.4266,-2.4444,-2.4572,-2.4752,-2.4836,-2.4877,-2.4917,-2.4904,-2.4962,-2.5034,-2.5152,-2.5264,-2.5192,-2.5118,-2.5088,-2.5065,-2.5012,-2.4855,-2.4847,-2.4731,-2.4405,-2.4118,-2.3897,-2.3602,-2.3235,-2.2592,-2.1852,-2.167,-2.1415,-2.0654,-2.0027,-1.9381,-4.3479,-4.3479,-4.3479,-4.3479,-4.3479,-4.3479,-4.3461,-4.3314,-4.3112,-4.2671,-4.2158,-4.2782,-4.2873,-4.269,-4.3167,-4.3461,-4.3479,-4.3479,-4.3479,-4.3479,-4.3479,-4.3479,-4.3277,-4.2983,-4.2818,-4.2231,-4.2047,-4.1846,-4.1607,-4.1258,-4.1185,-4.113,-4.1258,-4.1167,-4.1038,-4.0304,-3.9478,-3.8836,-3.8707,-3.7734,-3.6801,-3.6472,-3.5621,-3.458,-3.3904,-3.3733,-3.3616,-3.254,-3.1986,-3.1712,-3.0777,-2.9502,-2.8092,-2.7574,-2.6502,-2.5068,-2.4735,-2.4461,-2.4284,-2.4428,-2.4375,-2.4228,-2.419,-2.4284,-2.4428,-2.4478,-2.4462,-2.4428,-2.4444,-2.4357,-2.4284,-2.419,-2.419,-2.419,-2.419,-2.419,-2.419,-2.419,-2.419,-2.419,-2.419,-2.4209,-2.4266,-2.4375,-2.4543,-2.4727,-2.4885,-2.4949,-2.4924,-2.4904,-2.485,-2.4891,-2.4962,-2.5046,-2.5152,-2.5099,-2.5065,-2.5034,-2.5022,-2.5024,-2.4936,-2.4828,-2.47,-2.4495,-2.4284,-2.4025,-2.408,-2.4098,-2.3382,-2.2683,-2.2147,-2.1708,-2.0909,-2.017,-1.9507,-4.3479,-4.3479,-4.3479,-4.3479,-4.3479,-4.3479,-4.3222,-4.2561,-4.1644,-4.0983,-4.0928,-4.1552,-4.2176,-4.2433,-4.302,-4.3442,-4.3479,-4.3479,-4.3479,-4.3479,-4.3387,-4.3479,-4.3296,-4.3057,-4.2965,-4.2855,-4.2359,-4.1992,-4.28,-4.1203,-4.0763,-4.0836,-4.0175,-3.9863,-3.9955,-3.9551,-3.8891,-3.8634,-3.8175,-3.7379,-3.6415,-3.6025,-3.5429,-3.426,-3.3806,-3.3614,-3.3579,-3.2168,-3.1533,-3.1398,-3.0487,-2.9144,-2.7915,-2.7383,-2.623,-2.5111,-2.4719,-2.4685,-2.4578,-2.4594,-2.441,-2.4284,-2.4209,-2.4284,-2.4461,-2.4495,-2.4512,-2.4512,-2.4528,-2.4428,-2.4266,-2.4209,-2.419,-2.419,-2.419,-2.419,-2.419,-2.419,-2.419,-2.419,-2.419,-2.4209,-2.4266,-2.441,-2.4575,-2.467,-2.4795,-2.4864,-2.4855,-2.4842,-2.4832,-2.4836,-2.4885,-2.4974,-2.5034,-2.5099,-2.5152,-2.5163,-2.5163,-2.5141,-2.5037,-2.4883,-2.4697,-2.4561,-2.4375,-2.419,-2.419,-2.4153,-2.3988,-2.3511,-2.2794,-2.2043,-2.1243,-2.0427,-1.9613,-4.3479,-4.3461,-4.3185,-4.324,-4.3461,-4.3479,-4.3167,-4.2525,-4.1332,-4.0726,-4.0928,-4.1368,-4.1809,-4.2378,-4.28,-4.3332,-4.3387,-4.2837,-4.3296,-4.324,-4.2818,-4.3002,-4.313,-4.28,-4.2616,-4.269,-4.1956,-4.1387,-4.2194,-4.0432,-3.9827,-3.9753,-3.9276,-3.9203,-3.9239,-3.8982,-3.8762,-3.8597,-3.8212,-3.7496,-3.6638,-3.598,-3.5405,-3.4353,-3.3654,-3.3213,-3.2893,-3.2158,-3.1175,-3.0867,-3.0186,-2.9048,-2.8159,-2.723,-2.6294,-2.5612,-2.4946,-2.4861,-2.4746,-2.461,-2.4444,-2.4339,-2.4247,-2.4339,-2.4526,-2.4623,-2.4623,-2.4623,-2.4591,-2.4426,-2.4266,-2.4228,-2.419,-2.419,-2.419,-2.419,-2.419,-2.419,-2.4247,-2.4247,-2.4209,-2.4209,-2.4284,-2.4426,-2.4591,-2.4639,-2.4666,-2.4746,-2.4818,-2.4818,-2.4828,-2.4864,-2.4917,-2.5005,-2.5099,-2.5214,-2.5264,-2.5284,-2.5264,-2.5243,-2.5107,-2.4962,-2.4785,-2.4591,-2.4393,-2.4228,-2.4209,-2.4116,-2.3859,-2.3602,-2.3162,-2.2374,-2.1587,-2.0677,-1.9792,-4.3406,-4.3296,-4.2598,-4.269,-4.3296,-4.3222,-4.3277,-4.3296,-4.2506,-4.2084,-4.2066,-4.1919,-4.1956,-4.2084,-4.2231,-4.2598,-4.291,-4.1846,-4.2231,-4.2543,-4.1992,-4.2415,-4.2194,-4.1497,-4.1864,-4.1754,-4.1148,-4.0451,-4.0946,-3.9955,-3.9203,-3.8909,-3.8854,-3.8817,-3.8817,-3.8781,-3.8707,-3.8634,-3.8285,-3.7459,-3.6536,-3.6284,-3.5454,-3.439,-3.3408,-3.2859,-3.2327,-3.1446,-3.0739,-3.0426,-3.0302,-2.9737,-2.8998,-2.8109,-2.7224,-2.6244,-2.5232,-2.4996,-2.4861,-2.4697,-2.4575,-2.4476,-2.4339,-2.4478,-2.4639,-2.4746,-2.4731,-2.4746,-2.4731,-2.4495,-2.4284,-2.4228,-2.419,-2.419,-2.419,-2.419,-2.419,-2.4228,-2.4284,-2.4303,-2.4228,-2.4266,-2.4391,-2.4524,-2.4578,-2.461,-2.467,-2.4785,-2.4842,-2.4869,-2.4877,-2.4949,-2.4986,-2.5053,-2.5152,-2.5224,-2.5284,-2.5313,-2.5303,-2.5253,-2.5149,-2.5,-2.4799,-2.4575,-2.4356,-2.4174,-2.3897,-2.3749,-2.3639,-2.3327,-2.2813,-2.228,-2.1365,-2.0734,-1.9884,-4.1809,-4.1772,-4.1552,-4.1589,-4.1772,-4.1809,-4.2084,-4.2506,-4.1809,-4.1185,-4.0616,-4.1203,-4.1222,-4.0653,-4.1167,-4.1552,-4.157,-4.1442,-4.1442,-4.1405,-4.124,-4.146,-4.1368,-4.1075,-4.1295,-4.1093,-4.0561,-3.9863,-4.0671,-3.9882,-3.9074,-3.8817,-3.8707,-3.8707,-3.8707,-3.8689,-3.8652,-3.8505,-3.8157,-3.7257,-3.6425,-3.5999,-3.5163,-3.4209,-3.3427,-3.2861,-3.2186,-3.1503,-3.0874,-3.0432,-3.0398,-2.9802,-2.8283,-2.7896,-2.7297,-2.5789,-2.5286,-2.5168,-2.5126,-2.4968,-2.479,-2.4682,-2.4528,-2.4578,-2.4734,-2.4818,-2.4818,-2.4804,-2.479,-2.4575,-2.4321,-2.4228,-2.419,-2.419,-2.419,-2.419,-2.419,-2.4228,-2.4284,-2.4284,-2.4228,-2.4319,-2.4454,-2.451,-2.4545,-2.4578,-2.4654,-2.4814,-2.4891,-2.4904,-2.4968,-2.5022,-2.5088,-2.5152,-2.5141,-2.5203,-2.5264,-2.5313,-2.5274,-2.5214,-2.5084,-2.493,-2.4756,-2.4559,-2.4339,-2.386,-2.3364,-2.329,-2.3327,-2.2593,-2.2061,-2.1642,-2.1198,-2.055,-1.9918,-4.1097,-4.1075,-4.0763,-4.0634,-4.0689,-4.0965,-4.1423,-4.1644,-4.0983,-4.0598,-4.0818,-4.0708,-4.0524,-4.0524,-4.0653,-4.0818,-4.113,-4.0414,-4.0414,-4.1111,-4.0487,-4.0763,-4.0781,-4.0561,-4.0598,-4.0451,-4.0194,-3.9643,-4.0212,-3.9863,-3.9056,-3.8762,-3.8707,-3.8689,-3.8615,-3.8377,-3.8175,-3.8028,-3.7643,-3.6835,-3.6122,-3.5475,-3.4825,-3.4104,-3.3475,-3.2693,-3.2201,-3.1518,-3.0638,-3.0157,-3.0081,-2.9428,-2.8165,-2.7832,-2.6909,-2.5562,-2.5312,-2.5264,-2.5243,-2.5107,-2.4962,-2.4864,-2.4712,-2.4741,-2.4771,-2.4855,-2.4832,-2.4804,-2.476,-2.4654,-2.4392,-2.419,-2.419,-2.419,-2.419,-2.419,-2.419,-2.419,-2.4228,-2.4228,-2.4284,-2.4368,-2.4435,-2.4474,-2.4559,-2.467,-2.4785,-2.4891,-2.4949,-2.4962,-2.5053,-2.5152,-2.5203,-2.5234,-2.5224,-2.5203,-2.5253,-2.5264,-2.5163,-2.5088,-2.4993,-2.4823,-2.4623,-2.4444,-2.4284,-2.3805,-2.3346,-2.307,-2.2923,-2.2097,-2.1365,-2.1007,-2.0696,-2.031,-1.9712,-4.0836,-4.0671,-3.9955,-3.9551,-3.979,-4.0359,-4.0781,-4.0928,-4.0157,-4.0616,-4.1442,-4.0543,-4.0249,-4.0267,-4.0047,-4.0157,-4.012,-3.957,-3.9643,-4.0855,-3.9662,-3.9625,-3.9937,-3.9606,-3.9753,-3.9955,-3.968,-3.8891,-3.9258,-3.8982,-3.8579,-3.8597,-3.8524,-3.8358,-3.8046,-3.7643,-3.7312,-3.6982,-3.6835,-3.634,-3.5477,-3.4926,-3.4568,-3.3723,-3.2693,-3.1723,-3.1458,-3.0691,-2.9645,-2.9558,-2.9355,-2.8945,-2.8142,-2.7294,-2.612,-2.5659,-2.5332,-2.5313,-2.5274,-2.5171,-2.5022,-2.4937,-2.4877,-2.4823,-2.4809,-2.4828,-2.4804,-2.4775,-2.4731,-2.4543,-2.4303,-2.4209,-2.419,-2.419,-2.419,-2.419,-2.419,-2.4209,-2.4228,-2.4266,-2.4301,-2.4385,-2.4439,-2.4497,-2.4528,-2.4697,-2.4842,-2.4943,-2.5053,-2.5046,-2.5111,-2.5243,-2.5264,-2.5274,-2.5274,-2.5264,-2.5274,-2.5234,-2.5152,-2.5018,-2.493,-2.4693,-2.4444,-2.4265,-2.41,-2.386,-2.3492,-2.285,-2.2061,-2.1327,-2.0706,-2.0366,-2.0083,-1.9865,-1.9768,-3.8909,-3.8285,-3.7477,-3.7477,-3.8046,-3.8267,-3.9111,-4.0065,-3.9331,-3.957,-4.0267,-4.0065,-3.9643,-3.9386,-3.9258,-3.9313,-3.9148,-3.9111,-3.9001,-3.9276,-3.8762,-3.8799,-3.9258,-3.9001,-3.9038,-3.8799,-3.8432,-3.7973,-3.8046,-3.79,-3.7771,-3.7771,-3.7753,-3.7606,-3.711,-3.667,-3.6376,-3.5973,-3.5697,-3.5532,-3.4899,-3.4807,-3.4614,-3.3813,-3.2847,-3.2061,-3.1669,-3.1013,-2.9938,-2.9284,-2.8989,-2.8275,-2.7225,-2.6187,-2.561,-2.5341,-2.5313,-2.5313,-2.5284,-2.5233,-2.5118,-2.4981,-2.4877,-2.478,-2.4737,-2.4771,-2.4756,-2.4727,-2.4639,-2.4426,-2.4284,-2.4247,-2.419,-2.419,-2.417,-2.417,-2.417,-2.4209,-2.4229,-2.4284,-2.43,-2.4372,-2.4426,-2.4497,-2.4528,-2.4623,-2.476,-2.4896,-2.5118,-2.5214,-2.5184,-2.5274,-2.5274,-2.5284,-2.5313,-2.5313,-2.5313,-2.5274,-2.5214,-2.5041,-2.4877,-2.4666,-2.4425,-2.4116,-2.3879,-2.3676,-2.3014,-2.1675,-2.0923,-2.0556,-2.0134,-1.9849,-1.9673,-1.9467,-1.9633,-3.7367,-3.6909,-3.6486,-3.6743,-3.7404,-3.7496,-3.8212,-3.9129,-3.8891,-3.8946,-3.9331,-3.935,-3.9111,-3.8707,-3.8707,-3.867,-3.867,-3.8707,-3.8469,-3.8322,-3.8469,-3.8377,-3.8432,-3.8524,-3.8726,-3.8505,-3.7863,-3.7441,-3.7037,-3.6964,-3.6964,-3.6964,-3.6909,-3.6707,-3.6174,-3.5936,-3.5514,-3.5064,-3.466,-3.4312,-3.4165,-3.4174,-3.4045,-3.3353,-3.2619,-3.1927,-3.1139,-3.0474,-2.957,-2.8534,-2.7975,-2.7153,-2.629,-2.5649,-2.539,-2.5313,-2.5313,-2.5313,-2.5313,-2.5264,-2.5192,-2.5072,-2.5061,-2.5024,-2.4845,-2.485,-2.4697,-2.467,-2.4591,-2.4409,-2.4284,-2.4209,-2.419,-2.419,-2.4016,-2.3917,-2.3923,-2.3928,-2.406,-2.4247,-2.4266,-2.4266,-2.4358,-2.4462,-2.4528,-2.4697,-2.4814,-2.4962,-2.5171,-2.5313,-2.5313,-2.5313,-2.5313,-2.5313,-2.5313,-2.5313,-2.5313,-2.5274,-2.5234,-2.4981,-2.4752,-2.4623,-2.4424,-2.4223,-2.3949,-2.3563,-2.2679,-2.1451,-2.0739,-2.0519,-1.995,-1.9363,-1.9227,-1.9182,-1.9321,-3.6266,-3.6138,-3.5991,-3.6413,-3.7092,-3.7147,-3.7588,-3.8267,-3.8358,-3.834,-3.8322,-3.834,-3.8469,-3.8689,-3.8689,-3.8615,-3.8505,-3.834,-3.7991,-3.79,-3.8212,-3.8248,-3.823,-3.823,-3.8083,-3.7734,-3.7129,-3.6597,-3.6138,-3.6119,-3.6119,-3.6138,-3.6101,-3.6046,-3.5771,-3.5349,-3.4715,-3.4504,-3.4064,-3.3348,-3.3201,-3.322,-3.3036,-3.2485,-3.1678,-3.0925,-3.0173,-2.9467,-2.8772,-2.7774,-2.69,-2.6129,-2.5721,-2.534,-2.5351,-2.5313,-2.5313,-2.5313,-2.5313,-2.5303,-2.5264,-2.5224,-2.5274,-2.5192,-2.4986,-2.4831,-2.4697,-2.4538,-2.4491,-2.441,-2.4266,-2.419,-2.419,-2.417,-2.3955,-2.3795,-2.3806,-2.3814,-2.4002,-2.4227,-2.4209,-2.4209,-2.4266,-2.4393,-2.4559,-2.4756,-2.4917,-2.5096,-2.5224,-2.5274,-2.5313,-2.5313,-2.5313,-2.5313,-2.5313,-2.5234,-2.5214,-2.5234,-2.5163,-2.4885,-2.4693,-2.4693,-2.4632,-2.4487,-2.4176,-2.3587,-2.28,-2.1719,-2.1136,-2.0409,-1.984,-1.9289,-1.9182,-1.9134,-1.9135,-3.5881,-3.5192,-3.4559,-3.478,-3.5459,-3.5514,-3.5954,-3.667,-3.6817,-3.6762,-3.689,-3.6927,-3.7367,-3.867,-3.8707,-3.8469,-3.79,-3.779,-3.7716,-3.7624,-3.7588,-3.7936,-3.801,-3.7569,-3.6835,-3.6321,-3.5881,-3.5477,-3.5275,-3.5275,-3.5247,-3.5275,-3.522,-3.4926,-3.4284,-3.399,-3.3862,-3.3642,-3.3275,-3.2632,-3.2596,-3.2522,-3.2265,-3.1659,-3.0852,-3.0467,-3.0008,-2.942,-2.8363,-2.7196,-2.6065,-2.54,-2.5214,-2.5233,-2.5284,-2.5313,-2.5313,-2.5313,-2.5313,-2.5313,-2.5274,-2.5163,-2.5182,-2.5122,-2.4962,-2.4823,-2.4629,-2.4362,-2.4298,-2.4303,-2.419,-2.419,-2.419,-2.4151,-2.4016,-2.3996,-2.3999,-2.4019,-2.4094,-2.4189,-2.4209,-2.4209,-2.4228,-2.4375,-2.4578,-2.4756,-2.493,-2.5077,-2.5264,-2.5274,-2.5313,-2.5313,-2.5313,-2.5313,-2.5284,-2.5122,-2.5088,-2.5133,-2.5152,-2.4974,-2.4898,-2.4937,-2.4853,-2.47,-2.4099,-2.3435,-2.2619,-2.2015,-2.0894,-2.015,-1.9672,-1.9259,-1.915,-1.9069,-1.9035]},{"header":{"parameterUnit":"m.s-1","parameterCategory":1,"la1":31.0,"la2":29.5877,"lo1":-88.7671,"lo2":-86.6584,"dy":0.0162,"dx":0.0185,"nx":115,"ny":88,"refTime":"2023-05-18T06:00:00:Z","depth":0,"parameterNumber":3,"parameterNumberName":"V-component_of_WINDS"},"data":[0.0,0.0,0.0,0.0,0.0,0.0,0.0,0.0,0.0,0.0,0.0,0.0,0.0,0.0,0.0,0.0,0.0,0.0,0.0,0.0,0.0,0.0,0.0,0.0,0.0,0.0,0.0,0.0,0.0,0.0,0.0,0.0,0.0,0.0,0.0,0.0,0.0,0.0,0.0,0.0,0.0,0.0,0.0,0.0,0.0,0.0,0.0,0.0,0.0,0.0,0.0,0.0,0.0,0.0,0.0,0.0,0.0,0.0,0.0,0.0,0.0,0.0,0.0,0.0,0.0,0.0,0.0,0.0,0.0,0.0,0.0,0.0,0.0,0.0,0.0,0.0,0.0,0.0,0.0,0.0,0.0,0.0,0.0,0.0,0.0,0.0,0.0,0.0,0.0,0.0,0.0,0.0,0.0,0.0,0.0,0.0,0.0,0.0,0.0,0.0,0.0,0.0,0.0,0.0,0.0,0.0,0.0,0.0,0.0,0.0,0.0,0.0,0.0,0.0,0.0,0.0,0.0,0.0,0.0,0.0,0.0,0.0,0.0,0.0,0.0,0.0,0.0,0.0,0.0,0.0,0.0,0.0,0.0,0.0,0.0,0.0,0.0,0.0,0.0,0.0,0.0,0.0,0.0,0.0,0.0,0.0,0.0,0.0,0.0,0.0,0.0,0.0,0.0,0.0,0.0,0.0,0.0,0.0,0.0,0.0,0.0,0.0,0.0,0.0,0.0,0.0,0.0,0.0,0.0,0.0,0.0,0.0,0.0,0.0,0.0,0.0,0.0,0.0,0.0,0.0,0.0,0.0,0.0,0.0,0.0,0.0,0.0,0.0,0.0,0.0,0.0,0.0,0.0,0.0,0.0,0.0,0.0,0.0,0.0,0.0,0.0,0.0,0.0,0.0,0.0,0.0,0.0,0.0,0.0,0.0,0.0,0.0,0.0,0.0,0.0,0.0,0.0,0.0,0.0,0.0,0.0,0.0,0.0,0.0,0.0,0.0,0.0,0.0,0.0,0.0,0.0,0.0,0.0,0.0,0.0,0.0,0.0,0.0,0.0,0.0,0.0,0.0,0.0,0.0,0.0,0.0,0.0,0.0,0.0,0.0,0.0,0.0,0.0,0.0,0.0,0.0,0.0,0.0,0.0,0.0,0.0,0.0,0.0,0.0,0.0,0.0,0.0,0.0,0.0,0.0,0.0,0.0,0.0,0.0,0.0,0.0,0.0,0.0,0.0,0.0,0.0,0.0,0.0,0.0,0.0,0.0,0.0,0.0,0.0,0.0,0.0,0.0,0.0,0.0,0.0,0.0,0.0,0.0,0.0,0.0,0.0,0.0,0.0,0.0,0.0,0.0,0.0,0.0,0.0,0.0,0.0,0.0,0.0,0.0,0.0,0.0,0.0,0.0,0.0,0.0,0.0,0.0,0.0,0.0,0.0,0.0,0.0,0.0,0.0,0.0,0.0,0.0,0.0,0.0,0.0,0.0,0.0,0.0,0.0,0.0,0.0,0.0,0.0,0.0,0.0,0.0,0.0,0.0,0.0,0.0,0.0,0.0,0.0,0.0,0.0,0.0,0.0,0.0,0.0,0.0,0.0,0.0,0.0,0.0,0.0,0.0,0.0,0.0,0.0,0.0,0.0,0.0,0.0,0.0,0.0,0.0,0.0,0.0,0.0,0.0,0.0,0.0,0.0,0.0,0.0,0.0,0.0,0.0,0.0,0.0,0.0,0.0,0.0,0.0,0.0,0.0,0.0,0.0,0.0,0.0,0.0,0.0,0.0,0.0,0.0,0.0,0.0,0.0,0.0,0.0,0.0,0.0,0.0,0.0,0.0,0.0,0.0,0.0,0.0,0.0,0.0,0.0,0.0,0.0,0.0,0.0,0.0,0.0,0.0,0.0,0.0,0.0,0.0,0.0,0.0,0.0,0.0,0.0,0.0,0.0,0.0,0.0,0.0,0.0,0.0,0.0,0.0,0.0,0.0,0.0,0.0,0.0,0.0,0.0,0.0,0.0,0.0,0.0,0.0,0.0,0.0,0.0,0.0,0.0,0.0,0.0,0.0,0.0,0.0,0.0,0.0,0.0,0.0,0.0,0.0,0.0,0.0,0.0,0.0,0.0,0.0,0.0,0.0,0.0,0.0,0.0,0.0,0.0,0.0,0.0,0.0,0.0,0.0,0.0,0.0,0.0,0.0,0.0,0.0,0.0,0.0,0.0,0.0,0.0,0.0,0.0,0.0,0.0,0.0,0.0,0.0,0.0,0.0,0.0,0.0,0.0,0.0,0.0,0.0,0.0,0.0,0.0,0.0,0.0,0.0,0.0,0.0,0.0,0.0,0.0,0.0,0.0,0.0,0.0,0.0,0.0,0.0,0.0,0.0,0.0,0.0,0.0,0.0,0.0,0.0,0.0,0.0,0.0,0.0,0.0,0.0,0.0,0.0,0.0,0.0,0.0,0.0,0.0,0.0,0.0,0.0,0.0,0.0,0.0,0.0,0.0,0.0,0.0,0.0,0.0,0.0,0.0,0.0,0.0,0.0,0.0,0.0,0.0,0.0,0.0,0.0,0.0,0.0,0.0,0.0,0.0,0.0,0.0,0.0,0.0,0.0,0.0,0.0,0.0,0.0,0.0,0.0,0.0,0.0,0.0,0.0,0.0,0.0,0.0,0.0,0.0,0.0,0.0,0.0,0.0,0.0,0.0,0.0,0.0,0.0,0.0,0.0,0.0,0.0,0.0,0.0,0.0,0.0,0.0,0.0,0.0,0.0,0.0,0.0,0.0,0.0,0.0,0.0,0.0,0.0,0.0,0.0,0.0,0.0,0.0,0.0,0.0,0.0,0.0,0.0,0.0,0.0,0.0,0.0,0.0,0.0,0.0,0.0,0.0,0.0,0.0,0.0,0.0,0.0,0.0,0.0,0.0,0.0,0.0,0.0,0.0,0.0,0.0,0.0,0.0,0.0,0.0,0.0,0.0,0.0,0.0,0.0,0.0,0.0,0.0,0.0,0.0,0.0,0.0,0.0,0.0,0.0,0.0,0.0,0.0,0.0,0.0,0.0,0.0,0.0,0.0,0.0,0.0,0.0,0.0,0.0,0.0,0.0,0.0,0.0,0.0,0.0,0.0,0.0,0.0,0.0,0.0,0.0,0.0,0.0,0.0,0.0,0.0,0.0,0.0,0.0,0.0,0.0,0.0,0.0,0.0,0.0,0.0,0.0,0.0,0.0,0.0,0.0,0.0,0.0,0.0,0.0,0.0,0.0,0.0,0.0,0.0,0.0,0.0,0.0,0.0,0.0,0.0,0.0,0.0,0.0,0.0,0.0,0.0,0.0,0.0,0.0,0.0,0.0,0.0,0.0,0.0,0.0,0.0,0.0,0.0,0.0,0.0,0.0,0.0,0.0,0.0,0.0,0.0,0.0,0.0,0.0,0.0,0.0,0.0,0.0,0.0,0.0,0.0,0.0,0.0,0.0,0.0,0.0,0.0,0.0,0.0,0.0,0.0,0.0,0.0,0.0,0.0,0.0,0.0,0.0,0.0,0.0,0.0,0.0,0.0,0.0,0.0,0.0,0.0,0.0,0.0,0.0,0.0,0.0,0.0,0.0,0.0,0.0,0.0,0.0,0.0,0.0,0.0,0.0,0.0,0.0,0.0,0.0,0.0,0.0,0.0,0.0,0.0,0.0,0.0,0.0,0.0,0.0,0.0,0.0,0.0,0.0,0.0,0.0,0.0,0.0,0.0,0.0,0.0,0.0,0.0,0.0,0.0,0.0,0.0,0.0,0.0,0.0,0.0,0.0,0.0,0.0,0.0,0.0,0.0,0.0,0.0,0.0,0.0,0.0,0.0,0.0,0.0,0.0,0.0,0.0,0.0,0.0,0.0,0.0,0.0,0.0,0.0,0.0,0.0,0.0,0.0,0.0,0.0,0.0,0.0,0.0,0.0,0.0,0.0,0.0,0.0,0.0,0.0,0.0,0.0,0.0,0.0,0.0,0.0,0.0,0.0,0.0,0.0,0.0,0.0,0.0,0.0,0.0,0.0,0.0,0.0,0.0,0.0,0.0,0.0,0.0,0.0,0.0,0.0,0.0,0.0,0.0,0.0,0.0,0.0,0.0,0.0,0.0,0.0,0.0,0.0,0.0,0.0,0.0,0.0,0.0,0.0,0.0,0.0,0.0,0.0,0.0,0.0,0.0,0.0,0.0,0.0,0.0,0.0,0.0,0.0,0.0,0.0,0.0,0.0,0.0,0.0,0.0,0.0,0.1166,0.0,0.0,0.0,0.0,0.0,0.0,0.0,0.0,0.0,0.0,0.0,0.0,0.0,0.0,0.0,0.0,0.0,0.0,0.0,0.0,0.0,0.0,0.0,0.0,0.0,0.0,0.0,0.0,0.0,0.0,0.0,0.0,0.0,0.0,0.0,0.0,0.0,0.0,0.0,0.0,0.0,0.0,0.0,0.0,0.0,0.0,0.0,0.0,0.0,0.0,0.0,0.0,0.0,0.0,0.0,0.0,0.0,0.0,0.0,0.0,0.0,0.0,0.0,0.0,0.0,0.0,0.0,0.0,0.0,0.0,0.0,0.0,0.0,0.0,0.0,0.0,0.0,0.0,0.0,0.0,0.0,0.0,0.0,0.0,0.0,0.0,0.0,0.0,0.0,0.0,0.0,0.0,0.0,0.0,0.0,0.0,0.0,0.0,0.0,0.0,0.0,0.0,0.0,0.0,0.0,0.0,0.0,0.0,0.0,0.0,-0.0392,-0.0056,-0.0392,-0.0224,0.0448,0.0,0.0,0.0,0.0,0.0,0.0,0.0,0.0,0.0,0.0,0.0,0.0,0.0,0.0,0.0,0.0,0.0,0.0,0.0,0.0,0.0,0.0,0.0,0.0,0.0,0.0,0.0,0.0,0.0,0.0,0.0,0.0,0.0,0.0,0.0,0.0,0.0,0.0,0.0,0.0,0.0,0.0,0.0,0.0,0.0,0.0,0.0,0.0,0.0,0.0,0.0,0.0,0.0,0.0,0.0,0.0,0.0,0.0,0.0,0.0,0.0,0.0,0.0,0.0,0.0,0.0,0.0,0.0,0.0,0.0,0.0,0.0,0.0,0.0,0.0,0.0,0.0,0.0,0.0,0.0,0.0,0.0,0.0,0.0,0.0,0.0,0.0,0.0,0.0,0.0,0.0,0.0,0.0,0.0,0.0,0.0,0.0,0.0,0.0,0.0,0.0,0.0,0.0,0.0,0.0,0.0,0.0,0.0,0.0,0.0,0.0,0.0,-0.1227,-0.1286,-0.0701,0.0,0.0,0.0,0.0,0.0,0.0,0.0,0.0,0.0,0.0,0.0,0.0,0.0,0.0,0.0,0.0,0.0,0.0,0.0,0.0,0.0,0.0,0.0,0.0,0.0,0.0,0.0,0.0,0.0,0.0,0.0,0.0,0.0,0.0,0.0,0.0,0.0,0.0,0.0,0.0,0.0,0.0,0.0,0.0,0.0,0.0,0.0,0.0,0.0,0.0,0.0,0.0,0.0,0.0,0.0,0.0,0.0,0.0,0.0,0.0,0.0,0.0,0.0,0.0,0.0,0.0,0.0,0.0,0.0,0.0,0.0,0.0,0.0,0.0,0.0,0.0,0.0,0.0,0.0,0.0,0.0,0.0,0.0,0.0,0.0,0.0,0.0,0.0,0.0,0.0,0.0,0.0,0.0,0.0,0.0,0.0,0.0,0.0,0.0,0.0,0.0,0.0,0.0,0.0,0.0,0.0,0.0,0.0,0.0,0.0,-0.1654,-0.2761,-0.29,0.0,-0.2761,0.0,0.0,0.0,0.0,0.0,0.0,0.0,0.0,0.0,0.0,0.0,0.0,0.0,0.0,0.0,0.0,0.0,0.0,0.0,0.0,0.0,0.0,0.0,0.0,0.0,0.0,0.0,0.0,0.0,0.0,0.0,0.0,0.0,0.0,0.0,0.0,0.0,0.0,0.0,0.0,0.0,0.0,0.0,0.0,0.0,0.0,0.0,0.0,0.0,0.0,0.0,0.0,0.0,0.0,0.0,0.0,0.0,0.0,0.0,0.0,0.0,0.0,0.0,0.0,0.0,0.0,0.0,0.0,0.0,0.0,0.0,0.0,0.0,0.0,0.0,0.0,0.0,0.0,0.0,0.0,0.0,0.0,0.0,0.0,0.0,0.0,0.0,0.0,0.0,0.0,0.0,0.0,0.0,0.0,0.0,0.0,0.0,0.0,0.0,0.0,0.0,0.0,0.0,0.0,0.0,0.0,0.0,0.0,0.0,0.0,-0.2722,-0.3074,-0.3082,-0.3035,0.0,0.0,0.0,0.0,0.0,0.0,0.0,0.0,0.0,0.0,0.0,0.0,0.0,0.0,0.0,0.0,0.0,0.0,0.0,0.0,0.0,0.0,0.0,0.0,0.0,0.0,0.0,0.0,0.0,0.0,0.0,0.0,0.0,0.0,0.0,0.0,0.0,0.0,0.0,0.0,0.0,0.0,0.0,0.0,0.0,0.0,0.0,0.0,0.0,0.0,0.0,0.0,0.0,0.0,0.0,0.0,0.0,0.0,0.0,0.0,0.0,0.0,0.0,0.0,0.0,0.0,0.0,0.0,0.0,0.0,0.0,0.0,0.0,0.0,0.0,0.0,0.0,0.0,0.0,0.0,0.0,0.0,0.0,0.0,0.0,0.0,0.0,0.0,0.0,0.0,0.0,0.0,0.0,0.0,0.0,0.0,0.0,0.0,0.0,0.0,0.0,0.0,0.0,0.0,0.0,0.0,0.0,0.0,0.0,0.0,-0.2897,-0.3255,-0.3403,-0.3553,-0.3556,-0.3465,0.0,0.0,0.0,0.0,0.0,0.0,0.0,0.0,0.0,0.0,0.0,0.0,0.0,0.0,0.0,0.0,0.0,0.0,0.0,0.0,0.0,0.0,0.0,0.0,0.0,0.0,0.0,0.0,0.0,0.0,0.0,0.0,0.0,0.0,0.0,0.0,0.0,0.0,0.0,0.0,0.0,0.0,0.0,0.0,0.0,0.0,0.0,0.0,0.0,0.0,0.0,0.0,0.0,0.0,0.0,0.0,0.0,0.0,0.0,0.0,0.0,0.0,0.0,0.0,0.0,0.0,0.0,0.0,0.0,0.0,0.0,0.0,0.0,0.0,0.0,0.0,0.0,0.0,0.0,0.0,0.0,0.0,0.0,0.0,0.0,0.0,0.0,0.0,0.0,0.0,0.0,0.0,0.0,0.0,0.0,0.0,0.0,0.0,0.0,0.0,0.0,0.0,0.0,0.0,0.0,0.0,0.0,0.0,-0.2782,-0.249,-0.2875,-0.407,-0.4573,-0.4942,0.0,0.0,0.0,0.0,0.0,0.0,0.0,0.0,0.0,0.0,0.0,0.0,0.0,0.0,0.0,0.0,0.0,0.0,0.0,0.0,0.0,0.0,0.0,0.0,0.0,0.0,0.0,0.0,0.0,0.0,0.0,0.0,0.0,0.0,0.0,0.0,0.0,0.0,0.0,0.0,0.0,0.0,0.0,0.0,0.0,0.0,0.0,0.0,0.0,0.0,0.0,0.0,0.0,0.0,0.0,0.0,0.0,0.0,0.0,0.0,0.0,0.0,0.0,0.0,0.0,0.0,0.0,0.0,0.0,0.0,0.0,0.0,0.0,0.0,0.0,0.0,0.0,0.0,0.0,0.0,0.0,0.0,0.0,0.0,0.0,0.0,0.0,0.0,0.0,0.0,0.0,0.0,0.0,0.0,0.0,0.0,0.0,0.0,0.0,0.0,0.0,0.0,0.0,0.0,0.0,0.0,0.0,0.0,0.0,-0.2318,-0.3115,-0.3816,-0.4515,-0.4987,-0.5556,0.0,0.0,0.0,0.0,0.0,0.0,0.0,0.0,0.0,0.0,0.0,0.0,0.0,0.0,0.0,0.0,0.0,0.0,0.0,0.0,0.0,0.0,0.0,0.0,0.0,0.0,0.0,0.0,0.0,0.0,0.0,0.0,0.0,0.0,0.0,0.0,0.0,0.0,0.0,0.0,0.0,0.0,0.0,0.0,0.0,0.0,0.0,0.0,0.0,0.0,0.0,0.0,0.0,0.0,0.0,0.0,0.0,0.0,0.0,0.0,0.0,0.0,0.0,0.0,0.0,0.0,0.0,0.0,0.0,0.0,0.0,0.0,0.0,0.0,0.0,0.0,0.0,0.0,0.0,0.0,0.0,0.0,0.0,0.0,0.0,0.0,0.0,0.0,0.0,0.0,0.0,0.0,0.0,0.0,0.0,0.0,0.0,0.0,0.0,0.0,0.0,0.0,0.0,0.0,0.0,0.0,0.0,0.0,0.0,-0.1785,0.0,-0.3837,-0.3903,-0.4891,-0.5705,0.0,0.0,0.0,0.0,0.0,0.0,0.0,0.0,0.0,0.0,0.0,0.0,0.0,0.0,0.0,0.0,0.0,0.0,0.0,0.0,0.0,0.0,0.0,0.0,0.0,0.0,0.0,0.0,0.0,0.0,0.0,0.0,0.0,0.0,0.0,0.0,0.0,0.0,0.0,0.0,0.0,0.0,0.0,0.0,0.0,0.0,0.0,0.0,0.0,0.0,0.0,0.0,0.0,0.0,0.0,0.0,0.0,0.0,0.0,0.0,0.0,0.0,0.0,0.0,0.0,0.0,0.0,0.0,0.0,0.0,0.0,0.0,0.0,0.0,0.0,0.0,0.0,0.0,0.0,0.0,0.0,0.0,0.0,0.0,0.0,0.0,0.0,0.0,0.0,0.0,0.0,0.0,0.0,0.0,0.0,0.0,0.0,0.0,0.0,0.0,0.0,0.0,0.0,0.0,0.0,0.0,0.0,0.0,-0.1899,-0.122,-0.2294,-0.2855,-0.2332,-0.4338,-0.5461,0.0,0.0,0.0,0.0,0.0,0.0,0.0,0.0,0.0,0.0,0.0,0.0,0.0,0.0,0.0,0.0,0.0,0.0,0.0,0.0,0.0,0.0,0.0,0.0,0.0,0.0,0.0,0.0,0.0,0.0,0.0,0.0,0.0,0.0,0.0,0.0,0.0,0.0,0.0,0.0,0.0,0.0,0.0,0.0,0.0,0.0,0.0,0.0,0.0,0.0,0.0,0.0,0.0,0.0,0.0,0.0,0.0,0.0,0.0,0.0,0.0,0.0,0.0,0.0,0.0,0.0,0.0,0.0,0.0,0.0,0.0,0.0,0.0,0.0,0.0,0.0,0.0,0.0,0.0,0.0,0.0,0.0,0.0,0.0,0.0,0.0,0.0,0.0,0.0,0.0,0.0,0.0,0.0,0.0,0.0,0.0,0.0,0.0,0.0,0.0,0.0,0.0,0.0,0.0,0.0,0.0,0.0,0.0,0.0,-0.1327,-0.3022,-0.415,-0.4431,-0.4857,-0.5578,0.0,0.0,0.0,0.0,0.0,0.0,0.0,0.0,0.0,0.0,0.0,0.0,0.0,0.0,0.0,0.0,0.0,0.0,0.0,0.0,0.0,0.0,0.0,0.0,0.0,0.0,0.0,0.0,0.0,0.0,0.0,0.0,0.0,0.0,0.0,0.0,0.0,0.0,0.0,0.0,0.0,0.0,0.0,0.0,0.0,0.0,0.0,0.0,0.0,0.0,0.0,0.0,0.0,0.0,0.0,0.0,0.0,0.0,0.0,0.0,0.0,0.0,0.0,0.0,0.0,0.0,0.0,0.0,0.0,0.0,0.0,0.0,0.0,0.0,0.0,0.0,0.0,0.0,0.0,0.0,0.0,0.0,0.0,0.0,0.0,0.0,0.0,0.0,0.0,0.0,0.0,0.0,0.0,0.0,0.0,0.0,0.0,0.0,0.0,0.0,0.0,0.0,0.0,0.0,0.0,0.0,0.0,0.0,0.0,-0.3579,-0.5337,-0.6331,-0.6431,-0.6176,-0.6463,-0.725,0.0,0.0,0.0,0.0,0.0,0.0,0.0,0.0,0.0,0.0,0.0,0.0,0.0,0.0,0.0,0.0,0.0,0.0,0.0,0.0,0.0,0.0,0.0,0.0,0.0,0.0,0.0,0.0,0.0,0.0,0.0,0.0,0.0,0.0,0.0,0.0,0.0,0.0,0.0,0.0,0.0,0.0,0.0,0.0,0.0,0.0,0.0,0.0,0.0,0.0,0.0,0.0,0.0,0.0,0.0,0.0,0.0,0.0,0.0,0.0,0.0,0.0,0.0,0.0,0.0,0.0,0.0,0.0,0.0,0.0,0.0,0.0,0.0,0.0,0.0,0.0,0.0,0.0,0.0,0.0,0.0,0.0,0.0,0.0,0.0,0.0,0.0,0.0,0.0,0.0,0.0,0.0,0.0,0.0,0.0,0.0,0.0,0.0,0.0,0.0,0.0,0.0,0.0,0.0,0.0,0.0,0.0,0.0,-0.7265,-0.8813,-0.9222,-0.8404,-0.8114,-0.784,0.0,0.0,0.0,0.0,0.0,0.0,0.0,0.0,0.0,0.0,0.0,0.0,0.0,0.0,0.0,0.0,0.0,0.0,0.0,0.0,0.0,0.0,0.0,0.0,0.0,0.0,0.0,0.0,0.0,0.0,0.0,0.0,0.0,0.0,0.0,0.0,0.0,0.0,0.0,0.0,0.0,0.0,0.0,0.0,0.0,0.0,0.0,0.0,0.0,0.0,0.0,0.0,0.0,0.0,0.0,0.0,0.0,0.0,0.0,0.0,0.0,0.0,0.0,0.0,0.0,0.0,0.0,0.0,0.0,0.0,0.0,0.0,0.0,0.0,0.0,0.0,0.0,0.0,0.0,0.0,0.0,0.0,0.0,0.0,0.0,0.0,0.0,0.0,0.0,0.0,0.0,0.0,0.0,0.0,0.0,0.0,0.0,0.0,0.0,0.0,0.0,0.0,0.0,0.0,0.0,0.0,0.0,0.0,0.0,-0.976,-1.2388,-1.2744,-1.0722,-0.8807,-0.7879,0.0,0.0,0.0,0.0,0.0,0.0,0.0,0.0,0.0,0.0,0.0,0.0,0.0,0.0,0.0,0.0,0.0,0.0,0.0,0.0,0.0,0.0,0.0,0.0,0.0,0.0,0.0,0.0,0.0,0.0,0.0,0.0,0.0,0.0,0.0,0.0,0.0,0.0,0.0,0.0,0.0,0.0,0.0,0.0,0.0,0.0,0.0,0.0,0.0,0.0,0.0,0.0,0.0,0.0,0.0,0.0,0.0,0.0,0.0,0.0,0.0,0.0,0.0,0.0,0.0,0.0,0.0,0.0,0.0,0.0,0.0,0.0,0.0,0.0,0.0,0.0,0.0,0.0,0.0,0.0,0.0,0.0,0.0,0.0,0.0,0.0,0.0,0.0,0.0,0.0,0.0,0.0,0.0,0.0,0.0,0.0,0.0,0.0,0.0,0.0,0.0,0.0,0.0,0.0,0.0,0.0,0.0,0.0,-1.0515,-1.1653,-1.4212,-1.4827,-1.3339,-1.1294,-0.9785,0.0,0.0,0.0,0.0,0.0,0.0,0.0,0.0,0.0,0.0,0.0,0.0,0.0,0.0,0.0,0.0,0.0,0.0,0.0,0.0,0.0,0.0,0.0,0.0,0.0,0.0,0.0,0.0,0.0,0.0,0.0,0.0,0.0,0.0,0.0,0.0,0.0,0.0,0.0,0.0,0.0,0.0,0.0,0.0,0.0,0.0,0.0,0.0,0.0,0.0,0.0,0.0,0.0,0.0,0.0,0.0,0.0,0.0,0.0,0.0,0.0,0.0,0.0,0.0,0.0,0.0,0.0,0.0,0.0,0.0,0.0,0.0,0.0,0.0,0.0,0.0,0.0,0.0,0.0,0.0,0.0,0.0,0.0,0.0,0.0,0.0,0.0,0.0,0.0,0.0,0.0,0.0,0.0,0.0,0.0,0.0,0.0,0.0,0.0,0.0,0.0,0.0,0.0,0.0,0.0,0.0,0.0,0.0,-1.1288,-1.3136,-1.4896,-1.5845,-1.5838,-1.4142,-1.2369,0.0,0.0,0.0,0.0,0.0,0.0,0.0,0.0,0.0,0.0,0.0,0.0,0.0,0.0,0.0,0.0,0.0,0.0,0.0,0.0,0.0,0.0,0.0,0.0,0.0,0.0,0.0,0.0,0.0,0.0,0.0,0.0,0.0,0.0,0.0,0.0,0.0,0.0,0.0,0.0,0.0,0.0,0.0,0.0,0.0,0.0,0.0,0.0,0.0,0.0,0.0,0.0,0.0,0.0,0.0,0.0,0.0,0.0,0.0,0.0,0.0,0.0,0.0,0.0,0.0,0.0,0.0,0.0,0.0,0.0,0.0,0.0,0.0,0.0,0.0,0.0,0.0,0.0,0.0,0.0,0.0,0.0,0.0,0.0,0.0,0.0,0.0,0.0,0.0,0.0,0.0,0.0,0.0,0.0,0.0,0.0,0.0,0.0,0.0,0.0,0.0,0.0,0.0,0.0,0.0,0.0,0.0,0.0,-1.203,-1.333,-1.4995,-1.5939,-1.6159,-1.3493,-1.1609,0.0,0.0,0.0,0.0,0.0,0.0,0.0,0.0,0.0,0.0,0.0,0.0,0.0,0.0,0.0,0.0,0.0,0.0,0.0,0.0,0.0,0.0,0.0,0.0,0.0,0.0,0.0,0.0,0.0,0.0,0.0,0.0,0.0,0.0,0.0,0.0,0.0,0.0,0.0,0.0,0.0,0.0,0.0,0.0,0.0,0.0,0.0,0.0,-0.446,0.0,0.0,0.0,0.0,0.0,0.0,0.0,0.0,0.0,0.0,0.0,0.0,0.0,0.0,0.0,0.0,0.0,0.0,0.0,0.0,0.0,0.0,0.0,0.0,0.0,0.0,0.0,0.0,0.0,0.0,0.0,0.0,0.0,0.0,0.0,0.0,0.0,0.0,0.0,0.0,0.0,0.0,0.0,0.0,0.0,0.0,0.0,0.0,0.0,0.0,0.0,0.0,0.0,0.0,0.0,0.0,0.0,0.0,0.0,-1.2669,-1.434,-1.5325,-1.5838,-1.5798,-1.3763,-1.2273,0.0,0.0,0.0,0.0,0.0,0.0,0.0,0.0,0.0,0.0,0.0,0.0,0.0,0.0,0.0,0.0,0.0,0.0,0.0,0.0,0.0,0.0,0.0,0.0,0.0,0.0,0.0,0.0,0.0,0.0,0.0,0.0,0.0,0.0,0.0,0.0,0.0,0.0,0.0,0.0,0.0,0.0,0.0,0.0,0.0,0.0,0.0,0.0,0.0,0.0,0.0,0.0,0.0,0.0,0.0,0.0,0.0,0.0,0.0,0.0,0.0,0.0,0.0,0.0,0.0,0.0,0.0,0.0,0.0,0.0,0.0,0.0,0.0,0.0,0.0,0.0,0.0,0.0,0.0,0.0,0.0,0.0,0.0,0.0,0.0,0.0,0.0,0.0,0.0,0.0,0.0,0.0,0.0,0.0,0.0,0.0,0.0,0.0,0.0,0.0,0.0,0.0,0.0,0.0,0.0,0.0,0.0,-1.1877,-1.3252,-1.5331,-1.5678,-1.5691,-1.5391,-1.4262,-1.3206,-1.2271,0.0,0.0,0.0,0.0,0.0,0.0,0.0,0.0,0.0,0.0,0.0,0.0,0.0,0.0,0.0,0.0,0.0,0.0,0.0,0.0,0.0,0.0,0.0,0.0,0.0,0.0,0.0,0.0,0.0,0.0,0.0,0.0,0.0,0.0,0.0,0.0,0.0,0.0,-0.0553,0.0223,0.0,0.0,0.0,0.0,0.0,0.0,0.0,0.0,-0.5584,0.0,0.0,0.0,0.0,0.0,0.0,0.0,0.0,0.0,0.0,0.0,0.0,0.0,0.0,0.0,0.0,0.0,0.0,0.0,0.0,0.0,0.0,0.0,0.0,0.0,0.0,0.0,0.0,0.0,0.0,0.0,0.0,0.0,0.0,0.0,0.0,0.0,0.0,0.0,0.0,0.0,0.0,0.0,0.0,0.0,0.0,0.0,0.0,0.0,0.0,0.0,0.0,0.0,0.0,0.0,0.0,-1.2408,-1.2586,-1.3566,-1.5344,-1.5678,-1.5691,-1.5378,-1.4255,-1.3106,-1.1977,0.0,0.0,0.0,0.0,0.0,0.0,0.0,0.0,0.0,0.0,0.0,0.0,0.0,0.0,0.0,0.0,0.0,0.0,0.0,0.0,0.0,0.0,0.0,0.0,0.0,0.0,0.0,0.0,0.0,0.0,0.0,0.0,0.0,0.0,0.0,0.0,0.0,0.0,0.0,-0.1728,-0.1728,0.0,0.0,0.0,0.0,0.0,0.0,0.0,0.0,-0.5554,0.0,0.0,0.0,0.0,0.0,0.0,0.0,0.0,0.0,0.0,0.0,0.0,0.0,0.0,0.0,0.0,0.0,0.0,0.0,0.0,0.0,0.0,0.0,0.0,0.0,0.0,0.0,0.0,0.0,0.0,0.0,0.0,0.0,0.0,0.0,0.0,0.0,0.0,0.0,0.0,0.0,0.0,0.0,0.0,0.0,0.0,0.0,0.0,0.0,0.0,0.0,0.0,0.0,0.0,0.0,-1.2284,-1.2752,-1.3768,-1.5331,-1.5384,-1.5237,-1.4923,-1.3647,-1.2465,0.0,0.0,0.0,0.0,0.0,0.0,0.0,0.0,0.0,0.0,0.0,0.0,0.0,0.0,0.0,0.0,0.0,0.0,0.0,0.0,0.0,0.0,0.0,0.0,0.0,0.0,0.0,0.0,0.0,0.0,0.0,0.0,0.0,0.0,0.0,0.0,0.0,0.0,0.0,0.0,-0.2548,-0.2446,-0.2738,0.0,0.0,0.0,0.0,0.0,0.0,-0.5936,-0.6483,0.0,0.0,0.0,0.0,0.0,0.0,0.0,0.0,0.0,0.0,0.0,0.0,0.0,0.0,0.0,0.0,0.0,0.0,0.0,0.0,0.0,0.0,0.0,0.0,0.0,0.0,0.0,0.0,0.0,0.0,0.0,0.0,0.0,0.0,0.0,0.0,0.0,0.0,0.0,0.0,0.0,0.0,0.0,0.0,0.0,0.0,0.0,0.0,0.0,0.0,0.0,0.0,0.0,0.0,0.0,-1.1757,-1.2605,-1.3741,-1.513,-1.5057,-1.4796,-1.4416,-1.3046,-1.1891,0.0,0.0,0.0,0.0,0.0,0.0,0.0,0.0,0.0,0.0,0.0,0.0,0.0,0.0,0.0,0.0,0.0,0.0,0.0,0.0,0.0,0.0,0.0,0.0,0.0,0.0,0.0,0.0,0.0,0.0,0.0,0.0,0.0,0.0,0.0,0.0,0.0,0.0,0.0,0.0,0.0,-0.3069,-0.3474,-0.3729,0.0,0.0,0.0,0.0,-0.5491,-0.6596,0.0,0.0,0.0,0.0,0.0,0.0,0.0,0.0,0.0,0.0,0.0,0.0,0.0,0.0,0.0,0.0,0.0,0.0,0.0,0.0,0.0,0.0,0.0,0.0,0.0,0.0,0.0,0.0,0.0,0.0,0.0,0.0,0.0,0.0,0.0,0.0,0.0,0.0,0.0,0.0,0.0,0.0,0.0,0.0,0.0,0.0,0.0,0.0,0.0,0.0,0.0,0.0,0.0,0.0,0.0,0.0,-1.1436,-1.2091,-1.3126,-1.4543,-1.4843,-1.4703,-1.4142,-1.2946,-1.1891,0.0,0.0,0.0,0.0,0.0,0.0,0.0,0.0,0.0,0.0,0.0,0.0,0.0,0.0,0.0,0.0,0.0,0.0,0.0,0.0,0.0,0.0,0.0,0.0,0.0,0.0,0.0,0.0,0.0,0.0,0.0,0.0,0.0,0.0,0.0,0.0,0.0,0.0,0.0,0.0,0.0,-0.4403,-0.4369,-0.4475,-0.4576,0.0,0.0,-0.5053,-0.58,-0.6465,0.0,0.0,0.0,0.0,0.0,0.0,0.0,0.0,0.0,0.0,0.0,0.0,0.0,0.0,0.0,0.0,0.0,0.0,0.0,0.0,0.0,0.0,0.0,0.0,0.0,0.0,0.0,0.0,0.0,0.0,0.0,0.0,0.0,0.0,0.0,0.0,0.0,0.0,0.0,0.0,0.0,0.0,0.0,0.0,0.0,0.0,0.0,0.0,0.0,0.0,0.0,0.0,0.0,0.0,0.0,-1.0053,-1.1162,-1.1924,-1.2852,-1.3975,-1.4148,-1.3935,-1.3413,-1.2017,-1.1056,0.0,0.0,0.0,0.0,0.0,0.0,0.0,0.0,0.0,0.0,0.0,0.0,0.0,0.0,0.0,0.0,0.0,0.0,0.0,0.0,0.0,0.0,0.0,0.0,0.0,0.0,0.0,0.0,0.0,0.0,0.0,0.0,0.0,0.0,0.0,0.0,0.0,0.0,0.0,0.0,0.0,0.0,-0.5703,-0.5633,0.0,0.0,0.0,-0.6075,-0.7089,0.0,0.0,0.0,0.0,0.0,0.0,0.0,0.0,0.0,0.0,0.0,0.0,0.0,0.0,0.0,0.0,0.0,0.0,0.0,0.0,0.0,0.0,0.0,0.0,0.0,0.0,0.0,0.0,0.0,0.0,0.0,0.0,0.0,0.0,0.0,0.0,0.0,0.0,0.0,0.0,0.0,0.0,0.0,0.0,0.0,0.0,0.0,0.0,0.0,0.0,0.0,0.0,0.0,0.0,0.0,0.0,0.0,-1.0989,-1.179,-1.2632,-1.35,-1.3534,-1.3253,-1.2708,-1.1356,0.0,0.0,0.0,0.0,0.0,0.0,0.0,0.0,0.0,0.0,0.0,0.0,0.0,0.0,0.0,0.0,0.0,0.0,0.0,0.0,0.0,0.0,0.0,0.0,0.0,0.0,0.0,-0.5703,0.0,0.0,0.0,0.0,0.0,0.0,0.0,0.0,0.0,0.0,0.0,0.0,0.0,0.0,-0.7153,-0.6779,-0.6591,-0.6629,0.0,0.0,-0.675,-0.7644,-0.7847,-0.8004,0.0,0.0,0.0,0.0,0.0,0.0,0.0,0.0,0.0,0.0,0.0,0.0,0.0,0.0,0.0,0.0,0.0,0.0,0.0,0.0,0.0,0.0,0.0,0.0,0.0,0.0,0.0,0.0,0.0,0.0,0.0,0.0,0.0,0.0,0.0,0.0,0.0,0.0,0.0,0.0,0.0,0.0,0.0,0.0,0.0,0.0,0.0,0.0,0.0,0.0,0.0,0.0,0.0,0.0,0.0,-1.0982,-1.159,-1.2331,-1.32,-1.324,-1.2953,-1.2345,-1.1443,-1.0688,0.0,0.0,0.0,0.0,0.0,0.0,0.0,0.0,0.0,0.0,0.0,0.0,0.0,0.0,0.0,0.0,0.0,0.0,0.0,0.0,0.0,0.0,0.0,0.0,0.0,0.0,0.0,0.0,0.0,0.0,0.0,0.0,0.0,0.0,0.0,0.0,0.0,0.0,0.0,0.0,0.0,-0.7208,-0.71,-0.7143,-0.7214,0.0,0.0,-0.6349,-0.6648,-0.7282,-0.7711,-0.7776,0.0,0.0,0.0,0.0,0.0,0.0,0.0,0.0,0.0,0.0,0.0,0.0,0.0,0.0,0.0,0.0,0.0,0.0,0.0,0.0,0.0,0.0,0.0,0.0,0.0,0.0,0.0,0.0,0.0,0.0,0.0,0.0,0.0,0.0,0.0,0.0,0.0,0.0,0.0,0.0,0.0,0.0,0.0,0.0,0.0,0.0,0.0,0.0,0.0,0.0,0.0,0.0,0.0,-1.1071,-1.2218,-1.2487,-1.2913,-1.3447,-1.3133,-1.2559,-1.1777,-1.1089,-1.0367,0.0,0.0,0.0,0.0,0.0,0.0,0.0,0.0,0.0,0.0,0.0,0.0,0.0,0.0,0.0,0.0,0.0,0.0,0.0,0.0,0.0,0.0,0.0,0.0,0.0,0.0,0.0,0.0,-0.7337,-0.8108,-0.8371,0.0,0.0,0.0,0.0,0.0,0.0,0.0,0.0,0.0,0.0,-0.8628,-0.8209,-0.8109,0.0,0.0,-0.7773,-0.7478,-0.8098,-0.8503,-0.8683,-0.8438,-0.8684,0.0,0.0,0.0,0.0,0.0,0.0,0.0,0.0,0.0,0.0,0.0,0.0,0.0,0.0,0.0,0.0,0.0,0.0,0.0,0.0,0.0,0.0,0.0,0.0,0.0,0.0,0.0,0.0,0.0,0.0,0.0,0.0,0.0,0.0,0.0,0.0,0.0,0.0,0.0,0.0,0.0,0.0,0.0,0.0,0.0,0.0,0.0,0.0,0.0,0.0,0.0,0.0,-1.1805,-1.3,-1.3251,-1.3669,-1.4163,-1.346,-1.267,-1.1853,-1.1145,-1.0281,0.0,0.0,0.0,0.0,0.0,0.0,0.0,0.0,0.0,0.0,0.0,0.0,0.0,0.0,0.0,0.0,0.0,0.0,0.0,0.0,0.0,0.0,0.0,0.0,0.0,0.0,0.0,0.0,-0.7695,-0.8391,-0.8374,0.0,0.0,0.0,0.0,0.0,0.0,0.0,0.0,0.0,0.0,-0.9399,-0.8998,-0.8832,-0.889,-0.9154,-0.8602,-0.8398,-0.9009,-0.9172,-0.9092,-0.8738,0.0,0.0,0.0,0.0,0.0,0.0,0.0,0.0,0.0,0.0,0.0,0.0,0.0,0.0,0.0,0.0,0.0,0.0,0.0,0.0,0.0,0.0,0.0,0.0,0.0,0.0,0.0,0.0,0.0,0.0,0.0,0.0,0.0,0.0,0.0,0.0,0.0,0.0,0.0,0.0,0.0,0.0,0.0,0.0,0.0,0.0,0.0,0.0,0.0,0.0,0.0,0.0,0.0,-1.2258,-1.3,-1.3735,-1.4445,-1.513,-1.4178,-1.3368,-1.2856,-1.1661,-1.0568,-0.9686,0.0,0.0,0.0,0.0,0.0,0.0,0.0,0.0,0.0,0.0,0.0,0.0,0.0,0.0,0.0,0.0,0.0,0.0,0.0,0.0,0.0,0.0,0.0,0.0,0.0,0.0,-0.7765,-0.8126,-0.84,0.0,0.0,0.0,0.0,0.0,0.0,0.0,0.0,0.0,0.0,-0.901,-0.919,-0.9163,-0.9183,-0.9147,-0.9183,-0.8944,-0.8771,-0.8824,-0.8824,-0.8724,0.0,0.0,0.0,0.0,0.0,0.0,0.0,0.0,0.0,0.0,0.0,0.0,0.0,0.0,0.0,0.0,0.0,0.0,0.0,0.0,0.0,0.0,0.0,0.0,0.0,0.0,0.0,0.0,-1.0206,0.0,0.0,0.0,0.0,0.0,0.0,0.0,0.0,0.0,0.0,0.0,-1.2725,-1.1512,0.0,0.0,0.0,0.0,0.0,0.0,0.0,0.0,0.0,0.0,0.0,0.0,-1.3298,-1.456,-1.4791,-1.5178,-1.5599,-1.4182,-1.3102,-1.2445,-1.1295,-1.0294,-0.9419,0.0,0.0,0.0,0.0,0.0,0.0,0.0,0.0,0.0,0.0,0.0,0.0,0.0,0.0,0.0,0.0,0.0,0.0,0.0,0.0,0.0,0.0,0.0,0.0,0.0,-0.8699,0.0,0.0,0.0,0.0,0.0,0.0,0.0,0.0,0.0,0.0,0.0,-0.9316,-0.8857,-0.9477,-0.9705,-0.9039,-0.9118,-0.9117,0.0,0.0,0.0,0.0,0.0,0.0,0.0,0.0,0.0,0.0,0.0,0.0,0.0,0.0,-1.2891,-1.2891,-1.2891,-1.2891,-1.2891,0.0,0.0,0.0,0.0,0.0,0.0,0.0,0.0,0.0,0.0,0.0,0.0,0.0,0.0,0.0,0.0,-0.9996,0.0,0.0,0.0,0.0,0.0,0.0,0.0,0.0,-1.092,-1.1854,-1.3537,-1.2394,-1.2153,0.0,-1.2063,-1.0972,0.0,0.0,0.0,0.0,0.0,0.0,0.0,0.0,-1.4099,-1.5352,-1.5623,-1.5845,-1.5878,-1.455,-1.3278,-1.228,-1.1003,-0.9886,-0.9057,-0.8537,-0.8707,0.0,0.0,0.0,0.0,0.0,0.0,0.0,0.0,0.0,0.0,0.0,0.0,0.0,0.0,0.0,0.0,0.0,0.0,0.0,0.0,0.0,0.0,0.0,-0.8804,0.0,0.0,0.0,0.0,0.0,0.0,0.0,0.0,0.0,-0.9106,-0.951,-0.9614,-0.9211,-0.9698,-0.9802,-0.8937,0.0,0.0,0.0,0.0,0.0,0.0,0.0,-0.8771,-0.8677,-0.8744,-0.8857,-0.9113,-1.0064,-1.1007,-1.1657,0.0,0.0,-1.2891,-1.2891,-1.2891,-1.2891,-1.2891,-1.3017,-1.3409,-1.4154,-1.4733,0.0,0.0,0.0,0.0,0.0,0.0,0.0,0.0,-1.0347,-1.0688,0.0,-1.0261,0.0,0.0,0.0,0.0,0.0,0.0,0.0,0.0,-1.1344,-1.2202,-1.3595,-1.342,-1.3012,-1.236,-1.3278,-1.2691,-1.0654,-0.9719,0.0,0.0,0.0,0.0,0.0,0.0,-1.4496,-1.5352,-1.6146,-1.6436,-1.5966,-1.512,-1.3913,-1.2307,-1.0657,-0.9469,-0.8858,-0.8791,-0.8823,-0.8964,-0.9447,0.0,0.0,0.0,0.0,0.0,0.0,0.0,0.0,0.0,0.0,0.0,0.0,0.0,0.0,0.0,0.0,0.0,0.0,0.0,0.0,-0.8804,0.0,0.0,0.0,0.0,0.0,0.0,0.0,0.0,0.0,0.0,-0.9651,-0.9814,-0.9821,-0.9829,0.0,0.0,0.0,0.0,-0.8804,-0.8804,-0.8804,-0.8804,-0.8804,-0.8804,-0.8711,-0.843,0.0,0.0,-0.9644,-1.0356,-1.1015,-1.1665,-1.2393,-1.2891,-1.2891,-1.2891,-1.2891,-1.2891,-1.2891,-1.2929,-1.3017,-1.3852,-1.4473,-1.2184,0.0,0.0,0.0,0.0,-1.1583,-1.1737,-1.217,-1.1804,-1.1703,-1.1697,-1.0949,0.0,0.0,0.0,0.0,0.0,0.0,-1.0982,-1.1877,-1.1784,-1.2651,-1.4187,-1.313,-1.3053,-1.3775,-1.2927,-1.2241,-1.1754,-1.0918,-1.0363,-1.019,0.0,0.0,0.0,0.0,-1.3653,-1.456,-1.5436,-1.5313,-1.4294,-1.4362,-1.3243,-1.0808,-1.0343,-0.9825,-0.9118,-0.8724,-0.8816,-0.953,-0.9309,0.0,0.0,0.0,0.0,0.0,0.0,0.0,0.0,0.0,0.0,0.0,0.0,0.0,0.0,0.0,0.0,0.0,0.0,0.0,-0.8804,-0.8804,-0.8804,0.0,0.0,0.0,0.0,0.0,0.0,0.0,0.0,0.0,-0.9106,-1.021,-1.1029,0.0,0.0,-1.0407,-1.0028,-0.9298,-0.8804,-0.8804,0.0,0.0,0.0,-0.8804,-0.8704,-0.8474,-0.8444,-0.8737,-0.942,-1.0248,-1.1015,-1.1665,-1.2393,-1.2891,-1.2891,-1.2891,-1.2891,-1.2891,-1.2891,-1.3065,-1.3447,-1.3609,-1.3649,-1.377,-1.2567,-1.2431,-1.2432,-1.2465,-1.2285,-1.2425,-1.2545,-1.2138,-1.2051,-1.2158,-1.1349,-1.0922,-1.0775,-1.008,0.0,0.0,0.0,-1.1395,-1.2482,-1.2054,-1.2692,-1.4081,-1.3288,-1.3136,-1.3588,-1.2956,-1.248,-1.2237,-1.1655,-1.1206,-1.0958,0.0,0.0,-1.1914,-1.2419,-1.3079,-1.3874,-1.4782,-1.4718,-1.3609,-1.3282,-1.2135,-1.002,-0.9876,-0.961,-0.9065,-0.8731,-0.8714,-0.9041,-0.9082,-0.9275,0.0,0.0,0.0,0.0,0.0,0.0,0.0,0.0,0.0,0.0,0.0,-0.8804,-0.8804,0.0,0.0,0.0,-0.9218,-0.9106,-0.8811,-0.8804,0.0,0.0,0.0,0.0,0.0,0.0,0.0,-0.8804,-0.8804,-0.8771,-0.882,-0.9746,-1.0648,-1.117,-1.0756,-1.034,-1.0242,0.0,-0.8804,-0.8804,-0.8711,-0.8637,-0.8637,-0.853,-0.8397,-0.8223,-0.8297,-0.8664,-0.9294,-0.9942,-1.0704,-1.1616,-1.2138,-1.255,-1.2832,-1.2891,-1.2891,-1.2891,-1.2891,-1.3017,-1.3372,-1.3273,-1.3167,-1.5271,-1.4937,-1.3868,-1.3213,-1.297,-1.2936,-1.2699,-1.2405,-1.1857,-1.2024,-1.2728,-1.1557,-1.1323,-1.171,-1.1008,0.0,0.0,-1.0935,-1.1759,-1.2795,-1.2199,-1.2534,-1.3593,-1.36,-1.3171,-1.2372,-1.3171,-1.3171,-1.2278,-1.2024,-1.175,-1.1443,-1.1262,-1.1158,-1.1197,-1.1925,-1.2663,-1.3353,-1.4284,-1.4408,-1.3551,-1.2116,-1.0799,-0.9711,-0.9395,-0.9092,-0.8791,-0.8744,-0.849,-0.7976,-0.8781,-0.9024,-0.8489,0.0,0.0,0.0,0.0,0.0,0.0,0.0,0.0,0.0,0.0,0.0,0.0,0.0,0.0,0.0,-0.9814,0.0,-0.8857,-0.8804,0.0,0.0,0.0,-0.8804,-0.8804,-0.8804,-0.8804,-0.8804,0.0,0.0,0.0,0.0,-0.935,-1.0551,-1.0167,-0.9821,-0.9851,-0.9285,-0.8804,-0.8804,-0.8584,-0.8417,-0.845,-0.817,-0.7882,-0.7808,-0.8123,-0.851,-0.9144,-0.9695,-1.0343,-1.1458,-1.1814,-1.2061,-1.2725,-1.2832,-1.2861,-1.2754,-1.2822,-1.2871,-1.288,-1.2878,-1.2767,-1.5685,-1.5598,-1.5317,-1.4776,-1.4088,-1.3861,-1.3728,-1.3627,-1.3273,-1.2979,-1.2775,-1.1984,-1.1438,-1.0868,-1.0882,-1.1015,-1.1229,-1.153,-1.1959,-1.2453,-1.231,-1.2384,-1.2666,-1.2659,-1.2512,-1.2298,-1.2519,-1.2519,-1.2298,-1.2231,-1.2051,-1.1764,-1.175,-1.1692,-1.1621,-1.1721,-1.2227,-1.3071,-1.3647,-1.3718,-1.3308,-1.229,-1.0966,-0.9345,-0.9358,-0.909,-0.8528,-0.8257,-0.8076,-0.7888,-0.7908,-0.7875,-0.7743,-0.8165,0.0,0.0,0.0,0.0,0.0,0.0,0.0,0.0,0.0,-0.9008,-0.951,0.0,-1.0012,0.0,-1.0115,-0.951,-0.8857,-0.8804,0.0,0.0,-0.8804,-0.8804,-0.8804,-0.8804,-0.8804,-0.8804,-0.8804,-0.8798,-0.8771,-0.9221,-0.9681,-1.0012,-0.9909,-0.9903,-1.0242,-0.9457,-0.8804,-0.8791,-0.8717,-0.8711,-0.8611,-0.8123,-0.7557,-0.7276,-0.7485,-0.7848,-0.8181,-0.9369,-1.045,-1.0998,-1.194,-1.2493,-1.2394,-1.2646,-1.2598,-1.2145,-1.2402,-1.2783,-1.2461,-1.2157,-1.1834,-1.5825,-1.5825,-1.5825,-1.5471,-1.489,-1.4603,-1.4402,-1.4249,-1.3828,-1.338,-1.2913,-1.2184,-1.174,-1.1343,-1.1369,-1.1543,-1.1817,-1.1984,-1.2144,-1.2305,-1.2305,-1.2305,-1.2305,-1.2305,-1.2305,-1.2305,-1.2305,-1.2305,-1.2305,-1.2305,-1.2218,-1.2058,-1.2064,-1.1963,-1.1602,-1.1439,-1.1632,-1.2277,-1.2601,-1.2631,-1.2334,-1.1791,-1.074,-0.9232,-0.9027,-0.8806,-0.842,-0.8083,-0.7929,-0.7875,-0.7762,-0.7609,-0.7527,-0.7629,-0.7715,0.0,0.0,0.0,0.0,0.0,0.0,0.0,0.0,0.0,0.0,0.0,-1.0728,0.0,-1.0218,0.0,-0.8857,-0.8804,-0.8804,-0.8804,-0.8804,-0.8804,-0.8804,-0.8804,-0.8758,-0.8572,-0.8672,-0.8758,-0.8572,-0.8848,-0.9153,-0.9332,-0.9126,-0.9206,-0.9791,-0.921,-0.8611,-0.8611,-0.8383,-0.8156,-0.8036,-0.7642,-0.7234,-0.7093,-0.728,-0.7574,-0.7702,-0.8565,-0.9412,-0.9914,-1.0962,-1.1882,-1.2056,-1.2567,-1.2578,-1.1795,-1.2044,-1.2373,-1.2021,-1.1582,-1.1182,-1.5825,-1.5825,-1.5825,-1.5685,-1.5431,-1.5144,-1.483,-1.4482,-1.3935,-1.3514,-1.316,-1.2345,-1.2098,-1.2285,-1.2037,-1.2058,-1.2305,-1.2305,-1.2305,-1.2305,-1.2305,-1.2305,-1.2305,-1.2305,-1.2305,-1.2305,-1.2305,-1.2305,-1.2305,-1.2305,-1.2285,-1.2251,-1.2245,-1.1971,-1.1436,-1.1142,-1.1162,-1.1431,-1.1789,-1.1767,-1.1338,-1.1053,-1.0384,-0.9185,-0.8617,-0.8303,-0.8257,-0.8009,-0.7802,-0.7769,-0.7802,-0.7729,-0.7428,-0.7486,-0.7609,0.0,-0.7922,0.0,0.0,0.0,0.0,0.0,0.0,0.0,0.0,-1.1443,-1.1493,-1.072,-1.0167,-0.951,-0.8857,-0.8804,-0.8804,-0.8804,-0.8804,-0.8804,-0.8804,-0.8804,-0.8652,-0.8336,-0.8637,-0.8736,-0.8309,-0.8343,-0.8595,-0.8687,-0.8412,-0.8427,-0.8914,-0.8672,-0.8323,-0.8317,-0.7923,-0.7582,-0.7281,-0.7108,-0.6999,-0.7012,-0.7221,-0.7459,-0.7513,-0.7834,-0.8198,-0.8864,-0.9888,-1.0787,-1.1624,-1.2236,-1.2307,-1.1219,-1.1528,-1.1895,-1.1562,-1.1211,-1.0908,-1.5825,-1.5825,-1.5825,-1.5798,-1.5725,-1.5438,-1.501,-1.4496,-1.4155,-1.3701,-1.3186,-1.2766,-1.2485,-1.2305,-1.2245,-1.2251,-1.2305,-1.2305,-1.2305,-1.2305,-1.2305,-1.2305,-1.2305,-1.2305,-1.2305,-1.2305,-1.2305,-1.2305,-1.2305,-1.2305,-1.2184,-1.1957,-1.1951,-1.177,0.0,0.0,0.0,0.0,-1.2593,-1.2499,-1.1361,-1.127,-1.0436,-0.8965,-0.8317,0.0,-0.7701,-0.7627,-0.7442,-0.7214,-0.7422,0.0,0.0,0.0,0.0,0.0,0.0,0.0,0.0,0.0,0.0,0.0,-1.1216,-1.1616,-1.1616,-1.1742,-1.1301,-1.0115,-0.9865,-0.951,-0.885,-0.8804,-0.8804,-0.8804,-0.8804,-0.8804,-0.8804,-0.8804,-0.8784,-0.8731,-0.9228,-0.9233,-0.8454,-0.9215,-0.9432,-0.8345,-0.8459,-0.8482,-0.7937,-0.7963,-0.8003,-0.7996,-0.7862,-0.7715,-0.7435,-0.7168,-0.6972,-0.6992,-0.7054,-0.7201,-0.7446,-0.798,-0.8415,-0.8791,-0.9898,-1.0597,-1.0524,-1.1213,-1.1602,-1.0633,-1.0838,-1.1133,-1.1055,-1.0967,-1.0801,-1.5825,0.0,-1.5825,-1.5825,0.0,-1.5524,-1.5231,-1.4923,-1.4489,-1.3975,-1.3407,-1.3106,-1.2893,-1.2746,-1.2592,-1.2525,-1.2512,-1.2371,-1.2305,-1.2305,-1.2305,-1.2305,-1.2305,-1.2305,-1.2305,-1.2305,-1.2305,-1.2305,-1.2305,-1.2305,-1.2158,-1.187,-1.187,-1.165,-1.1216,-1.0922,-1.0951,-1.1233,-1.1755,-1.1527,-1.0564,-1.0528,-0.9938,-0.8831,0.0,0.0,0.0,0.0,0.0,0.0,0.0,0.0,0.0,0.0,0.0,-0.7936,-0.821,-0.8504,-0.883,-0.9703,-1.0466,-1.0762,-1.1416,-1.1665,-1.1316,-1.0973,-1.0525,-0.9865,-0.9821,-0.951,-0.891,-0.9113,-0.9152,-0.885,-0.8804,-0.8804,-0.8804,-0.8804,-0.8744,-0.8552,-0.895,-0.9163,-0.8948,-0.886,-0.8812,-0.8228,-0.8013,-0.7877,-0.7571,-0.7595,-0.7655,-0.7483,-0.7669,-0.7642,-0.7321,-0.7134,-0.6972,-0.6972,-0.6972,-0.7038,-0.7221,-0.7544,-0.7773,-0.8026,-0.8912,-0.9491,-0.9249,-1.0159,-1.0937,-1.0226,-1.0454,-1.0811,-1.0664,-1.0605,-1.0547,-1.5872,-1.5825,-1.5825,-1.5825,-1.5805,-1.5571,-1.5444,-1.5357,0.0,0.0,0.0,-1.3394,-1.326,-1.3193,-1.2963,-1.2822,-1.2802,-1.2438,-1.2305,-1.2305,-1.2305,-1.2305,-1.2305,-1.2305,-1.2305,-1.2305,-1.2305,-1.2305,-1.2305,-1.2305,-1.2158,-1.1891,-1.1824,-1.1503,-1.0942,-1.0681,-1.0618,-1.0624,-1.0615,-1.0374,-0.986,-0.9786,-0.9479,-0.8891,-0.8557,-0.835,-0.829,-0.791,-0.7883,-0.8257,-0.811,-0.7935,-0.7895,-0.8163,-0.8216,-0.8043,-0.8243,-0.8504,-0.8784,-0.9413,-1.0064,-1.0568,-1.1116,-1.1216,-1.0669,-1.0115,-0.9762,-0.9614,-0.9614,-0.9413,-0.8857,-0.9263,-0.9413,-0.8857,-0.8804,-0.8804,-0.8804,-0.8751,-0.8592,-0.8413,-0.8747,-0.9034,-0.9263,-0.8707,-0.8055,-0.818,-0.7681,-0.7141,-0.7335,-0.7426,-0.7315,-0.7154,-0.7315,-0.7375,-0.7121,-0.6985,-0.6972,-0.6972,-0.6972,-0.6972,-0.6972,-0.6972,-0.6972,-0.7103,-0.7838,-0.8295,-0.8135,-0.9469,-1.038,-0.9793,-1.0236,-1.0693,-1.043,-1.0322,-1.0332,-1.6059,-1.5825,-1.5825,-1.5825,-1.5825,-1.5785,-1.5625,-1.5351,-1.4776,-1.4195,-1.3566,-1.3519,-1.344,-1.32,-1.2886,-1.2822,-1.2802,-1.2432,-1.2305,0.0,-1.2305,-1.2305,-1.2305,-1.2305,-1.2305,-1.2305,-1.2305,-1.2305,-1.2305,-1.2305,-1.2158,-1.187,-1.1617,-1.1202,-1.0732,-1.0645,-1.0618,-1.0624,-1.0808,-1.0775,-1.051,-1.0187,-0.9714,-0.9137,-0.8657,-0.825,-0.7955,-0.815,-0.817,-0.8009,-0.8196,-0.8196,-0.7908,-0.7941,-0.809,-0.829,-0.835,-0.8504,-0.8784,-0.9406,-0.9865,-0.9909,-1.0012,-1.0064,-0.9961,-0.9865,-0.9562,-0.9008,-0.9015,-0.8903,-0.8811,-0.891,-0.8956,-0.8804,-0.8804,-0.8804,-0.8791,-0.8597,-0.8517,-0.8664,-0.9177,-0.9175,-0.8805,-0.9193,-0.9152,-0.8235,-0.7655,-0.7328,-0.7174,-0.7088,-0.7074,-0.6992,-0.7061,-0.7074,-0.6992,-0.6972,-0.6972,-0.6972,-0.6972,-0.6972,-0.6972,-0.6972,-0.6972,-0.6972,-0.7832,-0.8289,-0.7995,-0.922,-0.999,-0.9977,-1.0232,-1.0332,-1.0293,-1.0322,-1.0322,-1.6192,-1.6052,-1.5899,-1.5825,-1.5825,-1.5825,-1.5665,-1.5384,-1.5117,-1.4669,-1.4122,-1.3955,-1.3721,-1.3427,-1.3133,-1.2906,-1.2808,-1.2438,-1.2305,-1.2305,-1.2305,-1.2305,-1.2305,-1.2305,-1.2225,-1.2091,-1.2231,-1.2218,-1.2091,-1.2218,-1.2151,-1.1864,-1.1577,-1.1289,-1.1042,-1.0875,-1.086,-1.0795,-1.0775,-1.0615,-1.0321,-1.0033,-0.9673,-0.919,-0.8824,-0.855,-0.841,-0.8383,-0.8383,-0.841,-0.839,-0.831,-0.8183,-0.8323,-0.8397,-0.8383,-0.8524,-0.8664,-0.8798,-0.9413,-0.9614,-0.9309,-0.9614,-0.9666,-0.9316,-0.9263,-0.9465,-0.9814,-0.9562,-0.9361,-0.9309,-0.9361,-0.9211,-0.8811,-0.9113,-0.9238,-0.9052,-0.8762,-0.8619,-0.8535,-0.8912,-0.9038,-0.8673,-0.9085,-0.9202,-0.827,-0.7829,-0.7466,-0.7268,-0.7114,-0.6972,-0.6972,-0.6972,-0.6979,-0.6972,-0.6972,-0.6972,-0.6972,-0.6972,-0.6972,-0.6972,-0.6972,-0.6972,-0.7021,-0.7482,-0.7648,-0.744,-0.8226,-0.8984,-0.9444,-0.9723,-0.9883,-1.0205,-1.0322,-1.0322,-1.6293,-1.6146,-1.5925,-1.5825,-1.5825,-1.5825,-1.5698,-1.5498,-1.5431,-1.5137,-1.4703,-1.4342,-1.4021,-1.3721,-1.3373,-1.308,-1.2826,-1.2472,-1.2305,-1.2305,-1.2305,-1.2305,-1.2305,-1.2305,-1.2184,-1.2011,-1.2198,-1.2191,-1.2017,-1.2198,-1.2158,-1.187,-1.1637,-1.149,-1.1416,-1.1202,-1.1062,-1.0989,-1.0828,-1.0581,-1.0221,-0.9873,-0.9573,-0.9339,-0.8991,-0.8804,-0.8791,-0.8591,-0.8577,-0.8778,-0.8591,-0.8521,-0.8477,-0.8684,-0.8704,-0.8524,-0.8677,-0.8804,-0.8804,-0.9263,-0.9361,-0.8857,-0.9263,-0.9413,-0.9061,-0.8857,-0.9211,-1.0115,-0.9814,-0.9517,-0.951,-0.951,-0.9368,-0.891,-0.9413,-0.9621,-0.9357,-0.909,-0.8809,-0.8567,-0.8545,-0.8581,-0.8666,-0.8665,-0.8573,-0.8255,-0.7856,-0.7562,-0.7388,-0.7161,-0.6992,-0.6972,-0.6972,-0.6972,-0.6972,-0.6972,-0.6972,-0.6972,-0.6972,-0.6972,-0.6972,-0.6972,-0.6972,-0.7021,-0.7147,-0.7189,-0.7072,-0.7653,-0.822,-0.8648,-0.9103,-0.9686,-1.0205,-1.0322,-1.0322,-1.6359,-1.5905,-1.5852,-1.5825,-1.5825,-1.5825,-1.5805,-1.5752,-1.5518,-1.5378,-1.5217,-1.473,-1.4315,-1.3995,-1.3467,-1.32,-1.3113,-1.2565,-1.2318,-1.2311,-1.2305,-1.2305,-1.2305,-1.2305,-1.2285,-1.2251,-1.2285,-1.2271,-1.2211,-1.2278,-1.2158,-1.1897,-1.1837,-1.1703,-1.1463,-1.1403,-1.1263,-1.1002,-1.1223,-1.1076,-1.0584,-1.0033,-0.9673,-0.9639,-0.9105,-0.8804,-0.8824,-0.8784,-0.8778,-0.8804,-0.8778,-0.8764,-0.8764,-0.8798,-0.8791,-0.8764,-0.8791,-0.8804,-0.8804,-0.8857,-0.891,-0.8804,-0.8857,-0.9166,-0.9562,-0.9113,-0.8811,-0.9008,-0.8962,-0.8956,-0.891,-0.891,-0.891,-0.8857,-0.9465,-0.9791,-0.9665,-0.953,-0.9343,-0.9328,-0.8352,-0.7891,-0.835,-0.8373,-0.8216,-0.811,-0.7963,-0.7709,-0.7348,-0.7141,-0.7068,-0.7041,-0.6985,-0.6985,-0.6979,-0.6972,-0.6972,-0.6972,-0.6972,-0.6972,-0.6972,-0.6959,-0.6965,-0.6975,-0.7286,-0.7311,-0.7164,-0.7616,-0.8375,-0.8409,-0.8933,-0.9637,-1.0166,-1.0244,-1.0244,-1.6627,-1.6099,-1.6092,-1.5985,-1.5838,-1.5825,-1.5825,-1.5812,-1.5705,-1.5464,-1.5137,-1.4883,-1.4522,-1.4068,-1.3654,-1.338,-1.318,-1.2759,-1.264,-1.2545,-1.2392,-1.2305,-1.2305,-1.2305,-1.2218,-1.2078,-1.2218,-1.2211,-1.2104,-1.2218,-1.2238,-1.2138,-1.2124,-1.2058,-1.1937,-1.1777,-1.1543,-1.1263,-1.1363,-1.1142,-1.0678,-1.0334,-1.0114,-0.992,-0.9539,-0.9232,-0.903,-0.9058,-0.8985,-0.8824,-0.8804,-0.8804,-0.8804,-0.8804,-0.8804,-0.8804,-0.8804,-0.8804,-0.8804,-0.8804,-0.8804,-0.8804,-0.8804,-0.8956,-0.9159,-0.8962,-0.8804,-0.8804,-0.8804,-0.891,-0.9263,-0.9061,-0.8804,-0.8903,-0.9762,-1.014,-0.9494,-0.9934,-0.9982,-0.9119,-0.816,-0.7775,-0.8267,-0.8466,-0.8506,-0.836,-0.8134,-0.7802,-0.7769,-0.7528,-0.7301,-0.7281,-0.7137,-0.7002,-0.6976,-0.6972,-0.6972,-0.6972,-0.6972,-0.6972,-0.6959,-0.6847,-0.6767,-0.6774,-0.6913,-0.6905,-0.6474,-0.6905,-0.7544,-0.7982,-0.8841,-0.9558,-0.9804,-0.9804,-0.9922,-1.6687,-1.6192,-1.6152,-1.6032,-1.5832,-1.5825,-1.5825,-1.5825,-1.5825,-1.5551,-1.5097,-1.5003,-1.4683,-1.4202,-1.3814,-1.3439,-1.3307,-1.3013,-1.295,-1.2846,-1.2645,-1.2512,-1.2432,-1.2425,-1.2271,-1.2058,-1.2198,-1.2198,-1.2024,-1.2184,-1.2305,-1.2305,-1.2305,-1.2305,-1.2278,-1.2084,-1.1837,-1.1583,-1.1617,-1.1383,-1.0889,-1.0802,-1.0581,-1.0147,-0.9833,-0.9579,-0.9372,-0.923,-0.9145,-0.8938,-0.8851,-0.8804,-0.8804,-0.8804,-0.8804,-0.8804,-0.8804,-0.8804,-0.8804,-0.8804,-0.8804,-0.8804,-0.8804,-0.8804,-0.8804,-0.8804,-0.8804,-0.8804,-0.8804,-0.9008,-0.9361,-0.9106,-0.8804,-0.8857,-0.9865,-1.0152,-0.9522,-1.0144,-1.0084,-0.9033,-0.8352,-0.7957,-0.835,-0.8597,-0.8744,-0.8604,-0.8194,-0.7882,-0.8049,-0.7715,-0.7435,-0.7198,-0.7065,-0.7089,-0.7038,-0.6972,-0.6972,-0.6972,-0.6972,-0.6972,-0.6972,-0.682,-0.6633,-0.6707,-0.642,-0.6206,-0.6162,-0.6392,-0.6932,-0.7913,-0.8762,-0.939,-0.9558,-0.9597,-0.9883,-1.638,-1.5899,-1.5852,-1.5852,-1.5825,-1.5825,-1.5825,-1.5825,-1.5825,-1.5651,-1.5337,-1.5097,-1.4796,-1.4456,-1.3935,-1.3566,-1.3587,-1.332,-1.3186,-1.318,-1.3146,-1.2999,-1.2815,-1.2795,-1.2565,-1.2265,-1.2278,-1.2291,-1.2265,-1.2291,-1.2305,-1.2305,-1.2305,-1.2305,-1.2298,-1.2271,-1.2131,-1.187,-1.2064,-1.1951,-1.1436,-1.1363,-1.0955,-1.0227,-0.9853,-0.9713,-0.9639,-0.9392,-0.9176,-0.9163,-0.8945,-0.8804,-0.8804,-0.8804,-0.8804,-0.8804,-0.8804,-0.8804,-0.8804,-0.8804,-0.8804,-0.8804,-0.8804,-0.8804,-0.8804,-0.8804,-0.8804,-0.8804,-0.8804,-0.8857,-0.891,-0.885,-0.8804,-0.8857,-0.9413,-0.9791,-0.9732,-0.9769,-0.9715,-0.9274,-0.8693,-0.8317,-0.8434,-0.8624,-0.8664,-0.8477,-0.815,-0.7909,-0.7722,-0.7607,-0.7179,-0.6768,-0.6887,-0.7368,-0.7052,-0.6972,-0.6972,-0.6972,-0.6972,-0.6972,-0.6972,-0.6932,-0.6814,-0.6667,-0.6513,-0.6293,-0.6012,-0.6256,-0.6929,-0.7752,-0.8591,-0.911,-0.9279,-0.9883,-1.0127,-1.6647,-1.6099,-1.5905,-1.5825,-1.5825,-1.5825,-1.5825,-1.5825,-1.5825,-1.5665,-1.5411,-1.5284,-1.4977,-1.4509,-1.4302,-1.4102,-1.3915,-1.3621,-1.3487,-1.3467,-1.33,-1.3046,-1.2849,-1.2822,-1.2592,-1.2338,-1.2305,-1.2305,-1.2305,-1.2305,-1.2305,-1.2305,-1.2305,-1.2305,-1.2305,-1.2305,-1.2158,-1.1937,-1.2151,-1.2017,-1.1496,-1.143,-1.1176,-1.0701,-1.0394,-1.0154,-0.996,-0.9679,-0.9439,-0.919,-0.8911,-0.8804,-0.8804,-0.8804,-0.8804,-0.8804,-0.8804,-0.8804,-0.8804,-0.8804,-0.8804,-0.8804,-0.8804,-0.8804,-0.8804,-0.8804,-0.8804,-0.8804,-0.8804,-0.8804,-0.8804,-0.8804,-0.8804,-0.8857,-0.9361,-0.9614,-0.9361,-0.9503,-0.9541,-0.8934,-0.852,-0.8427,-0.8444,-0.8624,-0.8758,-0.8651,-0.8397,-0.817,-0.7995,-0.7646,-0.7071,-0.6648,-0.6672,-0.6763,-0.652,-0.681,-0.6972,-0.6972,-0.6972,-0.6972,-0.6972,-0.6867,-0.67,-0.662,-0.652,-0.6411,-0.6122,-0.65,-0.7119,-0.7334,-0.817,-0.8878,-0.8918,-0.9518,-0.9883,-1.6493,-1.6126,-1.5912,-1.5825,-1.5825,-1.5825,-1.5825,-1.5825,-1.5825,-1.5611,-1.5324,-1.5351,-1.507,-1.4583,-1.4516,-1.4422,-1.4208,-1.3921,-1.3788,-1.3768,-1.3581,-1.328,-1.2946,-1.2899,-1.2685,-1.2358,-1.2305,-1.2305,-1.2305,-1.2305,-1.2305,-1.2305,-1.2305,-1.2305,-1.2305,-1.2305,-1.2198,-1.2078,-1.2204,-1.2091,-1.173,-1.1516,-1.1343,-1.1109,-1.0826,-1.0474,-1.0261,-0.9973,-0.9686,-0.9392,-0.905,-0.8905,-0.8824,-0.8804,-0.8804,-0.8804,-0.8804,-0.8804,-0.8804,-0.8804,-0.8804,-0.8804,-0.8804,-0.8804,-0.8804,-0.8804,-0.8804,-0.8804,-0.8804,-0.8804,-0.8804,-0.8804,-0.8804,-0.8857,-0.9211,-0.9316,-0.891,-0.9211,-0.912,-0.8724,-0.8588,-0.8524,-0.8537,-0.8684,-0.8784,-0.8804,-0.8557,-0.8363,-0.8174,-0.7772,-0.7001,-0.6384,-0.6633,-0.6517,-0.631,-0.6477,-0.6907,-0.6992,-0.6972,-0.6972,-0.6945,-0.6807,-0.668,-0.6587,-0.6512,-0.6377,-0.6484,-0.6838,-0.6992,-0.7037,-0.7807,-0.8675,-0.8878,-0.9119,-0.9637,-1.5858,-1.5852,-1.5825,-1.5825,-1.5825,-1.5825,-1.5825,-1.5825,-1.5825,-1.5551,-1.5197,-1.5311,-1.5137,-1.4649,-1.4589,-1.4536,-1.4476,-1.4222,-1.4068,-1.4035,-1.4028,-1.3721,-1.3227,-1.3206,-1.2899,-1.2358,-1.2311,-1.2305,-1.2305,-1.2305,-1.2305,-1.2305,-1.2305,-1.2305,-1.2305,-1.2305,-1.2298,-1.2278,-1.2291,-1.2278,-1.2231,-1.1737,-1.1456,-1.1369,-1.0895,-1.0651,-1.0555,-1.0261,-0.9947,-0.9659,-0.9372,-0.9044,-0.8851,-0.8804,-0.8804,-0.8804,-0.8804,-0.8804,-0.8804,-0.8804,-0.8804,-0.8804,-0.8804,-0.8804,-0.8804,-0.8804,-0.8804,-0.8804,-0.8804,-0.8804,-0.8804,-0.8804,-0.8804,-0.8804,-0.8903,-0.8857,-0.8811,-0.8811,-0.8804,-0.8778,-0.8764,-0.8798,-0.8798,-0.8791,-0.8804,-0.8758,-0.8597,-0.831,-0.8034,-0.7798,-0.7087,-0.613,-0.6108,-0.6321,-0.6205,-0.6184,-0.666,-0.7005,-0.6985,-0.6972,-0.6972,-0.6907,-0.6834,-0.6747,-0.6707,-0.6619,-0.6592,-0.6866,-0.6915,-0.7079,-0.7893,-0.8521,-0.8797,-0.9119,-0.9765,-1.5825,-1.5825,-1.5825,-1.5825,-1.5825,-1.5825,-1.5825,-1.5825,-1.5825,-1.5725,-1.5598,-1.5651,-1.5484,-1.5137,-1.493,-1.483,-1.4803,-1.4522,-1.4282,-1.4122,-1.4095,-1.3888,-1.3567,-1.35,-1.3186,-1.2659,-1.2392,-1.2305,-1.2311,-1.2318,-1.2305,-1.2305,-1.2311,-1.2305,-1.2318,-1.2305,-1.2305,-1.2305,-1.2305,-1.2305,-1.2278,-1.1931,-1.173,-1.167,-1.1162,-1.0862,-1.0835,-1.0381,-0.9993,-0.9699,-0.9399,-0.905,-0.8871,-0.8804,-0.8804,-0.8804,-0.8804,-0.8804,-0.8804,-0.8804,-0.8804,-0.8804,-0.8804,-0.8804,-0.8804,-0.8804,-0.8804,-0.8804,-0.8804,-0.8804,-0.8804,-0.8804,-0.8804,-0.8804,-0.8804,-0.8804,-0.8804,-0.8804,-0.8804,-0.8804,-0.8804,-0.8804,-0.8804,-0.8804,-0.8804,-0.8804,-0.8704,-0.8477,-0.8034,-0.7772,-0.7056,-0.5781,-0.6005,-0.6173,-0.6012,-0.6293,-0.6953,-0.7159,-0.7102,-0.7012,-0.6992,-0.6965,-0.6941,-0.6901,-0.6867,-0.684,-0.682,-0.6847,-0.6914,-0.712,-0.7716,-0.8185,-0.8635,-0.9239,-0.9922,-1.5825,-1.5825,-1.5825,-1.5825,-1.5825,-1.5825,-1.5825,-1.5825,-1.5825,-1.5772,-1.5698,-1.5785,-1.5671,-1.5404,-1.5204,-1.513,-1.5097,-1.4816,-1.4529,-1.4282,-1.4249,-1.4035,-1.3674,-1.352,-1.332,-1.2966,-1.2732,-1.2579,-1.2472,-1.2579,-1.2532,-1.2351,-1.2412,-1.2472,-1.2452,-1.2358,-1.2338,-1.2432,-1.2358,-1.2305,-1.2251,-1.2024,-1.187,-1.1854,-1.1296,-1.1022,-1.0962,-1.0528,-1.0094,-0.9693,-0.9299,-0.8991,-0.8818,-0.8804,-0.8804,-0.8804,-0.8804,-0.8804,-0.8804,-0.8804,-0.8804,-0.8804,-0.8804,-0.8804,-0.8804,-0.8804,-0.8804,-0.8804,-0.8804,-0.8804,-0.8804,-0.8804,-0.8804,-0.8804,-0.8804,-0.8804,-0.8804,-0.8804,-0.8804,-0.8804,-0.8804,-0.8804,-0.8804,-0.8804,-0.8804,-0.8798,-0.8704,-0.8504,-0.8012,-0.7785,-0.683,-0.6254,-0.6378,-0.6293,-0.581,-0.6368,-0.7272,-0.7332,-0.7224,-0.7115,-0.7068,-0.6992,-0.6981,-0.6974,-0.6947,-0.6941,-0.6927,-0.6947,-0.6994,-0.7314,-0.7572,-0.8226,-0.8837,-0.9478,-1.0049,-1.5825,-1.5825,-1.5825,-1.5825,-1.5825,-1.5825,-1.5825,-1.5825,-1.5825,-1.5698,-1.5558,-1.5732,-1.5685,-1.5471,-1.5384,-1.5371,-1.5364,-1.5117,-1.483,-1.4629,-1.4549,-1.4315,-1.3754,-1.3467,-1.33,-1.324,-1.3173,-1.3019,-1.2876,-1.2993,-1.2926,-1.2492,-1.2672,-1.2849,-1.2726,-1.2485,-1.2498,-1.2705,-1.2498,-1.2365,-1.2345,-1.2111,-1.1937,-1.1911,-1.141,-1.1096,-1.1015,-1.0661,-1.0227,-0.9706,-0.9152,-0.8838,-0.8811,-0.8804,-0.8804,-0.8804,-0.8804,-0.8804,-0.8804,-0.8804,-0.8804,-0.8804,-0.8804,-0.8804,-0.8804,-0.8804,-0.8804,-0.8804,-0.8804,-0.8804,-0.8804,-0.8804,-0.8804,-0.8804,-0.8804,-0.8804,-0.8804,-0.8804,-0.8804,-0.8804,-0.8804,-0.8804,-0.8804,-0.8804,-0.8804,-0.8758,-0.8577,-0.829,-0.8028,-0.7739,-0.7346,-0.7067,-0.6884,-0.6713,-0.6336,-0.6985,-0.7779,-0.7407,-0.7404,-0.7457,-0.7181,-0.7081,-0.6979,-0.6972,-0.6972,-0.6972,-0.6972,-0.6972,-0.6972,-0.7105,-0.7599,-0.8382,-0.8999,-0.9558,-1.0049,-1.5825,-1.5825,-1.5825,-1.5825,-1.5825,-1.5825,-1.5825,-1.5825,-1.5825,-1.5778,-1.5738,-1.5792,-1.5778,-1.5691,-1.5491,-1.5504,-1.5591,-1.5411,-1.5124,-1.4923,-1.5084,-1.4689,-1.4048,-1.3674,-1.3527,-1.3507,-1.3353,-1.3166,-1.31,-1.3206,-1.3133,-1.2986,-1.3026,-1.3086,-1.3046,-1.2786,-1.2806,-1.3006,-1.2786,-1.2701,-1.2605,-1.2545,-1.2398,-1.2164,-1.181,-1.1516,-1.1263,-1.0608,-1.0074,-0.9693,-0.9125,-0.8811,-0.8811,-0.8804,-0.8804,-0.8804,-0.8804,-0.8804,-0.8804,-0.8804,-0.8804,-0.8804,-0.8804,-0.8804,-0.8804,-0.8804,-0.8804,-0.8804,-0.8804,-0.8804,-0.8804,-0.8804,-0.8804,-0.8804,-0.8804,-0.8804,-0.8804,-0.8804,-0.8804,-0.8804,-0.8804,-0.8804,-0.8804,-0.8804,-0.8798,-0.8738,-0.8524,-0.8263,-0.7995,-0.7995,-0.7713,-0.7424,-0.7217,-0.7179,-0.7256,-0.7832,-0.8075,-0.7627,-0.7609,-0.7903,-0.7508,-0.7161,-0.7081,-0.6972,-0.6972,-0.6972,-0.6972,-0.6972,-0.6972,-0.6972,-0.7724,-0.8513,-0.895,-0.9439,-0.9961,-1.5825,-1.5825,-1.5825,-1.5825,-1.5825,-1.5825,-1.5825,-1.5825,-1.5825,-1.5825,-1.5825,-1.5825,-1.5825,-1.5805,-1.5658,-1.5671,-1.5792,-1.5658,-1.5351,-1.497,-1.485,-1.4589,-1.4235,-1.3975,-1.3828,-1.3814,-1.3661,-1.352,-1.344,-1.3514,-1.3454,-1.326,-1.334,-1.3394,-1.3367,-1.3113,-1.3086,-1.328,-1.3093,-1.297,-1.2835,-1.2822,-1.2579,-1.2305,-1.2017,-1.1697,-1.1223,-1.0628,-1.0074,-0.9573,-0.9165,-0.8938,-0.8818,-0.8804,-0.8804,-0.8804,-0.8804,-0.8804,-0.8804,-0.8804,-0.8804,-0.8804,-0.8804,-0.8804,-0.8804,-0.8804,-0.8804,-0.8804,-0.8804,-0.8804,-0.8804,-0.8804,-0.8804,-0.8804,-0.8804,-0.8804,-0.8804,-0.8804,-0.8804,-0.8804,-0.8804,-0.8804,-0.8804,-0.8804,-0.8744,-0.8604,-0.8337,-0.8136,-0.7935,-0.811,-0.8121,-0.7766,-0.7758,-0.7828,-0.7743,-0.8177,-0.8338,-0.7908,-0.7797,-0.809,-0.7756,-0.7308,-0.7141,-0.7025,-0.6999,-0.6985,-0.7054,-0.7054,-0.6972,-0.7224,-0.7972,-0.8349,-0.8635,-0.9191,-0.9716,-1.5825,-1.5825,-1.5825,-1.5825,-1.5825,-1.5825,-1.5825,-1.5825,-1.5825,-1.5825,-1.5825,-1.5825,-1.5825,-1.5825,-1.5785,-1.5818,-1.5825,-1.5798,-1.5531,-1.5084,-1.4703,-1.4422,-1.4629,-1.4215,-1.4095,-1.4095,-1.4108,-1.3915,-1.3781,-1.3941,-1.3794,-1.3534,-1.3607,-1.3681,-1.3634,-1.34,-1.3427,-1.3587,-1.34,-1.316,-1.2966,-1.2879,-1.2705,-1.2412,-1.2037,-1.1637,-1.1176,-1.0728,-1.0241,-0.9329,-0.923,-0.9078,-0.8858,-0.8804,-0.8804,-0.8804,-0.8804,-0.8804,-0.8804,-0.8804,-0.8804,-0.8804,-0.8804,-0.8804,-0.8804,-0.8804,-0.8804,-0.8804,-0.8804,-0.8804,-0.8804,-0.8804,-0.8804,-0.8804,-0.8804,-0.8804,-0.8804,-0.8804,-0.8804,-0.8804,-0.8804,-0.8804,-0.8804,-0.8784,-0.8711,-0.8517,-0.827,-0.8143,-0.8049,-0.811,-0.8143,-0.8054,-0.8217,-0.854,-0.8436,-0.8378,-0.841,-0.8279,-0.8086,-0.8096,-0.7862,-0.7515,-0.7275,-0.7105,-0.7111,-0.7154,-0.7154,-0.7121,-0.7005,-0.7189,-0.769,-0.787,-0.8044,-0.8797,-0.9399,-1.5825,-1.5825,-1.5825,-1.5825,-1.5825,-1.5825,-1.5825,-1.5825,-1.5825,-1.5825,-1.5825,-1.5825,-1.5825,-1.5825,-1.5825,-1.5825,-1.5818,-1.5805,-1.5738,-1.5611,-1.5044,-1.4963,-1.4983,-1.4502,-1.4249,-1.4309,-1.4182,-1.4055,-1.4028,-1.4035,-1.4035,-1.3921,-1.3881,-1.3988,-1.3928,-1.3707,-1.3694,-1.3888,-1.3694,-1.3514,-1.338,-1.3186,-1.2953,-1.2701,-1.2151,-1.1717,-1.1369,-1.1056,-1.0588,-1.0,-0.9455,-0.9068,-0.8804,-0.8778,-0.8718,-0.8699,-0.8752,-0.8752,-0.8804,-0.8804,-0.8804,-0.8804,-0.8804,-0.8804,-0.8804,-0.8804,-0.8804,-0.8804,-0.8804,-0.8804,-0.8804,-0.8804,-0.8804,-0.8804,-0.8804,-0.8804,-0.8804,-0.8804,-0.8804,-0.8804,-0.8804,-0.8804,-0.8804,-0.8804,-0.8671,-0.8481,-0.8283,-0.817,-0.815,-0.8156,-0.8105,-0.8095,-0.8146,-0.8311,-0.7929,-0.7911,-0.8,-0.8143,-0.8127,-0.8297,-0.8056,-0.7776,-0.751,-0.735,-0.7244,-0.7224,-0.7035,-0.7029,-0.6852,-0.7154,-0.7405,-0.7579,-0.7912,-0.8553,-0.8999,-1.5825,-1.5825,-1.5825,-1.5825,-1.5825,-1.5825,-1.5825,-1.5825,-1.5825,-1.5825,-1.5825,-1.5825,-1.5825,-1.5825,-1.5825,-1.5825,-1.5745,-1.5538,-1.5578,-1.5571,-1.5144,-1.507,-1.5398,-1.4903,-1.4536,-1.4543,-1.4536,-1.4376,-1.4188,-1.4208,-1.4222,-1.4095,-1.4095,-1.4068,-1.4088,-1.3928,-1.3928,-1.4021,-1.3941,-1.3794,-1.3546,-1.35,-1.3166,-1.2856,-1.2298,-1.1884,-1.1443,-1.1289,-1.0542,-0.9729,-0.9204,-0.8858,-0.8587,-0.8511,-0.8454,-0.834,-0.8262,-0.8487,-0.8646,-0.8804,-0.8804,-0.8804,-0.8804,-0.8804,-0.8804,-0.8804,-0.8804,-0.8804,-0.8804,-0.8804,-0.8804,-0.8804,-0.8804,-0.8804,-0.8804,-0.8804,-0.8804,-0.8804,-0.8804,-0.8804,-0.8804,-0.8804,-0.8804,-0.8804,-0.8657,-0.8424,-0.839,-0.8283,-0.8277,-0.8254,-0.8126,-0.805,-0.7979,-0.7824,-0.7337,-0.7278,-0.7433,-0.7646,-0.7868,-0.821,-0.8433,-0.8078,-0.7775,-0.7537,-0.7231,-0.6868,-0.6706,-0.671,-0.6816,-0.7021,-0.7231,-0.7405,-0.7655,-0.8062,-0.8513,-1.5825,-1.5825,-1.5825,-1.5825,-1.5825,-1.5825,-1.5825,-1.5825,-1.5825,-1.5825,-1.5825,-1.5825,-1.5825,-1.5818,-1.5758,-1.5745,-1.5571,-1.5378,-1.5391,-1.5571,-1.5104,-1.5217,-1.5518,-1.5257,-1.4897,-1.4696,-1.4796,-1.4643,-1.4436,-1.4436,-1.4496,-1.4275,-1.4168,-1.4202,-1.4175,-1.4095,-1.4062,-1.4075,-1.4055,-1.3961,-1.3754,-1.3647,-1.3313,-1.2799,-1.2432,-1.2037,-1.165,-1.1381,-1.0708,-0.9113,-0.8918,-0.8578,-0.8057,-0.7993,-0.8029,-0.7734,-0.7818,-0.8156,-0.8646,-0.8804,-0.8804,-0.8804,-0.8804,-0.8804,-0.8804,-0.8804,-0.8804,-0.8804,-0.8804,-0.8804,-0.8804,-0.8804,-0.8804,-0.8804,-0.8804,-0.8804,-0.8804,-0.8804,-0.8804,-0.8804,-0.8804,-0.8804,-0.8804,-0.8798,-0.8611,-0.847,-0.8444,-0.836,-0.8296,-0.8197,-0.7951,-0.7763,-0.7646,-0.7473,-0.7041,-0.6416,-0.6578,-0.6758,-0.7158,-0.7858,-0.8279,-0.8012,-0.7578,-0.7386,-0.7086,-0.6759,-0.6594,-0.6631,-0.6751,-0.6901,-0.7063,-0.7189,-0.7363,-0.753,-0.8062,-1.5825,-1.5825,-1.5825,-1.5825,-1.5825,-1.5825,-1.5825,-1.5825,-1.5825,-1.5825,-1.5825,-1.5825,-1.5825,-1.5778,-1.5558,-1.5357,-1.5231,-1.5211,-1.5357,-1.5498,-1.5244,-1.5478,-1.5651,-1.5504,-1.5291,-1.5204,-1.513,-1.4937,-1.481,-1.4863,-1.4823,-1.4756,-1.4536,-1.4422,-1.4342,-1.4229,-1.4088,-1.4088,-1.4088,-1.4035,-1.3948,-1.3694,-1.3367,-1.2882,-1.2485,-1.2131,-1.1877,-1.1757,-1.1145,-0.9729,-0.9598,-0.8447,-0.7363,-0.7076,-0.7316,-0.765,-0.7709,-0.7996,-0.8639,-0.8804,-0.8804,-0.8804,-0.8804,-0.8804,-0.8804,-0.8804,-0.8804,-0.8804,-0.8804,-0.8804,-0.8804,-0.8804,-0.8804,-0.8804,-0.8804,-0.8804,-0.8804,-0.8804,-0.8804,-0.8804,-0.8804,-0.8804,-0.8804,-0.8791,-0.8677,-0.8597,-0.8597,-0.8223,-0.7858,-0.7737,-0.7547,-0.7379,-0.7198,-0.7003,-0.6742,-0.6046,-0.5697,-0.5707,-0.6163,-0.7125,-0.746,-0.751,-0.7348,-0.7492,-0.7317,-0.6968,-0.6812,-0.6606,-0.6757,-0.6937,-0.6979,-0.6972,-0.7189,-0.7447,-0.8028,-1.5825,-1.5825,-1.5825,-1.5825,-1.5825,-1.5825,-1.5825,-1.5825,-1.5825,-1.5825,-1.5825,-1.5825,-1.5825,-1.5752,-1.5524,-1.5237,-1.5104,-1.5264,-1.5384,-1.5398,-1.5411,-1.5551,-1.5792,-1.5658,-1.5638,-1.5585,-1.5471,-1.5211,-1.5003,-1.5124,-1.5104,-1.4903,-1.4663,-1.4516,-1.4449,-1.4235,-1.4115,-1.4088,-1.4088,-1.4088,-1.4035,-1.3681,-1.324,-1.2979,-1.2532,-1.2171,-1.1859,-1.128,-1.0514,-0.9273,-0.8555,-0.7712,-0.6979,-0.6616,-0.6736,-0.7295,-0.7592,-0.8049,-0.8639,-0.8804,-0.8804,-0.8804,-0.8804,-0.8804,-0.8804,-0.8804,-0.8804,-0.8804,-0.8804,-0.8804,-0.8804,-0.8804,-0.8804,-0.8804,-0.8804,-0.8804,-0.8804,-0.8804,-0.8804,-0.8804,-0.8804,-0.8804,-0.8804,-0.8778,-0.8731,-0.8724,-0.8738,-0.8195,-0.7524,-0.7336,-0.7235,-0.648,-0.6273,-0.6009,-0.5905,-0.5508,-0.516,-0.512,-0.5313,-0.6275,-0.7072,-0.7274,-0.775,-0.8097,-0.7736,-0.7178,-0.6472,-0.6067,-0.652,-0.6937,-0.6979,-0.7021,-0.7147,-0.7447,-0.807,-1.5825,-1.5825,-1.5825,-1.5825,-1.5825,-1.5825,-1.5825,-1.5825,-1.5825,-1.5825,-1.5825,-1.5825,-1.5825,-1.5765,-1.5578,-1.5311,-1.5023,-1.5264,-1.5384,-1.5398,-1.5404,-1.5551,-1.5752,-1.5772,-1.5725,-1.5765,-1.5651,-1.5538,-1.5324,-1.5384,-1.5331,-1.519,-1.4863,-1.4643,-1.4589,-1.4369,-1.4208,-1.4088,-1.4088,-1.4088,-1.3948,-1.354,-1.3206,-1.3153,-1.2625,-1.2118,-1.1571,-1.1033,-0.9874,-0.8634,-0.7669,-0.6975,-0.6857,-0.6476,-0.6584,-0.7141,-0.756,-0.808,-0.8586,-0.8804,-0.8804,-0.8804,-0.8804,-0.8804,-0.8804,-0.8804,-0.8804,-0.8804,-0.8804,-0.8804,-0.8804,-0.8804,-0.8804,-0.8804,-0.8804,-0.8804,-0.8804,-0.8804,-0.8804,-0.8804,-0.8804,-0.8804,-0.8804,-0.8804,-0.8764,-0.8758,-0.8718,-0.8025,-0.7471,-0.7222,-0.6853,-0.5714,-0.5117,-0.4901,-0.4849,-0.4959,-0.4783,-0.4933,-0.5085,-0.5679,-0.6553,-0.7309,-0.7715,-0.8069,-0.7915,-0.7304,-0.6416,-0.5933,-0.6556,-0.6937,-0.6972,-0.7021,-0.7105,-0.7607,-0.8308,-1.5825,-1.5825,-1.5825,-1.5825,-1.5825,-1.5825,-1.5825,-1.5825,-1.5825,-1.5825,-1.5825,-1.5825,-1.5825,-1.5785,-1.5785,-1.5451,-1.519,-1.5291,-1.5424,-1.5404,-1.5431,-1.5578,-1.5752,-1.5545,-1.5678,-1.5772,-1.5605,-1.5598,-1.5605,-1.5698,-1.5738,-1.5598,-1.5337,-1.5164,-1.489,-1.4563,-1.4349,-1.4142,-1.4095,-1.4088,-1.3988,-1.3514,-1.3253,-1.306,-1.2583,-1.1977,-1.1304,-1.0757,-0.9764,-0.8029,-0.7481,-0.7102,-0.6954,-0.698,-0.742,-0.7838,-0.8034,-0.8043,-0.8646,-0.8699,-0.8752,-0.8752,-0.8804,-0.8804,-0.8804,-0.8804,-0.8804,-0.8804,-0.8804,-0.8804,-0.8804,-0.8804,-0.8804,-0.8804,-0.8804,-0.8804,-0.8804,-0.8804,-0.8804,-0.8804,-0.8804,-0.8804,-0.8804,-0.8804,-0.8804,-0.8804,-0.8646,-0.7943,-0.7289,-0.7015,-0.6421,-0.5277,-0.4787,-0.457,-0.4463,-0.4463,-0.457,-0.4787,-0.4952,-0.5277,-0.6258,-0.7058,-0.7284,-0.752,-0.7561,-0.7652,-0.7088,-0.6849,-0.698,-0.6937,-0.6972,-0.6972,-0.7014,-0.7682,-0.8398,-1.5825,-1.5825,-1.5825,-1.5825,-1.5825,-1.5825,-1.5825,-1.5825,-1.5825,-1.5825,-1.5825,-1.5825,-1.5752,-1.5665,-1.5738,-1.5504,-1.5164,-1.5424,-1.5531,-1.5478,-1.5551,-1.5698,-1.5778,-1.5712,-1.5745,-1.5725,-1.5725,-1.5725,-1.5812,-1.5818,-1.5825,-1.5785,-1.5558,-1.5331,-1.513,-1.4736,-1.4496,-1.4315,-1.4188,-1.4095,-1.3935,-1.3554,-1.3206,-1.318,-1.2605,-1.2055,-1.1465,-1.034,-0.9622,-0.8162,-0.7385,-0.6639,-0.6726,-0.6768,-0.6937,-0.82,-0.7494,-0.7634,-0.8533,-0.8374,-0.8427,-0.8699,-0.8752,-0.8804,-0.8804,-0.8804,-0.8804,-0.8804,-0.8804,-0.8804,-0.8804,-0.8804,-0.8804,-0.8804,-0.8804,-0.8804,-0.8804,-0.8804,-0.8804,-0.8804,-0.8804,-0.8804,-0.8804,-0.8804,-0.8752,-0.8646,-0.8533,-0.8103,-0.7283,-0.6524,-0.5764,-0.4791,-0.457,-0.4519,-0.4463,-0.4463,-0.457,-0.468,-0.468,-0.5167,-0.6154,-0.6768,-0.7131,-0.7633,-0.8081,-0.7993,-0.7709,-0.7364,-0.7065,-0.6999,-0.6972,-0.7041,-0.7103,-0.7594,-0.834,-1.5825,-1.5825,-1.5825,-1.5825,-1.5825,-1.5825,-1.5825,-1.5825,-1.5825,-1.5825,-1.5825,-1.5825,-1.5705,-1.5585,-1.5705,-1.5605,-1.5251,-1.5638,-1.5665,-1.5645,-1.5691,-1.5798,-1.5818,-1.5812,-1.5765,-1.5732,-1.5778,-1.5745,-1.5725,-1.5785,-1.5825,-1.5818,-1.5658,-1.5471,-1.5271,-1.4923,-1.4583,-1.4322,-1.4175,-1.4055,-1.3881,-1.3467,-1.3213,-1.2959,-1.2625,-1.207,-1.1391,-1.0261,-0.9237,-0.7868,-0.6682,-0.6143,-0.6601,-0.6463,-0.6859,-0.7728,-0.7323,-0.7413,-0.8103,-0.8315,-0.8156,-0.8368,-0.8752,-0.8804,-0.8804,-0.8804,-0.8804,-0.8804,-0.8804,-0.8804,-0.8804,-0.8804,-0.8804,-0.8804,-0.8804,-0.8804,-0.8804,-0.8804,-0.8804,-0.8804,-0.8804,-0.8804,-0.8804,-0.8804,-0.8699,-0.854,-0.8321,-0.8096,-0.723,-0.6249,-0.5492,-0.468,-0.4519,-0.4515,-0.4515,-0.4515,-0.457,-0.4625,-0.4625,-0.5277,-0.6421,-0.6912,-0.7208,-0.7763,-0.8448,-0.8337,-0.8029,-0.7548,-0.7108,-0.7054,-0.6985,-0.7094,-0.7285,-0.7743,-0.8273,-1.5825,-1.5825,-1.5825,-1.5825,-1.5825,-1.5825,-1.5825,-1.5825,-1.5812,-1.5805,-1.5785,-1.5812,-1.5778,-1.5792,-1.5785,-1.5785,-1.5738,-1.5805,-1.5785,-1.5785,-1.5825,-1.5825,-1.5825,-1.5792,-1.5718,-1.5571,-1.5705,-1.5678,-1.5551,-1.5705,-1.5778,-1.5812,-1.5732,-1.5605,-1.5357,-1.499,-1.4556,-1.4282,-1.4102,-1.3948,-1.3721,-1.338,-1.31,-1.2792,-1.2355,-1.1471,-0.9739,-0.9199,-0.8392,-0.6869,-0.6022,-0.5942,-0.6457,-0.6228,-0.6733,-0.7591,-0.7191,-0.7365,-0.8049,-0.8103,-0.7836,-0.7996,-0.8374,-0.8804,-0.8804,-0.8804,-0.8804,-0.8804,-0.8804,-0.8804,-0.8804,-0.8804,-0.8804,-0.8804,-0.8804,-0.8804,-0.8804,-0.8804,-0.8804,-0.8804,-0.8804,-0.8804,-0.8804,-0.8804,-0.8427,-0.8209,-0.7777,-0.7503,-0.6848,-0.5928,-0.5437,-0.4842,-0.468,-0.457,-0.457,-0.4625,-0.4732,-0.4842,-0.4842,-0.5819,-0.7074,-0.7289,-0.7133,-0.7994,-0.8624,-0.8464,-0.829,-0.7876,-0.7495,-0.7161,-0.7074,-0.7255,-0.7522,-0.7916,-0.8484,-1.5825,-1.5825,-1.5825,-1.5825,-1.5825,-1.5825,-1.5825,-1.5798,-1.5645,-1.5565,-1.5571,-1.5565,-1.5665,-1.5778,-1.5825,-1.5825,-1.5825,-1.5825,-1.5825,-1.5825,-1.5825,-1.5825,-1.5825,-1.5812,-1.5772,-1.5678,-1.5765,-1.5798,-1.5712,-1.5605,-1.5545,-1.5591,-1.5691,-1.5625,-1.5364,-1.4943,-1.4496,-1.4222,-1.4062,-1.3941,-1.3654,-1.336,-1.306,-1.2829,-1.169,-1.1105,-1.0151,-0.8773,-0.7746,-0.6841,-0.5946,-0.5937,-0.6241,-0.6034,-0.6639,-0.7684,-0.7072,-0.7311,-0.7937,-0.7937,-0.7883,-0.8374,-0.8646,-0.8752,-0.8752,-0.8752,-0.8804,-0.8804,-0.8752,-0.8699,-0.8804,-0.8804,-0.8804,-0.8804,-0.8804,-0.8804,-0.8804,-0.8804,-0.8804,-0.8804,-0.8804,-0.8804,-0.8804,-0.8804,-0.8315,-0.7883,-0.7343,-0.6853,-0.6253,-0.5982,-0.5601,-0.5218,-0.5003,-0.4625,-0.4625,-0.4732,-0.4952,-0.5003,-0.5058,-0.5982,-0.6907,-0.6912,-0.7015,-0.8,-0.8711,-0.8584,-0.8417,-0.8246,-0.7896,-0.7458,-0.7379,-0.7555,-0.786,-0.8092,-0.8564,-1.5825,-1.5825,-1.5825,-1.5825,-1.5825,-1.5825,-1.5825,-1.5792,-1.5631,-1.5464,-1.5411,-1.5478,-1.5571,-1.5705,-1.5805,-1.5825,-1.5825,-1.5825,-1.5825,-1.5825,-1.5825,-1.5825,-1.5798,-1.5732,-1.5645,-1.5685,-1.5591,-1.5524,-1.5464,-1.5344,-1.5284,-1.5324,-1.5438,-1.5371,-1.5204,-1.479,-1.4369,-1.4155,-1.4062,-1.3868,-1.3547,-1.2987,-1.2486,-1.2012,-1.0932,-0.9994,-0.9285,-0.8152,-0.725,-0.6526,-0.5977,-0.56,-0.5693,-0.6015,-0.6506,-0.6971,-0.7291,-0.7241,-0.7777,-0.783,-0.8049,-0.8586,-0.8752,-0.8699,-0.8533,-0.848,-0.8374,-0.8374,-0.8427,-0.8533,-0.8699,-0.8804,-0.8804,-0.8804,-0.8804,-0.8804,-0.8804,-0.8804,-0.8804,-0.8804,-0.8804,-0.8752,-0.8586,-0.8533,-0.7883,-0.7337,-0.6632,-0.6308,-0.6145,-0.5982,-0.6036,-0.5706,-0.5378,-0.5003,-0.4625,-0.4897,-0.5167,-0.5218,-0.5328,-0.566,-0.6312,-0.6426,-0.6858,-0.7812,-0.8364,-0.858,-0.8591,-0.8457,-0.8111,-0.7685,-0.7674,-0.7689,-0.7722,-0.799,-0.8327,-1.5825,-1.5825,-1.5825,-1.5825,-1.5825,-1.5825,-1.5818,-1.5765,-1.5691,-1.5531,-1.5344,-1.5571,-1.5605,-1.5538,-1.5712,-1.5818,-1.5825,-1.5825,-1.5825,-1.5825,-1.5825,-1.5825,-1.5752,-1.5645,-1.5585,-1.5371,-1.5304,-1.5231,-1.5144,-1.5017,-1.499,-1.497,-1.5017,-1.4983,-1.4937,-1.4669,-1.4369,-1.4135,-1.4088,-1.3734,-1.3213,-1.238,-1.166,-1.1069,-0.9802,-0.8881,-0.8148,-0.7438,-0.658,-0.5949,-0.5635,-0.5335,-0.5333,-0.5735,-0.624,-0.6658,-0.7268,-0.783,-0.854,-0.7996,-0.8156,-0.8639,-0.8804,-0.854,-0.7996,-0.7777,-0.7889,-0.7996,-0.7883,-0.8209,-0.848,-0.8804,-0.8804,-0.8804,-0.8804,-0.8804,-0.8804,-0.8804,-0.8804,-0.8804,-0.8804,-0.8752,-0.8533,-0.8156,-0.7503,-0.6799,-0.6032,-0.576,-0.5869,-0.6036,-0.6253,-0.6091,-0.5706,-0.5324,-0.5003,-0.5164,-0.5328,-0.5378,-0.5433,-0.5605,-0.5987,-0.6421,-0.6966,-0.7723,-0.8243,-0.8685,-0.8764,-0.8771,-0.8395,-0.8088,-0.7788,-0.7741,-0.7766,-0.7894,-0.833,-1.5825,-1.5825,-1.5825,-1.5825,-1.5825,-1.5825,-1.5732,-1.5491,-1.5157,-1.4917,-1.4897,-1.5124,-1.5351,-1.5444,-1.5658,-1.5812,-1.5825,-1.5825,-1.5825,-1.5825,-1.5792,-1.5825,-1.5758,-1.5671,-1.5638,-1.5598,-1.5418,-1.5284,-1.5578,-1.4997,-1.4836,-1.4863,-1.4623,-1.4509,-1.4543,-1.4396,-1.4155,-1.4062,-1.3895,-1.3512,-1.3074,-1.2054,-1.1171,-1.072,-0.9137,-0.7992,-0.7444,-0.6764,-0.6058,-0.5607,-0.5376,-0.5336,-0.5426,-0.5883,-0.6116,-0.6494,-0.6972,-0.702,-0.7456,-0.7402,-0.8049,-0.848,-0.8752,-0.848,-0.783,-0.7723,-0.767,-0.767,-0.7616,-0.7996,-0.8593,-0.8752,-0.8804,-0.8804,-0.8804,-0.8804,-0.8804,-0.8804,-0.8804,-0.8804,-0.8804,-0.8752,-0.8533,-0.8049,-0.7396,-0.7074,-0.647,-0.6199,-0.6312,-0.6367,-0.648,-0.6308,-0.6032,-0.5651,-0.5378,-0.5164,-0.5003,-0.4948,-0.4948,-0.5058,-0.555,-0.6204,-0.6907,-0.7509,-0.8156,-0.8804,-0.8804,-0.8791,-0.8731,-0.8499,-0.8184,-0.8078,-0.8208,-0.8305,-0.8528,-1.5825,-1.5818,-1.5718,-1.5738,-1.5818,-1.5825,-1.5712,-1.5478,-1.5044,-1.4823,-1.4897,-1.5057,-1.5217,-1.5424,-1.5578,-1.5772,-1.5792,-1.5591,-1.5758,-1.5738,-1.5585,-1.5651,-1.5698,-1.5578,-1.5511,-1.5538,-1.5271,-1.5064,-1.5357,-1.4716,-1.4496,-1.4469,-1.4295,-1.4269,-1.4282,-1.4188,-1.4108,-1.4048,-1.3908,-1.3647,-1.2974,-1.2126,-1.1248,-1.0421,-0.9175,-0.7821,-0.7292,-0.6616,-0.5848,-0.5582,-0.5391,-0.5318,-0.5601,-0.585,-0.601,-0.6267,-0.651,-0.6603,-0.6804,-0.7348,-0.7883,-0.8262,-0.8586,-0.8262,-0.7557,-0.7235,-0.7235,-0.7235,-0.7343,-0.7937,-0.8593,-0.8699,-0.8804,-0.8804,-0.8804,-0.8804,-0.8804,-0.8804,-0.8586,-0.8586,-0.8752,-0.8692,-0.8421,-0.7937,-0.7343,-0.7182,-0.7015,-0.6804,-0.6534,-0.6534,-0.6421,-0.6199,-0.5982,-0.5601,-0.5164,-0.4787,-0.4625,-0.4515,-0.4625,-0.4736,-0.5222,-0.5878,-0.6583,-0.7343,-0.8103,-0.8699,-0.8752,-0.8778,-0.8684,-0.8591,-0.843,-0.8477,-0.8667,-0.8671,-0.8606,-1.5798,-1.5758,-1.5504,-1.5538,-1.5758,-1.5732,-1.5752,-1.5758,-1.5471,-1.5317,-1.5311,-1.5257,-1.5271,-1.5317,-1.5371,-1.5504,-1.5618,-1.5231,-1.5371,-1.5484,-1.5284,-1.5438,-1.5357,-1.5104,-1.5237,-1.5197,-1.4977,-1.4723,-1.4903,-1.4543,-1.4269,-1.4162,-1.4142,-1.4128,-1.4128,-1.4115,-1.4088,-1.4062,-1.3935,-1.3634,-1.3028,-1.2141,-1.1349,-1.0432,-0.9187,-0.804,-0.7315,-0.6684,-0.6045,-0.5708,-0.5411,-0.5243,-0.5375,-0.5655,-0.5787,-0.5878,-0.6174,-0.6232,-0.6372,-0.6907,-0.7396,-0.7717,-0.8321,-0.7777,-0.7182,-0.6804,-0.6858,-0.6804,-0.6858,-0.7723,-0.848,-0.8639,-0.8804,-0.8804,-0.8804,-0.8804,-0.8804,-0.8639,-0.8362,-0.8368,-0.8639,-0.8533,-0.7984,-0.7498,-0.7456,-0.7348,-0.7074,-0.6583,-0.6367,-0.6258,-0.6145,-0.576,-0.5597,-0.5382,-0.5003,-0.4732,-0.4515,-0.4463,-0.4519,-0.468,-0.5117,-0.5714,-0.6529,-0.7396,-0.815,-0.856,-0.8639,-0.8644,-0.8604,-0.849,-0.8303,-0.872,-0.885,-0.8535,-0.8491,-1.5217,-1.5204,-1.5124,-1.5137,-1.5204,-1.5217,-1.5317,-1.5471,-1.5217,-1.499,-1.4783,-1.4997,-1.5003,-1.4796,-1.4983,-1.5124,-1.513,-1.5084,-1.5084,-1.507,-1.501,-1.509,-1.5057,-1.495,-1.503,-1.4957,-1.4763,-1.4509,-1.4803,-1.4516,-1.4222,-1.4128,-1.4088,-1.4088,-1.4088,-1.4082,-1.4068,-1.4015,-1.3888,-1.3561,-1.2988,-1.2132,-1.1425,-1.0622,-0.9192,-0.8193,-0.7579,-0.6696,-0.6071,-0.5572,-0.5428,-0.5322,-0.5051,-0.5107,-0.5121,-0.4896,-0.503,-0.512,-0.5226,-0.5764,-0.6411,-0.6961,-0.7616,-0.7456,-0.6918,-0.6534,-0.6534,-0.6588,-0.6642,-0.7396,-0.8315,-0.8699,-0.8804,-0.8804,-0.8804,-0.8804,-0.8804,-0.8699,-0.8421,-0.8421,-0.8639,-0.8137,-0.7593,-0.761,-0.7563,-0.7456,-0.7128,-0.6475,-0.6091,-0.6036,-0.5764,-0.5433,-0.5218,-0.5003,-0.5058,-0.4842,-0.4625,-0.4463,-0.457,-0.4787,-0.5332,-0.5928,-0.6691,-0.745,-0.8262,-0.8508,-0.8504,-0.8477,-0.849,-0.8223,-0.8084,-0.8634,-0.8944,-0.867,-0.8609,-1.506,-1.495,-1.4836,-1.479,-1.481,-1.491,-1.5077,-1.5157,-1.4917,-1.4776,-1.4856,-1.4816,-1.475,-1.475,-1.4796,-1.4856,-1.497,-1.471,-1.471,-1.4963,-1.4736,-1.4836,-1.4843,-1.4763,-1.4776,-1.4723,-1.4629,-1.4429,-1.4636,-1.4509,-1.4215,-1.4108,-1.4088,-1.4082,-1.4055,-1.3968,-1.3895,-1.3841,-1.3701,-1.3407,-1.2792,-1.2215,-1.1822,-1.1081,-0.9599,-0.8913,-0.8253,-0.7349,-0.6722,-0.6067,-0.5847,-0.5521,-0.5156,-0.4908,-0.4745,-0.4622,-0.4577,-0.4625,-0.4736,-0.5222,-0.5706,-0.6199,-0.6853,-0.6745,-0.6637,-0.6312,-0.648,-0.6588,-0.675,-0.7128,-0.8043,-0.8804,-0.8804,-0.8804,-0.8804,-0.8804,-0.8804,-0.8804,-0.8699,-0.8639,-0.8302,-0.78,-0.7587,-0.7658,-0.745,-0.7074,-0.6583,-0.6091,-0.576,-0.5706,-0.5382,-0.5003,-0.4842,-0.4677,-0.4732,-0.4842,-0.468,-0.4625,-0.4948,-0.5218,-0.5655,-0.6362,-0.7235,-0.7883,-0.848,-0.8547,-0.8439,-0.8397,-0.8343,-0.8043,-0.7829,-0.8169,-0.8626,-0.8884,-0.8931,-1.4863,-1.4803,-1.4543,-1.4396,-1.4482,-1.4689,-1.4843,-1.4897,-1.4616,-1.4783,-1.5084,-1.4756,-1.4649,-1.4656,-1.4576,-1.4616,-1.4603,-1.4402,-1.4429,-1.487,-1.4436,-1.4422,-1.4536,-1.4416,-1.4469,-1.4543,-1.4442,-1.4155,-1.4289,-1.4188,-1.4041,-1.4048,-1.4021,-1.3961,-1.3848,-1.3701,-1.3581,-1.346,-1.3407,-1.3227,-1.2913,-1.2712,-1.2667,-1.2191,-1.1417,-1.0691,-0.9994,-0.9237,-0.8431,-0.7233,-0.6374,-0.5955,-0.5279,-0.4813,-0.4606,-0.4524,-0.4467,-0.4463,-0.457,-0.5007,-0.5433,-0.5814,-0.6145,-0.6362,-0.6416,-0.6421,-0.6588,-0.6696,-0.6858,-0.7503,-0.8368,-0.8752,-0.8804,-0.8804,-0.8804,-0.8804,-0.8804,-0.8752,-0.8639,-0.8474,-0.819,-0.7747,-0.7706,-0.7783,-0.7616,-0.6907,-0.6367,-0.5873,-0.5382,-0.5324,-0.5109,-0.4736,-0.4625,-0.457,-0.457,-0.4625,-0.457,-0.4677,-0.5003,-0.5546,-0.5928,-0.6848,-0.7883,-0.8237,-0.8475,-0.8508,-0.8493,-0.8317,-0.8029,-0.7762,-0.7639,-0.7767,-0.8114,-0.8535,-0.8853,-1.4162,-1.3935,-1.3641,-1.3641,-1.3848,-1.3928,-1.4235,-1.4583,-1.4315,-1.4402,-1.4656,-1.4583,-1.4429,-1.4335,-1.4289,-1.4309,-1.4249,-1.4235,-1.4195,-1.4295,-1.4108,-1.4122,-1.4289,-1.4195,-1.4208,-1.4122,-1.3988,-1.3821,-1.3848,-1.3794,-1.3748,-1.3748,-1.3741,-1.3687,-1.3507,-1.3347,-1.324,-1.3093,-1.2993,-1.2933,-1.2788,-1.2755,-1.2599,-1.2057,-1.139,-1.0728,-0.9909,-0.9113,-0.7952,-0.6693,-0.6493,-0.5817,-0.4862,-0.4676,-0.4573,-0.4525,-0.4463,-0.4463,-0.4515,-0.4791,-0.5167,-0.571,-0.6145,-0.6524,-0.6686,-0.6637,-0.6691,-0.6799,-0.7182,-0.7937,-0.848,-0.8646,-0.8804,-0.8804,-0.8857,-0.8857,-0.8857,-0.8692,-0.858,-0.8302,-0.8072,-0.7978,-0.7937,-0.7783,-0.7616,-0.7235,-0.675,-0.615,-0.5167,-0.4787,-0.4838,-0.457,-0.457,-0.4515,-0.4463,-0.4463,-0.4463,-0.457,-0.4787,-0.5437,-0.6145,-0.7015,-0.7877,-0.8128,-0.8339,-0.8326,-0.8206,-0.7889,-0.7615,-0.7482,-0.7328,-0.7421,-0.7502,-0.7865,-0.8233,-1.3601,-1.3434,-1.328,-1.3373,-1.3614,-1.3647,-1.3908,-1.4242,-1.4155,-1.4175,-1.4315,-1.4322,-1.4235,-1.4088,-1.4088,-1.4075,-1.4075,-1.4088,-1.4001,-1.3948,-1.4001,-1.3968,-1.3988,-1.4021,-1.4095,-1.4015,-1.3781,-1.3627,-1.348,-1.3454,-1.3454,-1.3454,-1.3434,-1.336,-1.3166,-1.308,-1.2926,-1.2849,-1.2701,-1.2573,-1.252,-1.2438,-1.2392,-1.1893,-1.1391,-1.076,-1.0344,-0.9608,-0.8689,-0.7379,-0.6716,-0.5648,-0.4873,-0.458,-0.4477,-0.4463,-0.4463,-0.4463,-0.4463,-0.4625,-0.4897,-0.5386,-0.5441,-0.5605,-0.6195,-0.6253,-0.6907,-0.7074,-0.7343,-0.799,-0.848,-0.8752,-0.8804,-0.8804,-0.9159,-0.9361,-0.9183,-0.9006,-0.8817,-0.8586,-0.8415,-0.8415,-0.8268,-0.7889,-0.7616,-0.6907,-0.6475,-0.5878,-0.5007,-0.4463,-0.4463,-0.4463,-0.4463,-0.4463,-0.4463,-0.4463,-0.4463,-0.457,-0.4677,-0.571,-0.6632,-0.7235,-0.7818,-0.7929,-0.8013,-0.8056,-0.7864,-0.7649,-0.7548,-0.7468,-0.7261,-0.7047,-0.7189,-0.7363,-0.7757,-1.32,-1.3153,-1.31,-1.3253,-1.35,-1.352,-1.3681,-1.3928,-1.3961,-1.3955,-1.3948,-1.3955,-1.4001,-1.4082,-1.4082,-1.4055,-1.4015,-1.3955,-1.3828,-1.3794,-1.3908,-1.3921,-1.3915,-1.3915,-1.3861,-1.3734,-1.3514,-1.332,-1.3153,-1.3146,-1.3146,-1.3153,-1.314,-1.312,-1.3019,-1.2866,-1.2721,-1.2559,-1.2398,-1.2138,-1.2084,-1.2091,-1.2024,-1.1824,-1.153,-1.1256,-1.0982,-1.058,-0.9907,-0.8425,-0.6832,-0.5673,-0.4941,-0.4639,-0.447,-0.4463,-0.4463,-0.4463,-0.4463,-0.4519,-0.4625,-0.4732,-0.457,-0.4897,-0.5597,-0.6249,-0.6907,-0.7385,-0.7605,-0.8049,-0.8533,-0.8804,-0.8804,-0.8857,-0.9316,-0.9614,-0.9377,-0.9141,-0.8974,-0.8758,-0.8752,-0.8752,-0.8533,-0.8103,-0.745,-0.6691,-0.5982,-0.5277,-0.4732,-0.457,-0.4463,-0.4463,-0.4463,-0.4463,-0.4463,-0.4677,-0.4787,-0.4677,-0.4948,-0.6032,-0.6848,-0.6848,-0.7063,-0.7486,-0.7565,-0.755,-0.7629,-0.7532,-0.7485,-0.7428,-0.7221,-0.7021,-0.7363,-0.7489,-0.7538,-1.306,-1.2896,-1.2579,-1.2659,-1.2906,-1.2926,-1.3086,-1.3347,-1.34,-1.338,-1.3427,-1.344,-1.3601,-1.4075,-1.4088,-1.4001,-1.3794,-1.3754,-1.3728,-1.3694,-1.3681,-1.3808,-1.3834,-1.3674,-1.3407,-1.322,-1.306,-1.2913,-1.2839,-1.2839,-1.2916,-1.2839,-1.2819,-1.2712,-1.2478,-1.2371,-1.2325,-1.2245,-1.2111,-1.1877,-1.1864,-1.1837,-1.1744,-1.1523,-1.1229,-1.1089,-1.0922,-1.0708,-0.9835,-0.8444,-0.6862,-0.5806,-0.5187,-0.4791,-0.4515,-0.4463,-0.4463,-0.4463,-0.4463,-0.4463,-0.457,-0.4948,-0.4952,-0.5054,-0.5706,-0.6362,-0.7004,-0.7623,-0.7953,-0.8368,-0.8804,-0.8804,-0.8804,-0.891,-0.9159,-0.9211,-0.9093,-0.904,-0.9008,-0.8864,-0.8752,-0.8752,-0.8699,-0.8156,-0.7456,-0.6691,-0.5928,-0.5273,-0.4625,-0.457,-0.4463,-0.4463,-0.4463,-0.4463,-0.4515,-0.5054,-0.5218,-0.4999,-0.5003,-0.5651,-0.5977,-0.5814,-0.6081,-0.6676,-0.6797,-0.6775,-0.6915,-0.7206,-0.7348,-0.7284,-0.7111,-0.7105,-0.7447,-0.7704,-0.7787]}]]